<?xml version="1.0" encoding="UTF-8" standalone="no" ?>
<gpx xmlns="http://www.topografix.com/GPX/1/1" xmlns:xsi="http://www.w3.org/2001/XMLSchema-instance" xsi:schemaLocation="http://www.topografix.com/GPX/1/1 http://www.topografix.com/GPX/1/1/gpx.xsd" version="1.1" creator="VisuGPX - https://www.visugpx.com">
  <metadata>
    <name>SityTrail - vs st Pierre </name>
    <desc><![CDATA[tour autour de la maison ]]></desc>
  </metadata>
  <trk>
    <name><![CDATA[SityTrail - vs st Pierre ]]></name>
    <desc><![CDATA[tour autour de la maison ]]></desc>
    <trkseg>
      <trkpt lat="45.62636" lon="5.72652">
        <ele>662</ele>
        <time>2021-02-21T13:41:04.316Z</time>
      </trkpt>
      <trkpt lat="45.62632" lon="5.7265">
        <ele>662</ele>
        <time>2021-02-21T13:47:52.330Z</time>
      </trkpt>
      <trkpt lat="45.62631" lon="5.72651">
        <ele>662</ele>
        <time>2021-02-21T13:47:57.317Z</time>
      </trkpt>
      <trkpt lat="45.6263" lon="5.72648">
        <ele>662</ele>
        <time>2021-02-21T13:48:02.326Z</time>
      </trkpt>
      <trkpt lat="45.62627" lon="5.72648">
        <ele>662</ele>
        <time>2021-02-21T13:48:06.401Z</time>
      </trkpt>
      <trkpt lat="45.62623" lon="5.7265">
        <ele>664</ele>
        <time>2021-02-21T13:48:11.323Z</time>
      </trkpt>
      <trkpt lat="45.62626" lon="5.72651">
        <ele>662</ele>
        <time>2021-02-21T13:48:25.359Z</time>
      </trkpt>
      <trkpt lat="45.62628" lon="5.72655">
        <ele>658</ele>
        <time>2021-02-21T13:48:30.344Z</time>
      </trkpt>
      <trkpt lat="45.62628" lon="5.72653">
        <ele>658</ele>
        <time>2021-02-21T13:48:35.340Z</time>
      </trkpt>
      <trkpt lat="45.6263" lon="5.72654">
        <ele>658</ele>
        <time>2021-02-21T13:48:40.338Z</time>
      </trkpt>
      <trkpt lat="45.62632" lon="5.72653">
        <ele>662</ele>
        <time>2021-02-21T13:48:44.347Z</time>
      </trkpt>
      <trkpt lat="45.62628" lon="5.72648">
        <ele>662</ele>
        <time>2021-02-21T13:49:06.328Z</time>
      </trkpt>
      <trkpt lat="45.62635" lon="5.72637">
        <ele>662</ele>
        <time>2021-02-21T13:49:11.300Z</time>
      </trkpt>
      <trkpt lat="45.62639" lon="5.72632">
        <ele>662</ele>
        <time>2021-02-21T13:49:16.346Z</time>
      </trkpt>
      <trkpt lat="45.62642" lon="5.72628">
        <ele>662</ele>
        <time>2021-02-21T13:49:21.384Z</time>
      </trkpt>
      <trkpt lat="45.62647" lon="5.72624">
        <ele>668</ele>
        <time>2021-02-21T13:49:26.325Z</time>
      </trkpt>
      <trkpt lat="45.6265" lon="5.72624">
        <ele>668</ele>
        <time>2021-02-21T13:49:31.343Z</time>
      </trkpt>
      <trkpt lat="45.62648" lon="5.72629">
        <ele>662</ele>
        <time>2021-02-21T13:49:36.337Z</time>
      </trkpt>
      <trkpt lat="45.62643" lon="5.72633">
        <ele>662</ele>
        <time>2021-02-21T13:49:41.341Z</time>
      </trkpt>
      <trkpt lat="45.6264" lon="5.72637">
        <ele>662</ele>
        <time>2021-02-21T13:49:45.351Z</time>
      </trkpt>
      <trkpt lat="45.62631" lon="5.72654">
        <ele>658</ele>
        <time>2021-02-21T13:51:02.359Z</time>
      </trkpt>
      <trkpt lat="45.62631" lon="5.72654">
        <ele>658</ele>
        <time>2021-02-21T13:51:07.356Z</time>
      </trkpt>
      <trkpt lat="45.6263" lon="5.72654">
        <ele>658</ele>
        <time>2021-02-21T13:51:11.342Z</time>
      </trkpt>
      <trkpt lat="45.6263" lon="5.72654">
        <ele>658</ele>
        <time>2021-02-21T13:51:15.400Z</time>
      </trkpt>
      <trkpt lat="45.62629" lon="5.72655">
        <ele>658</ele>
        <time>2021-02-21T13:51:20.334Z</time>
      </trkpt>
      <trkpt lat="45.62637" lon="5.72651">
        <ele>662</ele>
        <time>2021-02-21T13:52:45.351Z</time>
      </trkpt>
      <trkpt lat="45.62637" lon="5.72645">
        <ele>662</ele>
        <time>2021-02-21T13:52:49.351Z</time>
      </trkpt>
      <trkpt lat="45.62638" lon="5.72635">
        <ele>662</ele>
        <time>2021-02-21T13:52:54.298Z</time>
      </trkpt>
      <trkpt lat="45.62642" lon="5.7263">
        <ele>662</ele>
        <time>2021-02-21T13:52:59.312Z</time>
      </trkpt>
      <trkpt lat="45.62647" lon="5.72625">
        <ele>662</ele>
        <time>2021-02-21T13:53:03.342Z</time>
      </trkpt>
      <trkpt lat="45.62654" lon="5.72625">
        <ele>659</ele>
        <time>2021-02-21T13:53:49.311Z</time>
      </trkpt>
      <trkpt lat="45.62654" lon="5.72622">
        <ele>664</ele>
        <time>2021-02-21T13:53:53.347Z</time>
      </trkpt>
      <trkpt lat="45.62654" lon="5.7262">
        <ele>664</ele>
        <time>2021-02-21T13:53:57.360Z</time>
      </trkpt>
      <trkpt lat="45.6265" lon="5.72616">
        <ele>668</ele>
        <time>2021-02-21T13:54:02.321Z</time>
      </trkpt>
      <trkpt lat="45.62644" lon="5.72618">
        <ele>668</ele>
        <time>2021-02-21T13:54:07.323Z</time>
      </trkpt>
      <trkpt lat="45.62636" lon="5.72618">
        <ele>668</ele>
        <time>2021-02-21T13:54:12.330Z</time>
      </trkpt>
      <trkpt lat="45.62631" lon="5.72623">
        <ele>668</ele>
        <time>2021-02-21T13:54:17.345Z</time>
      </trkpt>
      <trkpt lat="45.62625" lon="5.72626">
        <ele>662</ele>
        <time>2021-02-21T13:54:22.311Z</time>
      </trkpt>
      <trkpt lat="45.62621" lon="5.72628">
        <ele>664</ele>
        <time>2021-02-21T13:54:26.366Z</time>
      </trkpt>
      <trkpt lat="45.62614" lon="5.72628">
        <ele>664</ele>
        <time>2021-02-21T13:54:31.372Z</time>
      </trkpt>
      <trkpt lat="45.62607" lon="5.72629">
        <ele>664</ele>
        <time>2021-02-21T13:54:36.336Z</time>
      </trkpt>
      <trkpt lat="45.62601" lon="5.72629">
        <ele>664</ele>
        <time>2021-02-21T13:54:40.361Z</time>
      </trkpt>
      <trkpt lat="45.62596" lon="5.72629">
        <ele>665</ele>
        <time>2021-02-21T13:54:44.350Z</time>
      </trkpt>
      <trkpt lat="45.6259" lon="5.7263">
        <ele>665</ele>
        <time>2021-02-21T13:54:49.358Z</time>
      </trkpt>
      <trkpt lat="45.62585" lon="5.72631">
        <ele>665</ele>
        <time>2021-02-21T13:54:54.331Z</time>
      </trkpt>
      <trkpt lat="45.62579" lon="5.72632">
        <ele>665</ele>
        <time>2021-02-21T13:54:59.372Z</time>
      </trkpt>
      <trkpt lat="45.62573" lon="5.72632">
        <ele>665</ele>
        <time>2021-02-21T13:55:04.324Z</time>
      </trkpt>
      <trkpt lat="45.62566" lon="5.72631">
        <ele>667</ele>
        <time>2021-02-21T13:55:09.326Z</time>
      </trkpt>
      <trkpt lat="45.62559" lon="5.72633">
        <ele>667</ele>
        <time>2021-02-21T13:55:14.323Z</time>
      </trkpt>
      <trkpt lat="45.62555" lon="5.72634">
        <ele>667</ele>
        <time>2021-02-21T13:55:18.364Z</time>
      </trkpt>
      <trkpt lat="45.62548" lon="5.72635">
        <ele>667</ele>
        <time>2021-02-21T13:55:23.289Z</time>
      </trkpt>
      <trkpt lat="45.62548" lon="5.72625">
        <ele>667</ele>
        <time>2021-02-21T13:55:32.330Z</time>
      </trkpt>
      <trkpt lat="45.62552" lon="5.72622">
        <ele>675</ele>
        <time>2021-02-21T13:55:37.321Z</time>
      </trkpt>
      <trkpt lat="45.62553" lon="5.72621">
        <ele>675</ele>
        <time>2021-02-21T13:55:42.364Z</time>
      </trkpt>
      <trkpt lat="45.62554" lon="5.72621">
        <ele>675</ele>
        <time>2021-02-21T13:55:47.356Z</time>
      </trkpt>
      <trkpt lat="45.62557" lon="5.72617">
        <ele>675</ele>
        <time>2021-02-21T13:55:52.334Z</time>
      </trkpt>
      <trkpt lat="45.62562" lon="5.72613">
        <ele>675</ele>
        <time>2021-02-21T13:56:11.312Z</time>
      </trkpt>
      <trkpt lat="45.62562" lon="5.72613">
        <ele>675</ele>
        <time>2021-02-21T13:56:15.379Z</time>
      </trkpt>
      <trkpt lat="45.62563" lon="5.72613">
        <ele>675</ele>
        <time>2021-02-21T13:56:20.302Z</time>
      </trkpt>
      <trkpt lat="45.62564" lon="5.72613">
        <ele>675</ele>
        <time>2021-02-21T13:56:25.330Z</time>
      </trkpt>
      <trkpt lat="45.62567" lon="5.72611">
        <ele>675</ele>
        <time>2021-02-21T13:56:30.323Z</time>
      </trkpt>
      <trkpt lat="45.62578" lon="5.72613">
        <ele>672</ele>
        <time>2021-02-21T13:57:17.358Z</time>
      </trkpt>
      <trkpt lat="45.62579" lon="5.72611">
        <ele>672</ele>
        <time>2021-02-21T13:57:21.345Z</time>
      </trkpt>
      <trkpt lat="45.6258" lon="5.7261">
        <ele>672</ele>
        <time>2021-02-21T13:57:25.343Z</time>
      </trkpt>
      <trkpt lat="45.6258" lon="5.7261">
        <ele>672</ele>
        <time>2021-02-21T13:57:30.327Z</time>
      </trkpt>
      <trkpt lat="45.6258" lon="5.7261">
        <ele>672</ele>
        <time>2021-02-21T13:57:34.334Z</time>
      </trkpt>
      <trkpt lat="45.62581" lon="5.72611">
        <ele>672</ele>
        <time>2021-02-21T13:57:49.252Z</time>
      </trkpt>
      <trkpt lat="45.62581" lon="5.7261">
        <ele>672</ele>
        <time>2021-02-21T13:57:53.323Z</time>
      </trkpt>
      <trkpt lat="45.62581" lon="5.72608">
        <ele>672</ele>
        <time>2021-02-21T13:57:58.322Z</time>
      </trkpt>
      <trkpt lat="45.62585" lon="5.72602">
        <ele>672</ele>
        <time>2021-02-21T13:58:02.332Z</time>
      </trkpt>
      <trkpt lat="45.62589" lon="5.72597">
        <ele>680</ele>
        <time>2021-02-21T13:58:07.348Z</time>
      </trkpt>
      <trkpt lat="45.62594" lon="5.72595">
        <ele>680</ele>
        <time>2021-02-21T13:58:12.321Z</time>
      </trkpt>
      <trkpt lat="45.62595" lon="5.72594">
        <ele>680</ele>
        <time>2021-02-21T13:58:16.354Z</time>
      </trkpt>
      <trkpt lat="45.62599" lon="5.72587">
        <ele>677</ele>
        <time>2021-02-21T13:58:21.320Z</time>
      </trkpt>
      <trkpt lat="45.62605" lon="5.72578">
        <ele>677</ele>
        <time>2021-02-21T13:58:26.356Z</time>
      </trkpt>
      <trkpt lat="45.62611" lon="5.72572">
        <ele>677</ele>
        <time>2021-02-21T13:58:31.324Z</time>
      </trkpt>
      <trkpt lat="45.62612" lon="5.7257">
        <ele>677</ele>
        <time>2021-02-21T13:58:35.355Z</time>
      </trkpt>
      <trkpt lat="45.62619" lon="5.72564">
        <ele>684</ele>
        <time>2021-02-21T13:58:40.342Z</time>
      </trkpt>
      <trkpt lat="45.62625" lon="5.72561">
        <ele>684</ele>
        <time>2021-02-21T13:58:44.352Z</time>
      </trkpt>
      <trkpt lat="45.62634" lon="5.72554">
        <ele>680</ele>
        <time>2021-02-21T13:58:49.350Z</time>
      </trkpt>
      <trkpt lat="45.6264" lon="5.72546">
        <ele>680</ele>
        <time>2021-02-21T13:58:54.330Z</time>
      </trkpt>
      <trkpt lat="45.62644" lon="5.72542">
        <ele>680</ele>
        <time>2021-02-21T13:58:59.335Z</time>
      </trkpt>
      <trkpt lat="45.62647" lon="5.7254">
        <ele>688</ele>
        <time>2021-02-21T13:59:03.352Z</time>
      </trkpt>
      <trkpt lat="45.62652" lon="5.72536">
        <ele>688</ele>
        <time>2021-02-21T13:59:08.331Z</time>
      </trkpt>
      <trkpt lat="45.62658" lon="5.72532">
        <ele>685</ele>
        <time>2021-02-21T13:59:13.386Z</time>
      </trkpt>
      <trkpt lat="45.62665" lon="5.72527">
        <ele>685</ele>
        <time>2021-02-21T13:59:18.338Z</time>
      </trkpt>
      <trkpt lat="45.62667" lon="5.72523">
        <ele>685</ele>
        <time>2021-02-21T13:59:23.341Z</time>
      </trkpt>
      <trkpt lat="45.62673" lon="5.72519">
        <ele>685</ele>
        <time>2021-02-21T13:59:27.362Z</time>
      </trkpt>
      <trkpt lat="45.6268" lon="5.72511">
        <ele>693</ele>
        <time>2021-02-21T13:59:32.353Z</time>
      </trkpt>
      <trkpt lat="45.62685" lon="5.72505">
        <ele>688</ele>
        <time>2021-02-21T13:59:37.326Z</time>
      </trkpt>
      <trkpt lat="45.62689" lon="5.72502">
        <ele>688</ele>
        <time>2021-02-21T13:59:41.397Z</time>
      </trkpt>
      <trkpt lat="45.62693" lon="5.72499">
        <ele>688</ele>
        <time>2021-02-21T13:59:46.349Z</time>
      </trkpt>
      <trkpt lat="45.627" lon="5.72492">
        <ele>688</ele>
        <time>2021-02-21T13:59:51.314Z</time>
      </trkpt>
      <trkpt lat="45.62707" lon="5.72489">
        <ele>688</ele>
        <time>2021-02-21T13:59:56.352Z</time>
      </trkpt>
      <trkpt lat="45.62712" lon="5.72486">
        <ele>684</ele>
        <time>2021-02-21T14:00:01.327Z</time>
      </trkpt>
      <trkpt lat="45.62715" lon="5.72482">
        <ele>689</ele>
        <time>2021-02-21T14:00:06.342Z</time>
      </trkpt>
      <trkpt lat="45.62724" lon="5.72479">
        <ele>689</ele>
        <time>2021-02-21T14:00:11.333Z</time>
      </trkpt>
      <trkpt lat="45.62731" lon="5.72476">
        <ele>689</ele>
        <time>2021-02-21T14:00:16.333Z</time>
      </trkpt>
      <trkpt lat="45.62738" lon="5.72473">
        <ele>685</ele>
        <time>2021-02-21T14:00:21.340Z</time>
      </trkpt>
      <trkpt lat="45.62746" lon="5.72466">
        <ele>685</ele>
        <time>2021-02-21T14:00:26.340Z</time>
      </trkpt>
      <trkpt lat="45.62752" lon="5.72463">
        <ele>685</ele>
        <time>2021-02-21T14:00:30.356Z</time>
      </trkpt>
      <trkpt lat="45.62759" lon="5.72462">
        <ele>685</ele>
        <time>2021-02-21T14:00:35.373Z</time>
      </trkpt>
      <trkpt lat="45.62766" lon="5.72459">
        <ele>684</ele>
        <time>2021-02-21T14:00:40.340Z</time>
      </trkpt>
      <trkpt lat="45.62771" lon="5.72455">
        <ele>689</ele>
        <time>2021-02-21T14:00:45.356Z</time>
      </trkpt>
      <trkpt lat="45.62778" lon="5.72453">
        <ele>689</ele>
        <time>2021-02-21T14:00:50.367Z</time>
      </trkpt>
      <trkpt lat="45.62783" lon="5.72451">
        <ele>689</ele>
        <time>2021-02-21T14:00:55.337Z</time>
      </trkpt>
      <trkpt lat="45.6279" lon="5.72447">
        <ele>689</ele>
        <time>2021-02-21T14:01:00.329Z</time>
      </trkpt>
      <trkpt lat="45.62796" lon="5.72445">
        <ele>689</ele>
        <time>2021-02-21T14:01:05.299Z</time>
      </trkpt>
      <trkpt lat="45.62801" lon="5.72442">
        <ele>689</ele>
        <time>2021-02-21T14:01:09.375Z</time>
      </trkpt>
      <trkpt lat="45.62807" lon="5.72437">
        <ele>689</ele>
        <time>2021-02-21T14:01:13.371Z</time>
      </trkpt>
      <trkpt lat="45.62813" lon="5.72431">
        <ele>689</ele>
        <time>2021-02-21T14:01:18.352Z</time>
      </trkpt>
      <trkpt lat="45.62821" lon="5.72426">
        <ele>692</ele>
        <time>2021-02-21T14:01:23.338Z</time>
      </trkpt>
      <trkpt lat="45.62828" lon="5.72423">
        <ele>692</ele>
        <time>2021-02-21T14:01:28.339Z</time>
      </trkpt>
      <trkpt lat="45.62835" lon="5.72416">
        <ele>692</ele>
        <time>2021-02-21T14:01:33.294Z</time>
      </trkpt>
      <trkpt lat="45.62839" lon="5.72409">
        <ele>692</ele>
        <time>2021-02-21T14:01:37.358Z</time>
      </trkpt>
      <trkpt lat="45.62845" lon="5.72402">
        <ele>695</ele>
        <time>2021-02-21T14:01:42.353Z</time>
      </trkpt>
      <trkpt lat="45.62851" lon="5.72396">
        <ele>693</ele>
        <time>2021-02-21T14:01:47.341Z</time>
      </trkpt>
      <trkpt lat="45.62856" lon="5.72386">
        <ele>693</ele>
        <time>2021-02-21T14:01:52.337Z</time>
      </trkpt>
      <trkpt lat="45.62858" lon="5.72379">
        <ele>693</ele>
        <time>2021-02-21T14:01:57.325Z</time>
      </trkpt>
      <trkpt lat="45.62861" lon="5.72372">
        <ele>696</ele>
        <time>2021-02-21T14:02:01.332Z</time>
      </trkpt>
      <trkpt lat="45.62865" lon="5.72367">
        <ele>696</ele>
        <time>2021-02-21T14:02:06.344Z</time>
      </trkpt>
      <trkpt lat="45.6287" lon="5.72359">
        <ele>696</ele>
        <time>2021-02-21T14:02:11.329Z</time>
      </trkpt>
      <trkpt lat="45.62876" lon="5.72348">
        <ele>695</ele>
        <time>2021-02-21T14:02:16.360Z</time>
      </trkpt>
      <trkpt lat="45.6288" lon="5.7234">
        <ele>697</ele>
        <time>2021-02-21T14:02:21.362Z</time>
      </trkpt>
      <trkpt lat="45.62884" lon="5.72332">
        <ele>697</ele>
        <time>2021-02-21T14:02:26.328Z</time>
      </trkpt>
      <trkpt lat="45.62887" lon="5.72328">
        <ele>697</ele>
        <time>2021-02-21T14:02:30.347Z</time>
      </trkpt>
      <trkpt lat="45.6289" lon="5.72322">
        <ele>697</ele>
        <time>2021-02-21T14:02:35.362Z</time>
      </trkpt>
      <trkpt lat="45.62893" lon="5.72314">
        <ele>697</ele>
        <time>2021-02-21T14:02:40.346Z</time>
      </trkpt>
      <trkpt lat="45.62897" lon="5.72309">
        <ele>697</ele>
        <time>2021-02-21T14:02:44.356Z</time>
      </trkpt>
      <trkpt lat="45.62903" lon="5.72299">
        <ele>696</ele>
        <time>2021-02-21T14:02:49.338Z</time>
      </trkpt>
      <trkpt lat="45.62907" lon="5.72291">
        <ele>697</ele>
        <time>2021-02-21T14:02:54.343Z</time>
      </trkpt>
      <trkpt lat="45.62911" lon="5.72283">
        <ele>697</ele>
        <time>2021-02-21T14:02:59.335Z</time>
      </trkpt>
      <trkpt lat="45.62916" lon="5.72275">
        <ele>697</ele>
        <time>2021-02-21T14:03:04.288Z</time>
      </trkpt>
      <trkpt lat="45.62918" lon="5.72268">
        <ele>697</ele>
        <time>2021-02-21T14:03:08.339Z</time>
      </trkpt>
      <trkpt lat="45.62919" lon="5.7226">
        <ele>699</ele>
        <time>2021-02-21T14:03:13.321Z</time>
      </trkpt>
      <trkpt lat="45.6292" lon="5.72236">
        <ele>703</ele>
        <time>2021-02-21T14:03:50.330Z</time>
      </trkpt>
      <trkpt lat="45.62919" lon="5.72234">
        <ele>703</ele>
        <time>2021-02-21T14:03:55.326Z</time>
      </trkpt>
      <trkpt lat="45.62919" lon="5.72233">
        <ele>703</ele>
        <time>2021-02-21T14:03:59.308Z</time>
      </trkpt>
      <trkpt lat="45.62919" lon="5.72232">
        <ele>703</ele>
        <time>2021-02-21T14:04:04.304Z</time>
      </trkpt>
      <trkpt lat="45.62919" lon="5.72232">
        <ele>703</ele>
        <time>2021-02-21T14:04:08.318Z</time>
      </trkpt>
      <trkpt lat="45.62919" lon="5.72232">
        <ele>703</ele>
        <time>2021-02-21T14:04:46.322Z</time>
      </trkpt>
      <trkpt lat="45.62921" lon="5.72227">
        <ele>703</ele>
        <time>2021-02-21T14:04:51.315Z</time>
      </trkpt>
      <trkpt lat="45.62923" lon="5.72219">
        <ele>703</ele>
        <time>2021-02-21T14:04:55.368Z</time>
      </trkpt>
      <trkpt lat="45.62927" lon="5.7221">
        <ele>703</ele>
        <time>2021-02-21T14:05:00.353Z</time>
      </trkpt>
      <trkpt lat="45.62933" lon="5.72201">
        <ele>703</ele>
        <time>2021-02-21T14:05:05.294Z</time>
      </trkpt>
      <trkpt lat="45.62938" lon="5.72192">
        <ele>703</ele>
        <time>2021-02-21T14:05:09.334Z</time>
      </trkpt>
      <trkpt lat="45.6294" lon="5.72188">
        <ele>703</ele>
        <time>2021-02-21T14:05:14.323Z</time>
      </trkpt>
      <trkpt lat="45.62941" lon="5.72185">
        <ele>703</ele>
        <time>2021-02-21T14:05:19.346Z</time>
      </trkpt>
      <trkpt lat="45.62942" lon="5.72183">
        <ele>703</ele>
        <time>2021-02-21T14:05:24.339Z</time>
      </trkpt>
      <trkpt lat="45.62943" lon="5.72182">
        <ele>703</ele>
        <time>2021-02-21T14:05:29.321Z</time>
      </trkpt>
      <trkpt lat="45.62946" lon="5.72174">
        <ele>709</ele>
        <time>2021-02-21T14:05:34.333Z</time>
      </trkpt>
      <trkpt lat="45.62949" lon="5.72165">
        <ele>709</ele>
        <time>2021-02-21T14:05:38.399Z</time>
      </trkpt>
      <trkpt lat="45.62952" lon="5.72158">
        <ele>709</ele>
        <time>2021-02-21T14:05:43.337Z</time>
      </trkpt>
      <trkpt lat="45.62953" lon="5.72157">
        <ele>709</ele>
        <time>2021-02-21T14:05:47.341Z</time>
      </trkpt>
      <trkpt lat="45.62959" lon="5.72145">
        <ele>710</ele>
        <time>2021-02-21T14:05:52.337Z</time>
      </trkpt>
      <trkpt lat="45.62963" lon="5.72135">
        <ele>710</ele>
        <time>2021-02-21T14:05:57.330Z</time>
      </trkpt>
      <trkpt lat="45.62964" lon="5.72131">
        <ele>710</ele>
        <time>2021-02-21T14:06:02.316Z</time>
      </trkpt>
      <trkpt lat="45.62968" lon="5.72124">
        <ele>713</ele>
        <time>2021-02-21T14:06:07.287Z</time>
      </trkpt>
      <trkpt lat="45.62971" lon="5.72116">
        <ele>713</ele>
        <time>2021-02-21T14:06:11.328Z</time>
      </trkpt>
      <trkpt lat="45.62973" lon="5.72113">
        <ele>713</ele>
        <time>2021-02-21T14:06:16.319Z</time>
      </trkpt>
      <trkpt lat="45.62976" lon="5.72108">
        <ele>713</ele>
        <time>2021-02-21T14:06:21.332Z</time>
      </trkpt>
      <trkpt lat="45.62983" lon="5.72095">
        <ele>718</ele>
        <time>2021-02-21T14:06:26.324Z</time>
      </trkpt>
      <trkpt lat="45.6299" lon="5.72085">
        <ele>716</ele>
        <time>2021-02-21T14:06:31.376Z</time>
      </trkpt>
      <trkpt lat="45.62997" lon="5.7208">
        <ele>716</ele>
        <time>2021-02-21T14:06:36.281Z</time>
      </trkpt>
      <trkpt lat="45.63002" lon="5.72076">
        <ele>716</ele>
        <time>2021-02-21T14:06:40.350Z</time>
      </trkpt>
      <trkpt lat="45.63006" lon="5.72066">
        <ele>721</ele>
        <time>2021-02-21T14:06:45.330Z</time>
      </trkpt>
      <trkpt lat="45.6301" lon="5.72062">
        <ele>721</ele>
        <time>2021-02-21T14:06:50.351Z</time>
      </trkpt>
      <trkpt lat="45.63015" lon="5.72058">
        <ele>720</ele>
        <time>2021-02-21T14:06:55.305Z</time>
      </trkpt>
      <trkpt lat="45.6302" lon="5.72052">
        <ele>720</ele>
        <time>2021-02-21T14:07:00.287Z</time>
      </trkpt>
      <trkpt lat="45.63025" lon="5.72048">
        <ele>720</ele>
        <time>2021-02-21T14:07:04.289Z</time>
      </trkpt>
      <trkpt lat="45.63029" lon="5.72045">
        <ele>720</ele>
        <time>2021-02-21T14:07:08.332Z</time>
      </trkpt>
      <trkpt lat="45.63032" lon="5.72043">
        <ele>720</ele>
        <time>2021-02-21T14:07:13.340Z</time>
      </trkpt>
      <trkpt lat="45.63032" lon="5.72042">
        <ele>720</ele>
        <time>2021-02-21T14:07:18.337Z</time>
      </trkpt>
      <trkpt lat="45.63037" lon="5.72037">
        <ele>727</ele>
        <time>2021-02-21T14:07:23.351Z</time>
      </trkpt>
      <trkpt lat="45.63043" lon="5.72033">
        <ele>726</ele>
        <time>2021-02-21T14:07:28.337Z</time>
      </trkpt>
      <trkpt lat="45.63044" lon="5.72032">
        <ele>726</ele>
        <time>2021-02-21T14:07:33.313Z</time>
      </trkpt>
      <trkpt lat="45.63045" lon="5.72032">
        <ele>726</ele>
        <time>2021-02-21T14:07:37.356Z</time>
      </trkpt>
      <trkpt lat="45.63046" lon="5.72032">
        <ele>726</ele>
        <time>2021-02-21T14:07:42.351Z</time>
      </trkpt>
      <trkpt lat="45.63055" lon="5.72033">
        <ele>726</ele>
        <time>2021-02-21T14:07:46.369Z</time>
      </trkpt>
      <trkpt lat="45.63067" lon="5.72032">
        <ele>726</ele>
        <time>2021-02-21T14:07:51.348Z</time>
      </trkpt>
      <trkpt lat="45.63076" lon="5.72027">
        <ele>727</ele>
        <time>2021-02-21T14:07:55.349Z</time>
      </trkpt>
      <trkpt lat="45.63087" lon="5.7202">
        <ele>727</ele>
        <time>2021-02-21T14:08:00.341Z</time>
      </trkpt>
      <trkpt lat="45.63105" lon="5.72011">
        <ele>733</ele>
        <time>2021-02-21T14:08:05.329Z</time>
      </trkpt>
      <trkpt lat="45.63121" lon="5.71998">
        <ele>733</ele>
        <time>2021-02-21T14:08:10.297Z</time>
      </trkpt>
      <trkpt lat="45.6313" lon="5.7199">
        <ele>733</ele>
        <time>2021-02-21T14:08:14.406Z</time>
      </trkpt>
      <trkpt lat="45.63137" lon="5.71983">
        <ele>739</ele>
        <time>2021-02-21T14:08:19.332Z</time>
      </trkpt>
      <trkpt lat="45.63148" lon="5.71973">
        <ele>739</ele>
        <time>2021-02-21T14:08:24.354Z</time>
      </trkpt>
      <trkpt lat="45.63156" lon="5.71967">
        <ele>735</ele>
        <time>2021-02-21T14:08:29.328Z</time>
      </trkpt>
      <trkpt lat="45.63167" lon="5.71959">
        <ele>735</ele>
        <time>2021-02-21T14:08:34.331Z</time>
      </trkpt>
      <trkpt lat="45.63175" lon="5.71951">
        <ele>741</ele>
        <time>2021-02-21T14:08:38.320Z</time>
      </trkpt>
      <trkpt lat="45.63183" lon="5.71942">
        <ele>737</ele>
        <time>2021-02-21T14:08:43.380Z</time>
      </trkpt>
      <trkpt lat="45.6319" lon="5.71932">
        <ele>737</ele>
        <time>2021-02-21T14:08:48.343Z</time>
      </trkpt>
      <trkpt lat="45.63197" lon="5.71924">
        <ele>744</ele>
        <time>2021-02-21T14:08:53.318Z</time>
      </trkpt>
      <trkpt lat="45.63205" lon="5.7192">
        <ele>744</ele>
        <time>2021-02-21T14:08:58.359Z</time>
      </trkpt>
      <trkpt lat="45.63213" lon="5.71918">
        <ele>739</ele>
        <time>2021-02-21T14:09:03.311Z</time>
      </trkpt>
      <trkpt lat="45.63223" lon="5.71911">
        <ele>739</ele>
        <time>2021-02-21T14:09:08.314Z</time>
      </trkpt>
      <trkpt lat="45.63229" lon="5.71903">
        <ele>745</ele>
        <time>2021-02-21T14:09:12.350Z</time>
      </trkpt>
      <trkpt lat="45.63238" lon="5.7189">
        <ele>738</ele>
        <time>2021-02-21T14:09:17.351Z</time>
      </trkpt>
      <trkpt lat="45.63246" lon="5.71877">
        <ele>738</ele>
        <time>2021-02-21T14:09:22.334Z</time>
      </trkpt>
      <trkpt lat="45.63253" lon="5.71868">
        <ele>747</ele>
        <time>2021-02-21T14:09:26.370Z</time>
      </trkpt>
      <trkpt lat="45.6326" lon="5.71857">
        <ele>747</ele>
        <time>2021-02-21T14:09:31.352Z</time>
      </trkpt>
      <trkpt lat="45.63263" lon="5.71851">
        <ele>747</ele>
        <time>2021-02-21T14:09:36.343Z</time>
      </trkpt>
      <trkpt lat="45.63268" lon="5.71845">
        <ele>746</ele>
        <time>2021-02-21T14:09:41.325Z</time>
      </trkpt>
      <trkpt lat="45.63271" lon="5.7184">
        <ele>746</ele>
        <time>2021-02-21T14:09:46.321Z</time>
      </trkpt>
      <trkpt lat="45.63274" lon="5.71834">
        <ele>746</ele>
        <time>2021-02-21T14:09:51.339Z</time>
      </trkpt>
      <trkpt lat="45.63277" lon="5.71826">
        <ele>746</ele>
        <time>2021-02-21T14:09:56.347Z</time>
      </trkpt>
      <trkpt lat="45.63279" lon="5.71821">
        <ele>746</ele>
        <time>2021-02-21T14:10:00.350Z</time>
      </trkpt>
      <trkpt lat="45.63281" lon="5.71815">
        <ele>753</ele>
        <time>2021-02-21T14:10:05.346Z</time>
      </trkpt>
      <trkpt lat="45.63287" lon="5.71805">
        <ele>753</ele>
        <time>2021-02-21T14:10:10.326Z</time>
      </trkpt>
      <trkpt lat="45.63292" lon="5.71797">
        <ele>748</ele>
        <time>2021-02-21T14:10:15.391Z</time>
      </trkpt>
      <trkpt lat="45.63297" lon="5.7179">
        <ele>754</ele>
        <time>2021-02-21T14:10:20.350Z</time>
      </trkpt>
      <trkpt lat="45.63301" lon="5.71783">
        <ele>754</ele>
        <time>2021-02-21T14:10:25.343Z</time>
      </trkpt>
      <trkpt lat="45.63305" lon="5.71774">
        <ele>754</ele>
        <time>2021-02-21T14:10:30.324Z</time>
      </trkpt>
      <trkpt lat="45.63307" lon="5.71769">
        <ele>754</ele>
        <time>2021-02-21T14:10:34.349Z</time>
      </trkpt>
      <trkpt lat="45.63309" lon="5.71758">
        <ele>760</ele>
        <time>2021-02-21T14:10:39.341Z</time>
      </trkpt>
      <trkpt lat="45.63312" lon="5.71748">
        <ele>760</ele>
        <time>2021-02-21T14:10:44.334Z</time>
      </trkpt>
      <trkpt lat="45.63313" lon="5.7174">
        <ele>760</ele>
        <time>2021-02-21T14:10:49.334Z</time>
      </trkpt>
      <trkpt lat="45.63316" lon="5.71733">
        <ele>763</ele>
        <time>2021-02-21T14:10:53.329Z</time>
      </trkpt>
      <trkpt lat="45.63318" lon="5.71724">
        <ele>763</ele>
        <time>2021-02-21T14:10:58.363Z</time>
      </trkpt>
      <trkpt lat="45.6332" lon="5.71718">
        <ele>759</ele>
        <time>2021-02-21T14:11:03.315Z</time>
      </trkpt>
      <trkpt lat="45.63319" lon="5.7171">
        <ele>763</ele>
        <time>2021-02-21T14:11:08.304Z</time>
      </trkpt>
      <trkpt lat="45.63319" lon="5.717">
        <ele>766</ele>
        <time>2021-02-21T14:11:12.310Z</time>
      </trkpt>
      <trkpt lat="45.6332" lon="5.71693">
        <ele>763</ele>
        <time>2021-02-21T14:11:16.343Z</time>
      </trkpt>
      <trkpt lat="45.63321" lon="5.71683">
        <ele>763</ele>
        <time>2021-02-21T14:11:21.318Z</time>
      </trkpt>
      <trkpt lat="45.63323" lon="5.71677">
        <ele>767</ele>
        <time>2021-02-21T14:11:26.340Z</time>
      </trkpt>
      <trkpt lat="45.63325" lon="5.71672">
        <ele>767</ele>
        <time>2021-02-21T14:11:31.319Z</time>
      </trkpt>
      <trkpt lat="45.63327" lon="5.71669">
        <ele>767</ele>
        <time>2021-02-21T14:11:35.406Z</time>
      </trkpt>
      <trkpt lat="45.63329" lon="5.71666">
        <ele>767</ele>
        <time>2021-02-21T14:11:50.326Z</time>
      </trkpt>
      <trkpt lat="45.6333" lon="5.71663">
        <ele>767</ele>
        <time>2021-02-21T14:11:55.319Z</time>
      </trkpt>
      <trkpt lat="45.6333" lon="5.71662">
        <ele>767</ele>
        <time>2021-02-21T14:11:59.325Z</time>
      </trkpt>
      <trkpt lat="45.6333" lon="5.7166">
        <ele>767</ele>
        <time>2021-02-21T14:12:04.342Z</time>
      </trkpt>
      <trkpt lat="45.6333" lon="5.71654">
        <ele>767</ele>
        <time>2021-02-21T14:12:08.353Z</time>
      </trkpt>
      <trkpt lat="45.63329" lon="5.71646">
        <ele>770</ele>
        <time>2021-02-21T14:12:13.317Z</time>
      </trkpt>
      <trkpt lat="45.63328" lon="5.71641">
        <ele>770</ele>
        <time>2021-02-21T14:12:17.353Z</time>
      </trkpt>
      <trkpt lat="45.63326" lon="5.71629">
        <ele>770</ele>
        <time>2021-02-21T14:12:22.316Z</time>
      </trkpt>
      <trkpt lat="45.63331" lon="5.71609">
        <ele>770</ele>
        <time>2021-02-21T14:12:26.332Z</time>
      </trkpt>
      <trkpt lat="45.6333" lon="5.71578">
        <ele>771</ele>
        <time>2021-02-21T14:12:31.322Z</time>
      </trkpt>
      <trkpt lat="45.63328" lon="5.71556">
        <ele>773</ele>
        <time>2021-02-21T14:12:36.325Z</time>
      </trkpt>
      <trkpt lat="45.63327" lon="5.71539">
        <ele>778</ele>
        <time>2021-02-21T14:12:41.337Z</time>
      </trkpt>
      <trkpt lat="45.63329" lon="5.71527">
        <ele>778</ele>
        <time>2021-02-21T14:12:46.336Z</time>
      </trkpt>
      <trkpt lat="45.63331" lon="5.71517">
        <ele>778</ele>
        <time>2021-02-21T14:12:51.326Z</time>
      </trkpt>
      <trkpt lat="45.63332" lon="5.71506">
        <ele>781</ele>
        <time>2021-02-21T14:12:56.333Z</time>
      </trkpt>
      <trkpt lat="45.6333" lon="5.71494">
        <ele>781</ele>
        <time>2021-02-21T14:13:01.331Z</time>
      </trkpt>
      <trkpt lat="45.63326" lon="5.71481">
        <ele>783</ele>
        <time>2021-02-21T14:13:06.325Z</time>
      </trkpt>
      <trkpt lat="45.63323" lon="5.71471">
        <ele>783</ele>
        <time>2021-02-21T14:13:11.354Z</time>
      </trkpt>
      <trkpt lat="45.6332" lon="5.7146">
        <ele>783</ele>
        <time>2021-02-21T14:13:15.345Z</time>
      </trkpt>
      <trkpt lat="45.63318" lon="5.7145">
        <ele>781</ele>
        <time>2021-02-21T14:13:20.350Z</time>
      </trkpt>
      <trkpt lat="45.63316" lon="5.71442">
        <ele>781</ele>
        <time>2021-02-21T14:13:25.325Z</time>
      </trkpt>
      <trkpt lat="45.63312" lon="5.71435">
        <ele>781</ele>
        <time>2021-02-21T14:13:29.336Z</time>
      </trkpt>
      <trkpt lat="45.6331" lon="5.71433">
        <ele>781</ele>
        <time>2021-02-21T14:13:34.390Z</time>
      </trkpt>
      <trkpt lat="45.63308" lon="5.7143">
        <ele>780</ele>
        <time>2021-02-21T14:13:39.292Z</time>
      </trkpt>
      <trkpt lat="45.63309" lon="5.71428">
        <ele>780</ele>
        <time>2021-02-21T14:13:43.357Z</time>
      </trkpt>
      <trkpt lat="45.63311" lon="5.71419">
        <ele>780</ele>
        <time>2021-02-21T14:13:48.350Z</time>
      </trkpt>
      <trkpt lat="45.63306" lon="5.7141">
        <ele>780</ele>
        <time>2021-02-21T14:13:52.399Z</time>
      </trkpt>
      <trkpt lat="45.63303" lon="5.71398">
        <ele>779</ele>
        <time>2021-02-21T14:13:57.349Z</time>
      </trkpt>
      <trkpt lat="45.633" lon="5.71383">
        <ele>779</ele>
        <time>2021-02-21T14:14:02.335Z</time>
      </trkpt>
      <trkpt lat="45.63305" lon="5.71357">
        <ele>779</ele>
        <time>2021-02-21T14:14:07.331Z</time>
      </trkpt>
      <trkpt lat="45.63318" lon="5.71332">
        <ele>781</ele>
        <time>2021-02-21T14:14:12.348Z</time>
      </trkpt>
      <trkpt lat="45.63337" lon="5.7132">
        <ele>784</ele>
        <time>2021-02-21T14:14:17.279Z</time>
      </trkpt>
      <trkpt lat="45.63345" lon="5.71327">
        <ele>784</ele>
        <time>2021-02-21T14:14:21.331Z</time>
      </trkpt>
      <trkpt lat="45.63352" lon="5.71331">
        <ele>790</ele>
        <time>2021-02-21T14:14:26.404Z</time>
      </trkpt>
      <trkpt lat="45.63359" lon="5.71337">
        <ele>790</ele>
        <time>2021-02-21T14:14:31.323Z</time>
      </trkpt>
      <trkpt lat="45.63368" lon="5.71335">
        <ele>790</ele>
        <time>2021-02-21T14:14:36.339Z</time>
      </trkpt>
      <trkpt lat="45.63385" lon="5.71321">
        <ele>794</ele>
        <time>2021-02-21T14:14:41.376Z</time>
      </trkpt>
      <trkpt lat="45.63401" lon="5.71307">
        <ele>794</ele>
        <time>2021-02-21T14:14:46.331Z</time>
      </trkpt>
      <trkpt lat="45.63414" lon="5.71294">
        <ele>797</ele>
        <time>2021-02-21T14:14:51.326Z</time>
      </trkpt>
      <trkpt lat="45.63431" lon="5.71279">
        <ele>799</ele>
        <time>2021-02-21T14:14:56.356Z</time>
      </trkpt>
      <trkpt lat="45.63448" lon="5.71271">
        <ele>799</ele>
        <time>2021-02-21T14:15:01.343Z</time>
      </trkpt>
      <trkpt lat="45.63469" lon="5.71266">
        <ele>800</ele>
        <time>2021-02-21T14:15:06.322Z</time>
      </trkpt>
      <trkpt lat="45.63486" lon="5.71252">
        <ele>802</ele>
        <time>2021-02-21T14:15:10.320Z</time>
      </trkpt>
      <trkpt lat="45.63495" lon="5.71239">
        <ele>802</ele>
        <time>2021-02-21T14:15:14.290Z</time>
      </trkpt>
      <trkpt lat="45.63516" lon="5.71222">
        <ele>805</ele>
        <time>2021-02-21T14:15:19.334Z</time>
      </trkpt>
      <trkpt lat="45.63528" lon="5.71218">
        <ele>805</ele>
        <time>2021-02-21T14:15:24.329Z</time>
      </trkpt>
      <trkpt lat="45.63535" lon="5.71216">
        <ele>805</ele>
        <time>2021-02-21T14:15:29.350Z</time>
      </trkpt>
      <trkpt lat="45.63541" lon="5.71216">
        <ele>805</ele>
        <time>2021-02-21T14:15:34.303Z</time>
      </trkpt>
      <trkpt lat="45.63541" lon="5.71216">
        <ele>805</ele>
        <time>2021-02-21T14:15:38.324Z</time>
      </trkpt>
      <trkpt lat="45.63543" lon="5.71218">
        <ele>807</ele>
        <time>2021-02-21T14:15:42.342Z</time>
      </trkpt>
      <trkpt lat="45.6355" lon="5.71224">
        <ele>807</ele>
        <time>2021-02-21T14:15:47.351Z</time>
      </trkpt>
      <trkpt lat="45.63553" lon="5.71223">
        <ele>807</ele>
        <time>2021-02-21T14:16:06.354Z</time>
      </trkpt>
      <trkpt lat="45.63558" lon="5.71224">
        <ele>807</ele>
        <time>2021-02-21T14:16:11.318Z</time>
      </trkpt>
      <trkpt lat="45.63558" lon="5.71226">
        <ele>807</ele>
        <time>2021-02-21T14:16:15.368Z</time>
      </trkpt>
      <trkpt lat="45.63558" lon="5.71228">
        <ele>807</ele>
        <time>2021-02-21T14:16:20.333Z</time>
      </trkpt>
      <trkpt lat="45.63556" lon="5.71239">
        <ele>806</ele>
        <time>2021-02-21T14:16:25.334Z</time>
      </trkpt>
      <trkpt lat="45.63561" lon="5.71247">
        <ele>806</ele>
        <time>2021-02-21T14:16:45.288Z</time>
      </trkpt>
      <trkpt lat="45.63561" lon="5.71247">
        <ele>806</ele>
        <time>2021-02-21T14:16:49.369Z</time>
      </trkpt>
      <trkpt lat="45.63561" lon="5.71246">
        <ele>806</ele>
        <time>2021-02-21T14:16:54.336Z</time>
      </trkpt>
      <trkpt lat="45.63562" lon="5.71242">
        <ele>806</ele>
        <time>2021-02-21T14:16:59.310Z</time>
      </trkpt>
      <trkpt lat="45.63564" lon="5.71232">
        <ele>807</ele>
        <time>2021-02-21T14:17:03.334Z</time>
      </trkpt>
      <trkpt lat="45.63567" lon="5.71226">
        <ele>807</ele>
        <time>2021-02-21T14:17:08.312Z</time>
      </trkpt>
      <trkpt lat="45.63571" lon="5.71225">
        <ele>808</ele>
        <time>2021-02-21T14:17:12.337Z</time>
      </trkpt>
      <trkpt lat="45.63572" lon="5.71224">
        <ele>808</ele>
        <time>2021-02-21T14:17:17.390Z</time>
      </trkpt>
      <trkpt lat="45.63574" lon="5.71222">
        <ele>808</ele>
        <time>2021-02-21T14:17:22.332Z</time>
      </trkpt>
      <trkpt lat="45.63576" lon="5.71222">
        <ele>808</ele>
        <time>2021-02-21T14:17:27.312Z</time>
      </trkpt>
      <trkpt lat="45.63577" lon="5.71222">
        <ele>808</ele>
        <time>2021-02-21T14:17:31.338Z</time>
      </trkpt>
      <trkpt lat="45.63583" lon="5.71225">
        <ele>808</ele>
        <time>2021-02-21T14:17:36.349Z</time>
      </trkpt>
      <trkpt lat="45.63591" lon="5.71227">
        <ele>808</ele>
        <time>2021-02-21T14:17:41.353Z</time>
      </trkpt>
      <trkpt lat="45.63591" lon="5.71227">
        <ele>808</ele>
        <time>2021-02-21T14:17:46.347Z</time>
      </trkpt>
      <trkpt lat="45.63591" lon="5.71227">
        <ele>808</ele>
        <time>2021-02-21T14:17:51.330Z</time>
      </trkpt>
      <trkpt lat="45.63592" lon="5.71227">
        <ele>808</ele>
        <time>2021-02-21T14:17:56.360Z</time>
      </trkpt>
      <trkpt lat="45.63592" lon="5.71228">
        <ele>808</ele>
        <time>2021-02-21T14:18:01.316Z</time>
      </trkpt>
      <trkpt lat="45.63597" lon="5.71239">
        <ele>808</ele>
        <time>2021-02-21T14:18:05.377Z</time>
      </trkpt>
      <trkpt lat="45.63606" lon="5.71246">
        <ele>808</ele>
        <time>2021-02-21T14:18:10.329Z</time>
      </trkpt>
      <trkpt lat="45.63616" lon="5.71259">
        <ele>808</ele>
        <time>2021-02-21T14:18:15.332Z</time>
      </trkpt>
      <trkpt lat="45.63623" lon="5.71256">
        <ele>808</ele>
        <time>2021-02-21T14:18:20.341Z</time>
      </trkpt>
      <trkpt lat="45.63629" lon="5.71249">
        <ele>811</ele>
        <time>2021-02-21T14:18:25.401Z</time>
      </trkpt>
      <trkpt lat="45.63632" lon="5.71247">
        <ele>811</ele>
        <time>2021-02-21T14:18:30.368Z</time>
      </trkpt>
      <trkpt lat="45.63634" lon="5.7125">
        <ele>811</ele>
        <time>2021-02-21T14:18:35.332Z</time>
      </trkpt>
      <trkpt lat="45.63638" lon="5.7126">
        <ele>811</ele>
        <time>2021-02-21T14:18:40.356Z</time>
      </trkpt>
      <trkpt lat="45.63645" lon="5.71266">
        <ele>808</ele>
        <time>2021-02-21T14:18:45.344Z</time>
      </trkpt>
      <trkpt lat="45.6365" lon="5.71275">
        <ele>808</ele>
        <time>2021-02-21T14:18:50.350Z</time>
      </trkpt>
      <trkpt lat="45.63652" lon="5.71284">
        <ele>808</ele>
        <time>2021-02-21T14:18:54.327Z</time>
      </trkpt>
      <trkpt lat="45.63654" lon="5.71289">
        <ele>807</ele>
        <time>2021-02-21T14:18:59.342Z</time>
      </trkpt>
      <trkpt lat="45.63655" lon="5.71294">
        <ele>803</ele>
        <time>2021-02-21T14:19:04.345Z</time>
      </trkpt>
      <trkpt lat="45.63656" lon="5.71301">
        <ele>803</ele>
        <time>2021-02-21T14:19:09.357Z</time>
      </trkpt>
      <trkpt lat="45.63656" lon="5.7131">
        <ele>803</ele>
        <time>2021-02-21T14:19:14.336Z</time>
      </trkpt>
      <trkpt lat="45.63658" lon="5.71319">
        <ele>803</ele>
        <time>2021-02-21T14:19:19.337Z</time>
      </trkpt>
      <trkpt lat="45.63659" lon="5.71324">
        <ele>800</ele>
        <time>2021-02-21T14:19:23.365Z</time>
      </trkpt>
      <trkpt lat="45.63661" lon="5.71327">
        <ele>800</ele>
        <time>2021-02-21T14:19:28.358Z</time>
      </trkpt>
      <trkpt lat="45.63662" lon="5.71324">
        <ele>800</ele>
        <time>2021-02-21T14:19:33.326Z</time>
      </trkpt>
      <trkpt lat="45.63664" lon="5.71319">
        <ele>803</ele>
        <time>2021-02-21T14:19:38.327Z</time>
      </trkpt>
      <trkpt lat="45.6367" lon="5.71313">
        <ele>803</ele>
        <time>2021-02-21T14:19:42.338Z</time>
      </trkpt>
      <trkpt lat="45.63675" lon="5.71307">
        <ele>803</ele>
        <time>2021-02-21T14:19:47.321Z</time>
      </trkpt>
      <trkpt lat="45.63679" lon="5.71307">
        <ele>803</ele>
        <time>2021-02-21T14:19:52.332Z</time>
      </trkpt>
      <trkpt lat="45.63686" lon="5.71307">
        <ele>801</ele>
        <time>2021-02-21T14:19:56.356Z</time>
      </trkpt>
      <trkpt lat="45.63697" lon="5.71308">
        <ele>801</ele>
        <time>2021-02-21T14:20:01.323Z</time>
      </trkpt>
      <trkpt lat="45.63705" lon="5.71312">
        <ele>801</ele>
        <time>2021-02-21T14:20:05.355Z</time>
      </trkpt>
      <trkpt lat="45.63713" lon="5.71319">
        <ele>800</ele>
        <time>2021-02-21T14:20:10.414Z</time>
      </trkpt>
      <trkpt lat="45.63716" lon="5.71325">
        <ele>794</ele>
        <time>2021-02-21T14:20:15.336Z</time>
      </trkpt>
      <trkpt lat="45.6372" lon="5.71332">
        <ele>794</ele>
        <time>2021-02-21T14:20:20.328Z</time>
      </trkpt>
      <trkpt lat="45.63722" lon="5.7134">
        <ele>794</ele>
        <time>2021-02-21T14:20:30.337Z</time>
      </trkpt>
      <trkpt lat="45.63723" lon="5.71342">
        <ele>794</ele>
        <time>2021-02-21T14:20:35.347Z</time>
      </trkpt>
      <trkpt lat="45.63725" lon="5.71345">
        <ele>794</ele>
        <time>2021-02-21T14:20:39.379Z</time>
      </trkpt>
      <trkpt lat="45.63727" lon="5.71347">
        <ele>794</ele>
        <time>2021-02-21T14:20:44.285Z</time>
      </trkpt>
      <trkpt lat="45.63728" lon="5.71349">
        <ele>789</ele>
        <time>2021-02-21T14:20:48.303Z</time>
      </trkpt>
      <trkpt lat="45.6373" lon="5.71353">
        <ele>789</ele>
        <time>2021-02-21T14:20:52.322Z</time>
      </trkpt>
      <trkpt lat="45.63731" lon="5.71356">
        <ele>789</ele>
        <time>2021-02-21T14:20:57.340Z</time>
      </trkpt>
      <trkpt lat="45.63734" lon="5.71368">
        <ele>789</ele>
        <time>2021-02-21T14:21:02.296Z</time>
      </trkpt>
      <trkpt lat="45.63738" lon="5.7138">
        <ele>785</ele>
        <time>2021-02-21T14:21:06.349Z</time>
      </trkpt>
      <trkpt lat="45.63741" lon="5.71391">
        <ele>785</ele>
        <time>2021-02-21T14:21:11.330Z</time>
      </trkpt>
      <trkpt lat="45.6374" lon="5.71399">
        <ele>785</ele>
        <time>2021-02-21T14:21:15.333Z</time>
      </trkpt>
      <trkpt lat="45.63741" lon="5.71401">
        <ele>785</ele>
        <time>2021-02-21T14:21:20.322Z</time>
      </trkpt>
      <trkpt lat="45.63742" lon="5.71403">
        <ele>781</ele>
        <time>2021-02-21T14:21:24.379Z</time>
      </trkpt>
      <trkpt lat="45.63743" lon="5.71409">
        <ele>781</ele>
        <time>2021-02-21T14:21:29.375Z</time>
      </trkpt>
      <trkpt lat="45.63744" lon="5.71416">
        <ele>781</ele>
        <time>2021-02-21T14:21:34.317Z</time>
      </trkpt>
      <trkpt lat="45.63744" lon="5.71423">
        <ele>781</ele>
        <time>2021-02-21T14:21:38.335Z</time>
      </trkpt>
      <trkpt lat="45.63747" lon="5.71429">
        <ele>781</ele>
        <time>2021-02-21T14:21:43.329Z</time>
      </trkpt>
      <trkpt lat="45.63749" lon="5.71434">
        <ele>779</ele>
        <time>2021-02-21T14:21:47.351Z</time>
      </trkpt>
      <trkpt lat="45.63753" lon="5.71439">
        <ele>779</ele>
        <time>2021-02-21T14:21:52.339Z</time>
      </trkpt>
      <trkpt lat="45.63753" lon="5.71441">
        <ele>779</ele>
        <time>2021-02-21T14:21:56.347Z</time>
      </trkpt>
      <trkpt lat="45.63754" lon="5.71444">
        <ele>779</ele>
        <time>2021-02-21T14:22:01.335Z</time>
      </trkpt>
      <trkpt lat="45.63755" lon="5.71453">
        <ele>779</ele>
        <time>2021-02-21T14:22:05.324Z</time>
      </trkpt>
      <trkpt lat="45.63758" lon="5.71461">
        <ele>777</ele>
        <time>2021-02-21T14:22:10.348Z</time>
      </trkpt>
      <trkpt lat="45.63758" lon="5.71464">
        <ele>777</ele>
        <time>2021-02-21T14:22:15.357Z</time>
      </trkpt>
      <trkpt lat="45.6376" lon="5.71474">
        <ele>777</ele>
        <time>2021-02-21T14:22:20.340Z</time>
      </trkpt>
      <trkpt lat="45.63761" lon="5.71489">
        <ele>775</ele>
        <time>2021-02-21T14:22:24.335Z</time>
      </trkpt>
      <trkpt lat="45.63761" lon="5.71506">
        <ele>775</ele>
        <time>2021-02-21T14:22:29.324Z</time>
      </trkpt>
      <trkpt lat="45.63762" lon="5.71515">
        <ele>773</ele>
        <time>2021-02-21T14:22:33.380Z</time>
      </trkpt>
      <trkpt lat="45.63763" lon="5.71525">
        <ele>773</ele>
        <time>2021-02-21T14:22:38.338Z</time>
      </trkpt>
      <trkpt lat="45.63762" lon="5.71533">
        <ele>773</ele>
        <time>2021-02-21T14:22:43.335Z</time>
      </trkpt>
      <trkpt lat="45.63762" lon="5.71542">
        <ele>773</ele>
        <time>2021-02-21T14:22:48.297Z</time>
      </trkpt>
      <trkpt lat="45.63761" lon="5.71548">
        <ele>771</ele>
        <time>2021-02-21T14:22:52.301Z</time>
      </trkpt>
      <trkpt lat="45.63763" lon="5.71552">
        <ele>771</ele>
        <time>2021-02-21T14:22:56.336Z</time>
      </trkpt>
      <trkpt lat="45.63768" lon="5.71558">
        <ele>773</ele>
        <time>2021-02-21T14:23:01.399Z</time>
      </trkpt>
      <trkpt lat="45.63772" lon="5.71562">
        <ele>773</ele>
        <time>2021-02-21T14:23:06.334Z</time>
      </trkpt>
      <trkpt lat="45.63778" lon="5.71567">
        <ele>773</ele>
        <time>2021-02-21T14:23:11.357Z</time>
      </trkpt>
      <trkpt lat="45.63783" lon="5.7157">
        <ele>772</ele>
        <time>2021-02-21T14:23:16.329Z</time>
      </trkpt>
      <trkpt lat="45.63788" lon="5.71573">
        <ele>772</ele>
        <time>2021-02-21T14:23:21.342Z</time>
      </trkpt>
      <trkpt lat="45.63792" lon="5.71576">
        <ele>772</ele>
        <time>2021-02-21T14:23:25.362Z</time>
      </trkpt>
      <trkpt lat="45.63797" lon="5.7158">
        <ele>772</ele>
        <time>2021-02-21T14:23:30.279Z</time>
      </trkpt>
      <trkpt lat="45.63802" lon="5.71582">
        <ele>772</ele>
        <time>2021-02-21T14:23:34.321Z</time>
      </trkpt>
      <trkpt lat="45.63808" lon="5.71584">
        <ele>772</ele>
        <time>2021-02-21T14:23:38.376Z</time>
      </trkpt>
      <trkpt lat="45.63813" lon="5.71591">
        <ele>772</ele>
        <time>2021-02-21T14:23:43.329Z</time>
      </trkpt>
      <trkpt lat="45.63815" lon="5.71599">
        <ele>771</ele>
        <time>2021-02-21T14:23:47.354Z</time>
      </trkpt>
      <trkpt lat="45.6382" lon="5.7161">
        <ele>770</ele>
        <time>2021-02-21T14:23:52.323Z</time>
      </trkpt>
      <trkpt lat="45.63822" lon="5.71621">
        <ele>770</ele>
        <time>2021-02-21T14:23:57.343Z</time>
      </trkpt>
      <trkpt lat="45.63825" lon="5.71629">
        <ele>769</ele>
        <time>2021-02-21T14:24:01.343Z</time>
      </trkpt>
      <trkpt lat="45.63826" lon="5.71638">
        <ele>769</ele>
        <time>2021-02-21T14:24:06.351Z</time>
      </trkpt>
      <trkpt lat="45.63828" lon="5.71649">
        <ele>769</ele>
        <time>2021-02-21T14:24:11.360Z</time>
      </trkpt>
      <trkpt lat="45.6383" lon="5.71659">
        <ele>766</ele>
        <time>2021-02-21T14:24:16.333Z</time>
      </trkpt>
      <trkpt lat="45.63831" lon="5.71666">
        <ele>766</ele>
        <time>2021-02-21T14:24:21.335Z</time>
      </trkpt>
      <trkpt lat="45.63836" lon="5.71675">
        <ele>766</ele>
        <time>2021-02-21T14:24:26.341Z</time>
      </trkpt>
      <trkpt lat="45.63841" lon="5.7168">
        <ele>766</ele>
        <time>2021-02-21T14:24:31.344Z</time>
      </trkpt>
      <trkpt lat="45.63844" lon="5.71679">
        <ele>766</ele>
        <time>2021-02-21T14:24:35.364Z</time>
      </trkpt>
      <trkpt lat="45.63852" lon="5.71678">
        <ele>762</ele>
        <time>2021-02-21T14:24:40.353Z</time>
      </trkpt>
      <trkpt lat="45.63857" lon="5.71675">
        <ele>762</ele>
        <time>2021-02-21T14:24:45.352Z</time>
      </trkpt>
      <trkpt lat="45.63862" lon="5.71671">
        <ele>762</ele>
        <time>2021-02-21T14:24:50.294Z</time>
      </trkpt>
      <trkpt lat="45.63866" lon="5.71663">
        <ele>762</ele>
        <time>2021-02-21T14:24:54.338Z</time>
      </trkpt>
      <trkpt lat="45.63874" lon="5.7166">
        <ele>762</ele>
        <time>2021-02-21T14:24:59.357Z</time>
      </trkpt>
      <trkpt lat="45.6388" lon="5.71662">
        <ele>759</ele>
        <time>2021-02-21T14:25:04.334Z</time>
      </trkpt>
      <trkpt lat="45.63885" lon="5.71667">
        <ele>759</ele>
        <time>2021-02-21T14:25:08.406Z</time>
      </trkpt>
      <trkpt lat="45.63892" lon="5.7167">
        <ele>759</ele>
        <time>2021-02-21T14:25:13.341Z</time>
      </trkpt>
      <trkpt lat="45.63898" lon="5.71674">
        <ele>759</ele>
        <time>2021-02-21T14:25:18.326Z</time>
      </trkpt>
      <trkpt lat="45.63904" lon="5.71677">
        <ele>759</ele>
        <time>2021-02-21T14:25:22.342Z</time>
      </trkpt>
      <trkpt lat="45.6391" lon="5.71681">
        <ele>759</ele>
        <time>2021-02-21T14:25:27.350Z</time>
      </trkpt>
      <trkpt lat="45.63915" lon="5.71685">
        <ele>754</ele>
        <time>2021-02-21T14:25:31.337Z</time>
      </trkpt>
      <trkpt lat="45.63923" lon="5.7169">
        <ele>754</ele>
        <time>2021-02-21T14:25:36.338Z</time>
      </trkpt>
      <trkpt lat="45.6393" lon="5.71695">
        <ele>754</ele>
        <time>2021-02-21T14:25:41.308Z</time>
      </trkpt>
      <trkpt lat="45.63935" lon="5.71699">
        <ele>753</ele>
        <time>2021-02-21T14:25:45.348Z</time>
      </trkpt>
      <trkpt lat="45.63942" lon="5.71705">
        <ele>753</ele>
        <time>2021-02-21T14:25:50.330Z</time>
      </trkpt>
      <trkpt lat="45.63949" lon="5.7171">
        <ele>748</ele>
        <time>2021-02-21T14:25:55.345Z</time>
      </trkpt>
      <trkpt lat="45.63956" lon="5.71715">
        <ele>748</ele>
        <time>2021-02-21T14:26:00.344Z</time>
      </trkpt>
      <trkpt lat="45.6396" lon="5.71721">
        <ele>748</ele>
        <time>2021-02-21T14:26:05.377Z</time>
      </trkpt>
      <trkpt lat="45.63965" lon="5.71727">
        <ele>748</ele>
        <time>2021-02-21T14:26:10.343Z</time>
      </trkpt>
      <trkpt lat="45.6397" lon="5.71733">
        <ele>748</ele>
        <time>2021-02-21T14:26:15.338Z</time>
      </trkpt>
      <trkpt lat="45.63975" lon="5.71737">
        <ele>744</ele>
        <time>2021-02-21T14:26:20.364Z</time>
      </trkpt>
      <trkpt lat="45.63981" lon="5.71743">
        <ele>744</ele>
        <time>2021-02-21T14:26:25.345Z</time>
      </trkpt>
      <trkpt lat="45.63986" lon="5.71749">
        <ele>744</ele>
        <time>2021-02-21T14:26:30.360Z</time>
      </trkpt>
      <trkpt lat="45.63993" lon="5.71755">
        <ele>744</ele>
        <time>2021-02-21T14:26:35.345Z</time>
      </trkpt>
      <trkpt lat="45.63998" lon="5.71759">
        <ele>744</ele>
        <time>2021-02-21T14:26:39.400Z</time>
      </trkpt>
      <trkpt lat="45.64005" lon="5.71765">
        <ele>740</ele>
        <time>2021-02-21T14:26:44.327Z</time>
      </trkpt>
      <trkpt lat="45.6401" lon="5.71769">
        <ele>740</ele>
        <time>2021-02-21T14:26:48.340Z</time>
      </trkpt>
      <trkpt lat="45.64016" lon="5.71774">
        <ele>740</ele>
        <time>2021-02-21T14:26:53.338Z</time>
      </trkpt>
      <trkpt lat="45.64019" lon="5.7178">
        <ele>740</ele>
        <time>2021-02-21T14:26:57.343Z</time>
      </trkpt>
      <trkpt lat="45.64023" lon="5.71788">
        <ele>740</ele>
        <time>2021-02-21T14:27:02.344Z</time>
      </trkpt>
      <trkpt lat="45.64026" lon="5.71797">
        <ele>739</ele>
        <time>2021-02-21T14:27:07.344Z</time>
      </trkpt>
      <trkpt lat="45.64028" lon="5.71806">
        <ele>739</ele>
        <time>2021-02-21T14:27:11.365Z</time>
      </trkpt>
      <trkpt lat="45.6403" lon="5.71818">
        <ele>739</ele>
        <time>2021-02-21T14:27:16.315Z</time>
      </trkpt>
      <trkpt lat="45.6403" lon="5.71825">
        <ele>737</ele>
        <time>2021-02-21T14:27:20.327Z</time>
      </trkpt>
      <trkpt lat="45.64032" lon="5.71838">
        <ele>737</ele>
        <time>2021-02-21T14:27:25.340Z</time>
      </trkpt>
      <trkpt lat="45.64033" lon="5.71847">
        <ele>737</ele>
        <time>2021-02-21T14:27:30.355Z</time>
      </trkpt>
      <trkpt lat="45.64035" lon="5.71858">
        <ele>734</ele>
        <time>2021-02-21T14:27:35.348Z</time>
      </trkpt>
      <trkpt lat="45.64038" lon="5.71862">
        <ele>734</ele>
        <time>2021-02-21T14:27:40.373Z</time>
      </trkpt>
      <trkpt lat="45.64039" lon="5.71866">
        <ele>734</ele>
        <time>2021-02-21T14:27:45.353Z</time>
      </trkpt>
      <trkpt lat="45.64039" lon="5.71865">
        <ele>734</ele>
        <time>2021-02-21T14:27:49.342Z</time>
      </trkpt>
      <trkpt lat="45.6404" lon="5.71865">
        <ele>734</ele>
        <time>2021-02-21T14:27:54.334Z</time>
      </trkpt>
      <trkpt lat="45.64041" lon="5.71864">
        <ele>734</ele>
        <time>2021-02-21T14:27:58.346Z</time>
      </trkpt>
      <trkpt lat="45.64044" lon="5.71861">
        <ele>738</ele>
        <time>2021-02-21T14:28:03.337Z</time>
      </trkpt>
      <trkpt lat="45.64052" lon="5.71854">
        <ele>738</ele>
        <time>2021-02-21T14:28:08.349Z</time>
      </trkpt>
      <trkpt lat="45.6406" lon="5.71848">
        <ele>738</ele>
        <time>2021-02-21T14:28:13.335Z</time>
      </trkpt>
      <trkpt lat="45.64069" lon="5.71847">
        <ele>740</ele>
        <time>2021-02-21T14:28:18.353Z</time>
      </trkpt>
      <trkpt lat="45.64074" lon="5.71848">
        <ele>740</ele>
        <time>2021-02-21T14:28:22.348Z</time>
      </trkpt>
      <trkpt lat="45.64084" lon="5.71852">
        <ele>740</ele>
        <time>2021-02-21T14:28:27.351Z</time>
      </trkpt>
      <trkpt lat="45.64091" lon="5.71859">
        <ele>740</ele>
        <time>2021-02-21T14:28:32.337Z</time>
      </trkpt>
      <trkpt lat="45.64095" lon="5.71864">
        <ele>740</ele>
        <time>2021-02-21T14:28:37.342Z</time>
      </trkpt>
      <trkpt lat="45.64101" lon="5.71867">
        <ele>740</ele>
        <time>2021-02-21T14:28:41.344Z</time>
      </trkpt>
      <trkpt lat="45.64108" lon="5.71867">
        <ele>740</ele>
        <time>2021-02-21T14:28:46.351Z</time>
      </trkpt>
      <trkpt lat="45.64116" lon="5.71869">
        <ele>740</ele>
        <time>2021-02-21T14:28:51.340Z</time>
      </trkpt>
      <trkpt lat="45.64122" lon="5.71874">
        <ele>740</ele>
        <time>2021-02-21T14:28:56.364Z</time>
      </trkpt>
      <trkpt lat="45.64127" lon="5.71876">
        <ele>737</ele>
        <time>2021-02-21T14:29:01.327Z</time>
      </trkpt>
      <trkpt lat="45.64131" lon="5.7188">
        <ele>737</ele>
        <time>2021-02-21T14:29:05.392Z</time>
      </trkpt>
      <trkpt lat="45.64134" lon="5.7188">
        <ele>737</ele>
        <time>2021-02-21T14:29:10.361Z</time>
      </trkpt>
      <trkpt lat="45.64141" lon="5.7188">
        <ele>737</ele>
        <time>2021-02-21T14:29:15.346Z</time>
      </trkpt>
      <trkpt lat="45.64146" lon="5.71881">
        <ele>737</ele>
        <time>2021-02-21T14:29:20.357Z</time>
      </trkpt>
      <trkpt lat="45.64153" lon="5.71879">
        <ele>737</ele>
        <time>2021-02-21T14:29:25.335Z</time>
      </trkpt>
      <trkpt lat="45.64161" lon="5.71879">
        <ele>737</ele>
        <time>2021-02-21T14:29:30.344Z</time>
      </trkpt>
      <trkpt lat="45.64169" lon="5.71879">
        <ele>737</ele>
        <time>2021-02-21T14:29:35.349Z</time>
      </trkpt>
      <trkpt lat="45.64176" lon="5.71879">
        <ele>737</ele>
        <time>2021-02-21T14:29:40.332Z</time>
      </trkpt>
      <trkpt lat="45.64179" lon="5.71879">
        <ele>737</ele>
        <time>2021-02-21T14:29:44.349Z</time>
      </trkpt>
      <trkpt lat="45.64182" lon="5.71877">
        <ele>738</ele>
        <time>2021-02-21T14:29:49.396Z</time>
      </trkpt>
      <trkpt lat="45.64187" lon="5.71873">
        <ele>742</ele>
        <time>2021-02-21T14:29:54.330Z</time>
      </trkpt>
      <trkpt lat="45.64192" lon="5.71871">
        <ele>742</ele>
        <time>2021-02-21T14:29:58.349Z</time>
      </trkpt>
      <trkpt lat="45.64199" lon="5.7187">
        <ele>742</ele>
        <time>2021-02-21T14:30:03.330Z</time>
      </trkpt>
      <trkpt lat="45.64202" lon="5.7187">
        <ele>742</ele>
        <time>2021-02-21T14:30:07.363Z</time>
      </trkpt>
      <trkpt lat="45.6421" lon="5.71868">
        <ele>742</ele>
        <time>2021-02-21T14:30:12.332Z</time>
      </trkpt>
      <trkpt lat="45.64218" lon="5.71864">
        <ele>742</ele>
        <time>2021-02-21T14:30:17.332Z</time>
      </trkpt>
      <trkpt lat="45.64225" lon="5.71862">
        <ele>742</ele>
        <time>2021-02-21T14:30:22.358Z</time>
      </trkpt>
      <trkpt lat="45.64227" lon="5.71862">
        <ele>742</ele>
        <time>2021-02-21T14:30:27.336Z</time>
      </trkpt>
      <trkpt lat="45.6423" lon="5.71861">
        <ele>742</ele>
        <time>2021-02-21T14:30:32.364Z</time>
      </trkpt>
      <trkpt lat="45.6424" lon="5.71861">
        <ele>741</ele>
        <time>2021-02-21T14:30:37.346Z</time>
      </trkpt>
      <trkpt lat="45.64249" lon="5.71862">
        <ele>741</ele>
        <time>2021-02-21T14:30:42.390Z</time>
      </trkpt>
      <trkpt lat="45.64259" lon="5.71858">
        <ele>741</ele>
        <time>2021-02-21T14:30:47.339Z</time>
      </trkpt>
      <trkpt lat="45.64266" lon="5.71855">
        <ele>737</ele>
        <time>2021-02-21T14:30:52.290Z</time>
      </trkpt>
      <trkpt lat="45.64269" lon="5.71853">
        <ele>737</ele>
        <time>2021-02-21T14:30:56.301Z</time>
      </trkpt>
      <trkpt lat="45.64273" lon="5.7185">
        <ele>737</ele>
        <time>2021-02-21T14:31:00.332Z</time>
      </trkpt>
      <trkpt lat="45.64278" lon="5.71846">
        <ele>741</ele>
        <time>2021-02-21T14:31:05.309Z</time>
      </trkpt>
      <trkpt lat="45.64283" lon="5.71843">
        <ele>741</ele>
        <time>2021-02-21T14:31:09.334Z</time>
      </trkpt>
      <trkpt lat="45.64289" lon="5.71844">
        <ele>741</ele>
        <time>2021-02-21T14:31:14.299Z</time>
      </trkpt>
      <trkpt lat="45.64294" lon="5.71848">
        <ele>734</ele>
        <time>2021-02-21T14:31:19.309Z</time>
      </trkpt>
      <trkpt lat="45.64301" lon="5.71853">
        <ele>734</ele>
        <time>2021-02-21T14:31:24.305Z</time>
      </trkpt>
      <trkpt lat="45.6431" lon="5.71863">
        <ele>734</ele>
        <time>2021-02-21T14:31:28.315Z</time>
      </trkpt>
      <trkpt lat="45.64318" lon="5.71871">
        <ele>734</ele>
        <time>2021-02-21T14:31:33.310Z</time>
      </trkpt>
      <trkpt lat="45.64325" lon="5.71881">
        <ele>733</ele>
        <time>2021-02-21T14:31:38.339Z</time>
      </trkpt>
      <trkpt lat="45.64334" lon="5.71889">
        <ele>733</ele>
        <time>2021-02-21T14:31:43.374Z</time>
      </trkpt>
      <trkpt lat="45.64338" lon="5.71898">
        <ele>733</ele>
        <time>2021-02-21T14:31:48.349Z</time>
      </trkpt>
      <trkpt lat="45.64339" lon="5.71908">
        <ele>732</ele>
        <time>2021-02-21T14:31:53.321Z</time>
      </trkpt>
      <trkpt lat="45.64339" lon="5.71916">
        <ele>732</ele>
        <time>2021-02-21T14:31:57.339Z</time>
      </trkpt>
      <trkpt lat="45.64341" lon="5.71927">
        <ele>732</ele>
        <time>2021-02-21T14:32:12.337Z</time>
      </trkpt>
      <trkpt lat="45.64342" lon="5.71928">
        <ele>732</ele>
        <time>2021-02-21T14:32:17.362Z</time>
      </trkpt>
      <trkpt lat="45.64345" lon="5.71929">
        <ele>732</ele>
        <time>2021-02-21T14:32:22.320Z</time>
      </trkpt>
      <trkpt lat="45.64345" lon="5.7193">
        <ele>732</ele>
        <time>2021-02-21T14:32:26.339Z</time>
      </trkpt>
      <trkpt lat="45.64349" lon="5.71933">
        <ele>729</ele>
        <time>2021-02-21T14:32:31.348Z</time>
      </trkpt>
      <trkpt lat="45.64354" lon="5.71937">
        <ele>729</ele>
        <time>2021-02-21T14:32:36.333Z</time>
      </trkpt>
      <trkpt lat="45.64359" lon="5.71943">
        <ele>729</ele>
        <time>2021-02-21T14:32:40.356Z</time>
      </trkpt>
      <trkpt lat="45.64362" lon="5.7195">
        <ele>729</ele>
        <time>2021-02-21T14:32:45.332Z</time>
      </trkpt>
      <trkpt lat="45.64364" lon="5.71956">
        <ele>729</ele>
        <time>2021-02-21T14:32:49.360Z</time>
      </trkpt>
      <trkpt lat="45.64366" lon="5.71963">
        <ele>726</ele>
        <time>2021-02-21T14:32:54.350Z</time>
      </trkpt>
      <trkpt lat="45.64369" lon="5.71969">
        <ele>726</ele>
        <time>2021-02-21T14:32:58.363Z</time>
      </trkpt>
      <trkpt lat="45.64371" lon="5.71978">
        <ele>726</ele>
        <time>2021-02-21T14:33:03.367Z</time>
      </trkpt>
      <trkpt lat="45.64375" lon="5.71978">
        <ele>726</ele>
        <time>2021-02-21T14:33:08.369Z</time>
      </trkpt>
      <trkpt lat="45.64376" lon="5.71978">
        <ele>726</ele>
        <time>2021-02-21T14:33:13.341Z</time>
      </trkpt>
      <trkpt lat="45.64377" lon="5.71977">
        <ele>726</ele>
        <time>2021-02-21T14:33:17.341Z</time>
      </trkpt>
      <trkpt lat="45.64378" lon="5.71975">
        <ele>726</ele>
        <time>2021-02-21T14:33:22.391Z</time>
      </trkpt>
      <trkpt lat="45.64379" lon="5.71973">
        <ele>726</ele>
        <time>2021-02-21T14:33:27.366Z</time>
      </trkpt>
      <trkpt lat="45.64384" lon="5.71967">
        <ele>726</ele>
        <time>2021-02-21T14:33:31.366Z</time>
      </trkpt>
      <trkpt lat="45.64393" lon="5.7196">
        <ele>726</ele>
        <time>2021-02-21T14:33:36.365Z</time>
      </trkpt>
      <trkpt lat="45.644" lon="5.71958">
        <ele>730</ele>
        <time>2021-02-21T14:33:41.370Z</time>
      </trkpt>
      <trkpt lat="45.64403" lon="5.7196">
        <ele>726</ele>
        <time>2021-02-21T14:33:45.367Z</time>
      </trkpt>
      <trkpt lat="45.64406" lon="5.71961">
        <ele>726</ele>
        <time>2021-02-21T14:33:50.363Z</time>
      </trkpt>
      <trkpt lat="45.64411" lon="5.71959">
        <ele>726</ele>
        <time>2021-02-21T14:33:55.378Z</time>
      </trkpt>
      <trkpt lat="45.64425" lon="5.71957">
        <ele>730</ele>
        <time>2021-02-21T14:34:00.339Z</time>
      </trkpt>
      <trkpt lat="45.6444" lon="5.71953">
        <ele>729</ele>
        <time>2021-02-21T14:34:05.361Z</time>
      </trkpt>
      <trkpt lat="45.64451" lon="5.71953">
        <ele>729</ele>
        <time>2021-02-21T14:34:10.413Z</time>
      </trkpt>
      <trkpt lat="45.64469" lon="5.71949">
        <ele>729</ele>
        <time>2021-02-21T14:34:15.371Z</time>
      </trkpt>
      <trkpt lat="45.64488" lon="5.71944">
        <ele>728</ele>
        <time>2021-02-21T14:34:20.370Z</time>
      </trkpt>
      <trkpt lat="45.64508" lon="5.71942">
        <ele>728</ele>
        <time>2021-02-21T14:34:25.299Z</time>
      </trkpt>
      <trkpt lat="45.64528" lon="5.7194">
        <ele>729</ele>
        <time>2021-02-21T14:34:29.340Z</time>
      </trkpt>
      <trkpt lat="45.64546" lon="5.71937">
        <ele>728</ele>
        <time>2021-02-21T14:34:33.400Z</time>
      </trkpt>
      <trkpt lat="45.64559" lon="5.71939">
        <ele>728</ele>
        <time>2021-02-21T14:34:38.357Z</time>
      </trkpt>
      <trkpt lat="45.64569" lon="5.71948">
        <ele>728</ele>
        <time>2021-02-21T14:34:43.381Z</time>
      </trkpt>
      <trkpt lat="45.64575" lon="5.71953">
        <ele>727</ele>
        <time>2021-02-21T14:34:48.353Z</time>
      </trkpt>
      <trkpt lat="45.6458" lon="5.71955">
        <ele>727</ele>
        <time>2021-02-21T14:34:53.339Z</time>
      </trkpt>
      <trkpt lat="45.64581" lon="5.71956">
        <ele>727</ele>
        <time>2021-02-21T14:34:57.340Z</time>
      </trkpt>
      <trkpt lat="45.64587" lon="5.71959">
        <ele>725</ele>
        <time>2021-02-21T14:35:02.342Z</time>
      </trkpt>
      <trkpt lat="45.64593" lon="5.71962">
        <ele>725</ele>
        <time>2021-02-21T14:35:06.349Z</time>
      </trkpt>
      <trkpt lat="45.64601" lon="5.7196">
        <ele>722</ele>
        <time>2021-02-21T14:35:11.357Z</time>
      </trkpt>
      <trkpt lat="45.64607" lon="5.71958">
        <ele>727</ele>
        <time>2021-02-21T14:35:15.340Z</time>
      </trkpt>
      <trkpt lat="45.64611" lon="5.71955">
        <ele>727</ele>
        <time>2021-02-21T14:35:20.353Z</time>
      </trkpt>
      <trkpt lat="45.64615" lon="5.71954">
        <ele>727</ele>
        <time>2021-02-21T14:35:25.338Z</time>
      </trkpt>
      <trkpt lat="45.64621" lon="5.71952">
        <ele>727</ele>
        <time>2021-02-21T14:35:30.356Z</time>
      </trkpt>
      <trkpt lat="45.64626" lon="5.71955">
        <ele>724</ele>
        <time>2021-02-21T14:35:35.332Z</time>
      </trkpt>
      <trkpt lat="45.6463" lon="5.71959">
        <ele>720</ele>
        <time>2021-02-21T14:35:40.352Z</time>
      </trkpt>
      <trkpt lat="45.64639" lon="5.71964">
        <ele>720</ele>
        <time>2021-02-21T14:35:45.339Z</time>
      </trkpt>
      <trkpt lat="45.6465" lon="5.71978">
        <ele>720</ele>
        <time>2021-02-21T14:35:50.402Z</time>
      </trkpt>
      <trkpt lat="45.64663" lon="5.71977">
        <ele>718</ele>
        <time>2021-02-21T14:35:55.358Z</time>
      </trkpt>
      <trkpt lat="45.64676" lon="5.71976">
        <ele>718</ele>
        <time>2021-02-21T14:36:00.364Z</time>
      </trkpt>
      <trkpt lat="45.64685" lon="5.71974">
        <ele>718</ele>
        <time>2021-02-21T14:36:05.358Z</time>
      </trkpt>
      <trkpt lat="45.64693" lon="5.71975">
        <ele>718</ele>
        <time>2021-02-21T14:36:10.342Z</time>
      </trkpt>
      <trkpt lat="45.647" lon="5.71975">
        <ele>718</ele>
        <time>2021-02-21T14:36:15.323Z</time>
      </trkpt>
      <trkpt lat="45.64703" lon="5.71983">
        <ele>718</ele>
        <time>2021-02-21T14:36:19.344Z</time>
      </trkpt>
      <trkpt lat="45.64703" lon="5.71994">
        <ele>715</ele>
        <time>2021-02-21T14:36:24.398Z</time>
      </trkpt>
      <trkpt lat="45.64703" lon="5.72003">
        <ele>715</ele>
        <time>2021-02-21T14:36:29.347Z</time>
      </trkpt>
      <trkpt lat="45.64704" lon="5.72008">
        <ele>715</ele>
        <time>2021-02-21T14:36:33.358Z</time>
      </trkpt>
      <trkpt lat="45.64703" lon="5.72018">
        <ele>711</ele>
        <time>2021-02-21T14:36:38.330Z</time>
      </trkpt>
      <trkpt lat="45.64708" lon="5.72026">
        <ele>711</ele>
        <time>2021-02-21T14:36:43.323Z</time>
      </trkpt>
      <trkpt lat="45.64712" lon="5.72029">
        <ele>712</ele>
        <time>2021-02-21T14:36:47.400Z</time>
      </trkpt>
      <trkpt lat="45.64717" lon="5.72031">
        <ele>712</ele>
        <time>2021-02-21T14:36:52.348Z</time>
      </trkpt>
      <trkpt lat="45.64721" lon="5.72035">
        <ele>712</ele>
        <time>2021-02-21T14:36:56.362Z</time>
      </trkpt>
      <trkpt lat="45.64726" lon="5.72041">
        <ele>712</ele>
        <time>2021-02-21T14:37:01.312Z</time>
      </trkpt>
      <trkpt lat="45.64731" lon="5.72049">
        <ele>708</ele>
        <time>2021-02-21T14:37:06.315Z</time>
      </trkpt>
      <trkpt lat="45.64735" lon="5.72054">
        <ele>708</ele>
        <time>2021-02-21T14:37:10.322Z</time>
      </trkpt>
      <trkpt lat="45.64738" lon="5.72059">
        <ele>708</ele>
        <time>2021-02-21T14:37:14.358Z</time>
      </trkpt>
      <trkpt lat="45.64741" lon="5.72063">
        <ele>708</ele>
        <time>2021-02-21T14:37:18.368Z</time>
      </trkpt>
      <trkpt lat="45.64746" lon="5.72069">
        <ele>708</ele>
        <time>2021-02-21T14:37:23.357Z</time>
      </trkpt>
      <trkpt lat="45.64751" lon="5.72075">
        <ele>703</ele>
        <time>2021-02-21T14:37:28.304Z</time>
      </trkpt>
      <trkpt lat="45.64756" lon="5.72076">
        <ele>703</ele>
        <time>2021-02-21T14:37:32.328Z</time>
      </trkpt>
      <trkpt lat="45.6476" lon="5.72077">
        <ele>703</ele>
        <time>2021-02-21T14:37:36.327Z</time>
      </trkpt>
      <trkpt lat="45.64766" lon="5.72077">
        <ele>702</ele>
        <time>2021-02-21T14:37:41.349Z</time>
      </trkpt>
      <trkpt lat="45.64771" lon="5.72075">
        <ele>702</ele>
        <time>2021-02-21T14:37:45.343Z</time>
      </trkpt>
      <trkpt lat="45.6478" lon="5.7208">
        <ele>702</ele>
        <time>2021-02-21T14:37:50.381Z</time>
      </trkpt>
      <trkpt lat="45.64785" lon="5.72082">
        <ele>702</ele>
        <time>2021-02-21T14:37:55.356Z</time>
      </trkpt>
      <trkpt lat="45.64787" lon="5.72084">
        <ele>702</ele>
        <time>2021-02-21T14:38:00.340Z</time>
      </trkpt>
      <trkpt lat="45.64793" lon="5.72089">
        <ele>702</ele>
        <time>2021-02-21T14:38:05.354Z</time>
      </trkpt>
      <trkpt lat="45.64798" lon="5.72095">
        <ele>702</ele>
        <time>2021-02-21T14:38:10.342Z</time>
      </trkpt>
      <trkpt lat="45.64804" lon="5.72099">
        <ele>698</ele>
        <time>2021-02-21T14:38:15.347Z</time>
      </trkpt>
      <trkpt lat="45.6481" lon="5.72106">
        <ele>698</ele>
        <time>2021-02-21T14:38:20.353Z</time>
      </trkpt>
      <trkpt lat="45.64811" lon="5.72111">
        <ele>698</ele>
        <time>2021-02-21T14:38:25.344Z</time>
      </trkpt>
      <trkpt lat="45.64808" lon="5.72116">
        <ele>698</ele>
        <time>2021-02-21T14:38:30.347Z</time>
      </trkpt>
      <trkpt lat="45.64808" lon="5.72127">
        <ele>694</ele>
        <time>2021-02-21T14:38:35.364Z</time>
      </trkpt>
      <trkpt lat="45.64804" lon="5.72137">
        <ele>694</ele>
        <time>2021-02-21T14:38:40.311Z</time>
      </trkpt>
      <trkpt lat="45.64801" lon="5.72141">
        <ele>694</ele>
        <time>2021-02-21T14:38:44.364Z</time>
      </trkpt>
      <trkpt lat="45.648" lon="5.72147">
        <ele>694</ele>
        <time>2021-02-21T14:38:49.367Z</time>
      </trkpt>
      <trkpt lat="45.64795" lon="5.72154">
        <ele>692</ele>
        <time>2021-02-21T14:38:54.353Z</time>
      </trkpt>
      <trkpt lat="45.64792" lon="5.72158">
        <ele>692</ele>
        <time>2021-02-21T14:38:58.398Z</time>
      </trkpt>
      <trkpt lat="45.64787" lon="5.72164">
        <ele>692</ele>
        <time>2021-02-21T14:39:03.352Z</time>
      </trkpt>
      <trkpt lat="45.64782" lon="5.7217">
        <ele>692</ele>
        <time>2021-02-21T14:39:08.357Z</time>
      </trkpt>
      <trkpt lat="45.64778" lon="5.72177">
        <ele>692</ele>
        <time>2021-02-21T14:39:13.354Z</time>
      </trkpt>
      <trkpt lat="45.64773" lon="5.72185">
        <ele>689</ele>
        <time>2021-02-21T14:39:18.353Z</time>
      </trkpt>
      <trkpt lat="45.64768" lon="5.72194">
        <ele>689</ele>
        <time>2021-02-21T14:39:23.344Z</time>
      </trkpt>
      <trkpt lat="45.64764" lon="5.72199">
        <ele>688</ele>
        <time>2021-02-21T14:39:27.330Z</time>
      </trkpt>
      <trkpt lat="45.64761" lon="5.72203">
        <ele>688</ele>
        <time>2021-02-21T14:39:32.326Z</time>
      </trkpt>
      <trkpt lat="45.64761" lon="5.72207">
        <ele>688</ele>
        <time>2021-02-21T14:39:36.346Z</time>
      </trkpt>
      <trkpt lat="45.64758" lon="5.72208">
        <ele>682</ele>
        <time>2021-02-21T14:39:41.351Z</time>
      </trkpt>
      <trkpt lat="45.64758" lon="5.72209">
        <ele>682</ele>
        <time>2021-02-21T14:39:45.373Z</time>
      </trkpt>
      <trkpt lat="45.64751" lon="5.72213">
        <ele>682</ele>
        <time>2021-02-21T14:39:50.346Z</time>
      </trkpt>
      <trkpt lat="45.64744" lon="5.72216">
        <ele>682</ele>
        <time>2021-02-21T14:39:54.367Z</time>
      </trkpt>
      <trkpt lat="45.64741" lon="5.72219">
        <ele>682</ele>
        <time>2021-02-21T14:39:59.337Z</time>
      </trkpt>
      <trkpt lat="45.64734" lon="5.72223">
        <ele>683</ele>
        <time>2021-02-21T14:40:04.336Z</time>
      </trkpt>
      <trkpt lat="45.64729" lon="5.72226">
        <ele>683</ele>
        <time>2021-02-21T14:40:08.346Z</time>
      </trkpt>
      <trkpt lat="45.64718" lon="5.72229">
        <ele>683</ele>
        <time>2021-02-21T14:40:37.350Z</time>
      </trkpt>
      <trkpt lat="45.64717" lon="5.72228">
        <ele>683</ele>
        <time>2021-02-21T14:40:42.341Z</time>
      </trkpt>
      <trkpt lat="45.64717" lon="5.72227">
        <ele>683</ele>
        <time>2021-02-21T14:40:47.349Z</time>
      </trkpt>
      <trkpt lat="45.64716" lon="5.72227">
        <ele>683</ele>
        <time>2021-02-21T14:40:52.331Z</time>
      </trkpt>
      <trkpt lat="45.64714" lon="5.72227">
        <ele>683</ele>
        <time>2021-02-21T14:40:57.338Z</time>
      </trkpt>
      <trkpt lat="45.64706" lon="5.72229">
        <ele>684</ele>
        <time>2021-02-21T14:41:01.345Z</time>
      </trkpt>
      <trkpt lat="45.647" lon="5.72231">
        <ele>684</ele>
        <time>2021-02-21T14:41:05.401Z</time>
      </trkpt>
      <trkpt lat="45.64695" lon="5.72231">
        <ele>684</ele>
        <time>2021-02-21T14:41:10.309Z</time>
      </trkpt>
      <trkpt lat="45.64691" lon="5.72233">
        <ele>684</ele>
        <time>2021-02-21T14:41:14.357Z</time>
      </trkpt>
      <trkpt lat="45.64684" lon="5.72237">
        <ele>678</ele>
        <time>2021-02-21T14:41:19.329Z</time>
      </trkpt>
      <trkpt lat="45.64681" lon="5.72241">
        <ele>678</ele>
        <time>2021-02-21T14:41:24.364Z</time>
      </trkpt>
      <trkpt lat="45.64684" lon="5.72245">
        <ele>678</ele>
        <time>2021-02-21T14:41:28.407Z</time>
      </trkpt>
      <trkpt lat="45.64688" lon="5.72247">
        <ele>678</ele>
        <time>2021-02-21T14:41:33.334Z</time>
      </trkpt>
      <trkpt lat="45.64692" lon="5.7225">
        <ele>678</ele>
        <time>2021-02-21T14:41:38.372Z</time>
      </trkpt>
      <trkpt lat="45.64696" lon="5.72256">
        <ele>678</ele>
        <time>2021-02-21T14:41:43.346Z</time>
      </trkpt>
      <trkpt lat="45.64701" lon="5.72264">
        <ele>672</ele>
        <time>2021-02-21T14:41:48.338Z</time>
      </trkpt>
      <trkpt lat="45.64705" lon="5.7227">
        <ele>672</ele>
        <time>2021-02-21T14:41:53.374Z</time>
      </trkpt>
      <trkpt lat="45.64708" lon="5.72267">
        <ele>672</ele>
        <time>2021-02-21T14:41:57.349Z</time>
      </trkpt>
      <trkpt lat="45.64714" lon="5.72263">
        <ele>679</ele>
        <time>2021-02-21T14:42:02.358Z</time>
      </trkpt>
      <trkpt lat="45.64719" lon="5.72262">
        <ele>679</ele>
        <time>2021-02-21T14:42:07.352Z</time>
      </trkpt>
      <trkpt lat="45.64724" lon="5.72264">
        <ele>673</ele>
        <time>2021-02-21T14:42:12.347Z</time>
      </trkpt>
      <trkpt lat="45.64724" lon="5.72266">
        <ele>673</ele>
        <time>2021-02-21T14:42:16.360Z</time>
      </trkpt>
      <trkpt lat="45.64727" lon="5.72267">
        <ele>673</ele>
        <time>2021-02-21T14:42:21.347Z</time>
      </trkpt>
      <trkpt lat="45.64735" lon="5.72267">
        <ele>673</ele>
        <time>2021-02-21T14:42:26.345Z</time>
      </trkpt>
      <trkpt lat="45.64742" lon="5.72269">
        <ele>671</ele>
        <time>2021-02-21T14:42:31.345Z</time>
      </trkpt>
      <trkpt lat="45.64748" lon="5.72268">
        <ele>671</ele>
        <time>2021-02-21T14:42:35.383Z</time>
      </trkpt>
      <trkpt lat="45.64755" lon="5.72266">
        <ele>671</ele>
        <time>2021-02-21T14:42:40.346Z</time>
      </trkpt>
      <trkpt lat="45.64761" lon="5.72266">
        <ele>671</ele>
        <time>2021-02-21T14:42:45.358Z</time>
      </trkpt>
      <trkpt lat="45.64768" lon="5.72268">
        <ele>670</ele>
        <time>2021-02-21T14:42:50.334Z</time>
      </trkpt>
      <trkpt lat="45.64774" lon="5.72269">
        <ele>670</ele>
        <time>2021-02-21T14:42:55.344Z</time>
      </trkpt>
      <trkpt lat="45.64781" lon="5.72268">
        <ele>670</ele>
        <time>2021-02-21T14:42:59.404Z</time>
      </trkpt>
      <trkpt lat="45.64788" lon="5.72267">
        <ele>670</ele>
        <time>2021-02-21T14:43:04.347Z</time>
      </trkpt>
      <trkpt lat="45.64795" lon="5.72264">
        <ele>669</ele>
        <time>2021-02-21T14:43:09.351Z</time>
      </trkpt>
      <trkpt lat="45.64802" lon="5.72257">
        <ele>678</ele>
        <time>2021-02-21T14:43:14.309Z</time>
      </trkpt>
      <trkpt lat="45.64806" lon="5.72251">
        <ele>678</ele>
        <time>2021-02-21T14:43:18.356Z</time>
      </trkpt>
      <trkpt lat="45.64813" lon="5.72246">
        <ele>678</ele>
        <time>2021-02-21T14:43:23.342Z</time>
      </trkpt>
      <trkpt lat="45.6482" lon="5.72241">
        <ele>679</ele>
        <time>2021-02-21T14:43:28.344Z</time>
      </trkpt>
      <trkpt lat="45.64824" lon="5.72236">
        <ele>679</ele>
        <time>2021-02-21T14:43:32.351Z</time>
      </trkpt>
      <trkpt lat="45.64829" lon="5.72234">
        <ele>685</ele>
        <time>2021-02-21T14:43:37.378Z</time>
      </trkpt>
      <trkpt lat="45.64835" lon="5.72229">
        <ele>685</ele>
        <time>2021-02-21T14:43:42.345Z</time>
      </trkpt>
      <trkpt lat="45.64841" lon="5.72224">
        <ele>685</ele>
        <time>2021-02-21T14:43:47.369Z</time>
      </trkpt>
      <trkpt lat="45.64846" lon="5.72219">
        <ele>685</ele>
        <time>2021-02-21T14:43:52.375Z</time>
      </trkpt>
      <trkpt lat="45.64854" lon="5.72212">
        <ele>683</ele>
        <time>2021-02-21T14:43:57.357Z</time>
      </trkpt>
      <trkpt lat="45.64862" lon="5.7221">
        <ele>683</ele>
        <time>2021-02-21T14:44:02.346Z</time>
      </trkpt>
      <trkpt lat="45.64868" lon="5.72209">
        <ele>683</ele>
        <time>2021-02-21T14:44:06.357Z</time>
      </trkpt>
      <trkpt lat="45.64876" lon="5.72208">
        <ele>686</ele>
        <time>2021-02-21T14:44:11.346Z</time>
      </trkpt>
      <trkpt lat="45.64885" lon="5.72206">
        <ele>686</ele>
        <time>2021-02-21T14:44:16.346Z</time>
      </trkpt>
      <trkpt lat="45.64892" lon="5.72205">
        <ele>686</ele>
        <time>2021-02-21T14:44:21.354Z</time>
      </trkpt>
      <trkpt lat="45.64898" lon="5.72203">
        <ele>686</ele>
        <time>2021-02-21T14:44:25.377Z</time>
      </trkpt>
      <trkpt lat="45.64905" lon="5.72203">
        <ele>686</ele>
        <time>2021-02-21T14:44:30.358Z</time>
      </trkpt>
      <trkpt lat="45.64912" lon="5.72209">
        <ele>683</ele>
        <time>2021-02-21T14:44:35.413Z</time>
      </trkpt>
      <trkpt lat="45.64918" lon="5.72213">
        <ele>683</ele>
        <time>2021-02-21T14:44:40.362Z</time>
      </trkpt>
      <trkpt lat="45.64924" lon="5.72215">
        <ele>683</ele>
        <time>2021-02-21T14:44:45.338Z</time>
      </trkpt>
      <trkpt lat="45.64931" lon="5.72217">
        <ele>683</ele>
        <time>2021-02-21T14:44:49.363Z</time>
      </trkpt>
      <trkpt lat="45.6494" lon="5.7222">
        <ele>683</ele>
        <time>2021-02-21T14:44:54.340Z</time>
      </trkpt>
      <trkpt lat="45.64947" lon="5.72222">
        <ele>683</ele>
        <time>2021-02-21T14:44:59.333Z</time>
      </trkpt>
      <trkpt lat="45.64953" lon="5.72222">
        <ele>683</ele>
        <time>2021-02-21T14:45:03.352Z</time>
      </trkpt>
      <trkpt lat="45.64961" lon="5.72221">
        <ele>685</ele>
        <time>2021-02-21T14:45:08.351Z</time>
      </trkpt>
      <trkpt lat="45.6497" lon="5.7222">
        <ele>685</ele>
        <time>2021-02-21T14:45:13.349Z</time>
      </trkpt>
      <trkpt lat="45.64978" lon="5.7222">
        <ele>685</ele>
        <time>2021-02-21T14:45:17.364Z</time>
      </trkpt>
      <trkpt lat="45.64986" lon="5.7222">
        <ele>685</ele>
        <time>2021-02-21T14:45:22.340Z</time>
      </trkpt>
      <trkpt lat="45.64995" lon="5.72218">
        <ele>685</ele>
        <time>2021-02-21T14:45:27.367Z</time>
      </trkpt>
      <trkpt lat="45.65003" lon="5.72216">
        <ele>685</ele>
        <time>2021-02-21T14:45:32.363Z</time>
      </trkpt>
      <trkpt lat="45.65009" lon="5.72213">
        <ele>685</ele>
        <time>2021-02-21T14:45:37.353Z</time>
      </trkpt>
      <trkpt lat="45.65014" lon="5.72208">
        <ele>685</ele>
        <time>2021-02-21T14:45:42.346Z</time>
      </trkpt>
      <trkpt lat="45.65022" lon="5.72207">
        <ele>689</ele>
        <time>2021-02-21T14:45:47.346Z</time>
      </trkpt>
      <trkpt lat="45.65028" lon="5.72209">
        <ele>685</ele>
        <time>2021-02-21T14:45:52.347Z</time>
      </trkpt>
      <trkpt lat="45.65034" lon="5.72205">
        <ele>689</ele>
        <time>2021-02-21T14:45:57.353Z</time>
      </trkpt>
      <trkpt lat="45.65039" lon="5.72202">
        <ele>689</ele>
        <time>2021-02-21T14:46:02.325Z</time>
      </trkpt>
      <trkpt lat="45.65048" lon="5.72199">
        <ele>687</ele>
        <time>2021-02-21T14:46:07.341Z</time>
      </trkpt>
      <trkpt lat="45.65054" lon="5.72197">
        <ele>687</ele>
        <time>2021-02-21T14:46:11.340Z</time>
      </trkpt>
      <trkpt lat="45.65061" lon="5.72195">
        <ele>687</ele>
        <time>2021-02-21T14:46:16.341Z</time>
      </trkpt>
      <trkpt lat="45.65068" lon="5.72194">
        <ele>687</ele>
        <time>2021-02-21T14:46:21.341Z</time>
      </trkpt>
      <trkpt lat="45.65076" lon="5.7219">
        <ele>683</ele>
        <time>2021-02-21T14:46:26.333Z</time>
      </trkpt>
      <trkpt lat="45.65082" lon="5.72189">
        <ele>683</ele>
        <time>2021-02-21T14:46:31.339Z</time>
      </trkpt>
      <trkpt lat="45.65089" lon="5.72189">
        <ele>683</ele>
        <time>2021-02-21T14:46:36.347Z</time>
      </trkpt>
      <trkpt lat="45.65099" lon="5.72189">
        <ele>678</ele>
        <time>2021-02-21T14:46:41.400Z</time>
      </trkpt>
      <trkpt lat="45.65107" lon="5.72186">
        <ele>678</ele>
        <time>2021-02-21T14:46:46.350Z</time>
      </trkpt>
      <trkpt lat="45.65113" lon="5.72185">
        <ele>678</ele>
        <time>2021-02-21T14:46:50.360Z</time>
      </trkpt>
      <trkpt lat="45.6512" lon="5.72184">
        <ele>678</ele>
        <time>2021-02-21T14:46:55.356Z</time>
      </trkpt>
      <trkpt lat="45.65127" lon="5.72182">
        <ele>677</ele>
        <time>2021-02-21T14:47:00.338Z</time>
      </trkpt>
      <trkpt lat="45.65134" lon="5.7218">
        <ele>681</ele>
        <time>2021-02-21T14:47:05.366Z</time>
      </trkpt>
      <trkpt lat="45.65141" lon="5.72178">
        <ele>681</ele>
        <time>2021-02-21T14:47:10.359Z</time>
      </trkpt>
      <trkpt lat="45.65147" lon="5.72175">
        <ele>681</ele>
        <time>2021-02-21T14:47:15.346Z</time>
      </trkpt>
      <trkpt lat="45.65154" lon="5.72171">
        <ele>680</ele>
        <time>2021-02-21T14:47:20.346Z</time>
      </trkpt>
      <trkpt lat="45.65161" lon="5.7217">
        <ele>680</ele>
        <time>2021-02-21T14:47:25.359Z</time>
      </trkpt>
      <trkpt lat="45.65166" lon="5.7217">
        <ele>680</ele>
        <time>2021-02-21T14:47:29.394Z</time>
      </trkpt>
      <trkpt lat="45.65173" lon="5.72167">
        <ele>680</ele>
        <time>2021-02-21T14:47:34.346Z</time>
      </trkpt>
      <trkpt lat="45.65178" lon="5.72165">
        <ele>680</ele>
        <time>2021-02-21T14:47:39.310Z</time>
      </trkpt>
      <trkpt lat="45.65185" lon="5.72163">
        <ele>677</ele>
        <time>2021-02-21T14:47:43.322Z</time>
      </trkpt>
      <trkpt lat="45.65192" lon="5.72163">
        <ele>677</ele>
        <time>2021-02-21T14:47:48.341Z</time>
      </trkpt>
      <trkpt lat="45.65197" lon="5.72165">
        <ele>677</ele>
        <time>2021-02-21T14:47:53.342Z</time>
      </trkpt>
      <trkpt lat="45.65209" lon="5.72169">
        <ele>672</ele>
        <time>2021-02-21T14:47:58.417Z</time>
      </trkpt>
      <trkpt lat="45.65215" lon="5.72174">
        <ele>672</ele>
        <time>2021-02-21T14:48:03.338Z</time>
      </trkpt>
      <trkpt lat="45.65221" lon="5.72178">
        <ele>672</ele>
        <time>2021-02-21T14:48:08.364Z</time>
      </trkpt>
      <trkpt lat="45.65229" lon="5.72182">
        <ele>672</ele>
        <time>2021-02-21T14:48:13.345Z</time>
      </trkpt>
      <trkpt lat="45.65236" lon="5.72182">
        <ele>672</ele>
        <time>2021-02-21T14:48:18.358Z</time>
      </trkpt>
      <trkpt lat="45.65242" lon="5.72183">
        <ele>666</ele>
        <time>2021-02-21T14:48:23.323Z</time>
      </trkpt>
      <trkpt lat="45.65248" lon="5.72186">
        <ele>666</ele>
        <time>2021-02-21T14:48:27.342Z</time>
      </trkpt>
      <trkpt lat="45.65255" lon="5.72189">
        <ele>666</ele>
        <time>2021-02-21T14:48:32.343Z</time>
      </trkpt>
      <trkpt lat="45.65261" lon="5.72192">
        <ele>666</ele>
        <time>2021-02-21T14:48:37.343Z</time>
      </trkpt>
      <trkpt lat="45.65265" lon="5.72198">
        <ele>663</ele>
        <time>2021-02-21T14:48:41.341Z</time>
      </trkpt>
      <trkpt lat="45.65271" lon="5.72206">
        <ele>663</ele>
        <time>2021-02-21T14:48:46.326Z</time>
      </trkpt>
      <trkpt lat="45.65276" lon="5.72213">
        <ele>661</ele>
        <time>2021-02-21T14:48:50.372Z</time>
      </trkpt>
      <trkpt lat="45.65278" lon="5.72221">
        <ele>661</ele>
        <time>2021-02-21T14:48:55.348Z</time>
      </trkpt>
      <trkpt lat="45.65279" lon="5.72233">
        <ele>661</ele>
        <time>2021-02-21T14:49:00.331Z</time>
      </trkpt>
      <trkpt lat="45.65278" lon="5.7224">
        <ele>659</ele>
        <time>2021-02-21T14:49:04.348Z</time>
      </trkpt>
      <trkpt lat="45.65278" lon="5.72251">
        <ele>659</ele>
        <time>2021-02-21T14:49:09.338Z</time>
      </trkpt>
      <trkpt lat="45.65278" lon="5.72261">
        <ele>659</ele>
        <time>2021-02-21T14:49:14.349Z</time>
      </trkpt>
      <trkpt lat="45.65279" lon="5.7227">
        <ele>656</ele>
        <time>2021-02-21T14:49:19.345Z</time>
      </trkpt>
      <trkpt lat="45.65278" lon="5.72278">
        <ele>656</ele>
        <time>2021-02-21T14:49:23.400Z</time>
      </trkpt>
      <trkpt lat="45.65277" lon="5.72287">
        <ele>656</ele>
        <time>2021-02-21T14:49:28.346Z</time>
      </trkpt>
      <trkpt lat="45.65275" lon="5.72297">
        <ele>654</ele>
        <time>2021-02-21T14:49:33.359Z</time>
      </trkpt>
      <trkpt lat="45.65275" lon="5.72308">
        <ele>654</ele>
        <time>2021-02-21T14:49:38.364Z</time>
      </trkpt>
      <trkpt lat="45.65273" lon="5.72319">
        <ele>654</ele>
        <time>2021-02-21T14:49:43.373Z</time>
      </trkpt>
      <trkpt lat="45.6527" lon="5.72326">
        <ele>652</ele>
        <time>2021-02-21T14:49:48.369Z</time>
      </trkpt>
      <trkpt lat="45.65266" lon="5.72332">
        <ele>652</ele>
        <time>2021-02-21T14:49:52.343Z</time>
      </trkpt>
      <trkpt lat="45.65266" lon="5.7234">
        <ele>652</ele>
        <time>2021-02-21T14:49:57.342Z</time>
      </trkpt>
      <trkpt lat="45.65275" lon="5.72342">
        <ele>652</ele>
        <time>2021-02-21T14:50:26.362Z</time>
      </trkpt>
      <trkpt lat="45.65276" lon="5.72342">
        <ele>652</ele>
        <time>2021-02-21T14:50:31.370Z</time>
      </trkpt>
      <trkpt lat="45.65276" lon="5.72342">
        <ele>652</ele>
        <time>2021-02-21T14:50:36.366Z</time>
      </trkpt>
      <trkpt lat="45.65278" lon="5.72345">
        <ele>652</ele>
        <time>2021-02-21T14:50:41.339Z</time>
      </trkpt>
      <trkpt lat="45.6528" lon="5.72353">
        <ele>649</ele>
        <time>2021-02-21T14:50:46.367Z</time>
      </trkpt>
      <trkpt lat="45.65283" lon="5.72359">
        <ele>649</ele>
        <time>2021-02-21T14:50:51.340Z</time>
      </trkpt>
      <trkpt lat="45.65289" lon="5.72363">
        <ele>649</ele>
        <time>2021-02-21T14:50:56.408Z</time>
      </trkpt>
      <trkpt lat="45.65293" lon="5.72371">
        <ele>648</ele>
        <time>2021-02-21T14:51:01.368Z</time>
      </trkpt>
      <trkpt lat="45.65296" lon="5.7238">
        <ele>644</ele>
        <time>2021-02-21T14:51:06.363Z</time>
      </trkpt>
      <trkpt lat="45.65299" lon="5.72386">
        <ele>644</ele>
        <time>2021-02-21T14:51:10.828Z</time>
      </trkpt>
      <trkpt lat="45.65302" lon="5.72395">
        <ele>644</ele>
        <time>2021-02-21T14:51:15.358Z</time>
      </trkpt>
      <trkpt lat="45.65301" lon="5.72405">
        <ele>640</ele>
        <time>2021-02-21T14:51:20.327Z</time>
      </trkpt>
      <trkpt lat="45.65302" lon="5.72413">
        <ele>640</ele>
        <time>2021-02-21T14:51:24.342Z</time>
      </trkpt>
      <trkpt lat="45.65302" lon="5.72421">
        <ele>640</ele>
        <time>2021-02-21T14:51:28.366Z</time>
      </trkpt>
      <trkpt lat="45.65302" lon="5.7243">
        <ele>640</ele>
        <time>2021-02-21T14:51:33.364Z</time>
      </trkpt>
      <trkpt lat="45.65302" lon="5.72443">
        <ele>638</ele>
        <time>2021-02-21T14:51:38.349Z</time>
      </trkpt>
      <trkpt lat="45.65303" lon="5.72449">
        <ele>638</ele>
        <time>2021-02-21T14:51:42.360Z</time>
      </trkpt>
      <trkpt lat="45.65303" lon="5.72455">
        <ele>638</ele>
        <time>2021-02-21T14:51:47.351Z</time>
      </trkpt>
      <trkpt lat="45.65304" lon="5.72464">
        <ele>636</ele>
        <time>2021-02-21T14:51:52.352Z</time>
      </trkpt>
      <trkpt lat="45.65305" lon="5.72471">
        <ele>636</ele>
        <time>2021-02-21T14:51:57.345Z</time>
      </trkpt>
      <trkpt lat="45.65309" lon="5.72482">
        <ele>636</ele>
        <time>2021-02-21T14:52:02.347Z</time>
      </trkpt>
      <trkpt lat="45.65312" lon="5.7249">
        <ele>636</ele>
        <time>2021-02-21T14:52:07.373Z</time>
      </trkpt>
      <trkpt lat="45.65316" lon="5.72497">
        <ele>636</ele>
        <time>2021-02-21T14:52:12.341Z</time>
      </trkpt>
      <trkpt lat="45.65321" lon="5.72503">
        <ele>634</ele>
        <time>2021-02-21T14:52:16.335Z</time>
      </trkpt>
      <trkpt lat="45.65325" lon="5.72512">
        <ele>634</ele>
        <time>2021-02-21T14:52:21.399Z</time>
      </trkpt>
      <trkpt lat="45.65329" lon="5.72519">
        <ele>634</ele>
        <time>2021-02-21T14:52:26.360Z</time>
      </trkpt>
      <trkpt lat="45.65333" lon="5.72524">
        <ele>634</ele>
        <time>2021-02-21T14:52:30.337Z</time>
      </trkpt>
      <trkpt lat="45.65341" lon="5.72535">
        <ele>634</ele>
        <time>2021-02-21T14:52:35.331Z</time>
      </trkpt>
      <trkpt lat="45.65348" lon="5.72542">
        <ele>633</ele>
        <time>2021-02-21T14:52:40.337Z</time>
      </trkpt>
      <trkpt lat="45.6535" lon="5.72552">
        <ele>633</ele>
        <time>2021-02-21T14:55:20.343Z</time>
      </trkpt>
      <trkpt lat="45.6535" lon="5.72555">
        <ele>633</ele>
        <time>2021-02-21T14:55:25.323Z</time>
      </trkpt>
      <trkpt lat="45.6535" lon="5.72559">
        <ele>633</ele>
        <time>2021-02-21T14:55:30.319Z</time>
      </trkpt>
      <trkpt lat="45.65351" lon="5.72562">
        <ele>633</ele>
        <time>2021-02-21T14:55:35.351Z</time>
      </trkpt>
      <trkpt lat="45.6535" lon="5.72562">
        <ele>633</ele>
        <time>2021-02-21T14:55:39.344Z</time>
      </trkpt>
      <trkpt lat="45.65353" lon="5.72561">
        <ele>633</ele>
        <time>2021-02-21T14:55:57.321Z</time>
      </trkpt>
      <trkpt lat="45.65352" lon="5.72562">
        <ele>633</ele>
        <time>2021-02-21T14:56:02.306Z</time>
      </trkpt>
      <trkpt lat="45.65353" lon="5.72563">
        <ele>633</ele>
        <time>2021-02-21T14:56:06.411Z</time>
      </trkpt>
      <trkpt lat="45.65354" lon="5.72566">
        <ele>633</ele>
        <time>2021-02-21T14:56:11.260Z</time>
      </trkpt>
      <trkpt lat="45.65361" lon="5.7257">
        <ele>634</ele>
        <time>2021-02-21T14:56:15.351Z</time>
      </trkpt>
      <trkpt lat="45.65364" lon="5.72578">
        <ele>634</ele>
        <time>2021-02-21T14:56:19.353Z</time>
      </trkpt>
      <trkpt lat="45.65372" lon="5.72582">
        <ele>634</ele>
        <time>2021-02-21T14:56:24.339Z</time>
      </trkpt>
      <trkpt lat="45.65377" lon="5.72577">
        <ele>635</ele>
        <time>2021-02-21T14:56:28.361Z</time>
      </trkpt>
      <trkpt lat="45.65383" lon="5.72574">
        <ele>635</ele>
        <time>2021-02-21T14:56:33.340Z</time>
      </trkpt>
      <trkpt lat="45.65388" lon="5.72568">
        <ele>634</ele>
        <time>2021-02-21T14:56:37.367Z</time>
      </trkpt>
      <trkpt lat="45.65393" lon="5.72564">
        <ele>634</ele>
        <time>2021-02-21T14:56:42.345Z</time>
      </trkpt>
      <trkpt lat="45.65398" lon="5.72561">
        <ele>634</ele>
        <time>2021-02-21T14:56:47.401Z</time>
      </trkpt>
      <trkpt lat="45.65404" lon="5.72558">
        <ele>632</ele>
        <time>2021-02-21T14:56:52.363Z</time>
      </trkpt>
      <trkpt lat="45.65409" lon="5.72557">
        <ele>632</ele>
        <time>2021-02-21T14:56:57.347Z</time>
      </trkpt>
      <trkpt lat="45.65414" lon="5.72556">
        <ele>632</ele>
        <time>2021-02-21T14:57:01.366Z</time>
      </trkpt>
      <trkpt lat="45.65419" lon="5.72555">
        <ele>632</ele>
        <time>2021-02-21T14:57:06.346Z</time>
      </trkpt>
      <trkpt lat="45.65425" lon="5.72556">
        <ele>632</ele>
        <time>2021-02-21T14:57:11.344Z</time>
      </trkpt>
      <trkpt lat="45.6543" lon="5.72556">
        <ele>632</ele>
        <time>2021-02-21T14:57:16.299Z</time>
      </trkpt>
      <trkpt lat="45.65435" lon="5.72553">
        <ele>628</ele>
        <time>2021-02-21T14:57:20.318Z</time>
      </trkpt>
      <trkpt lat="45.65438" lon="5.72549">
        <ele>628</ele>
        <time>2021-02-21T14:57:24.349Z</time>
      </trkpt>
      <trkpt lat="45.6544" lon="5.72543">
        <ele>628</ele>
        <time>2021-02-21T14:57:28.367Z</time>
      </trkpt>
      <trkpt lat="45.65443" lon="5.72533">
        <ele>626</ele>
        <time>2021-02-21T14:57:33.363Z</time>
      </trkpt>
      <trkpt lat="45.65444" lon="5.72524">
        <ele>626</ele>
        <time>2021-02-21T14:57:37.366Z</time>
      </trkpt>
      <trkpt lat="45.65442" lon="5.72516">
        <ele>626</ele>
        <time>2021-02-21T14:57:42.370Z</time>
      </trkpt>
      <trkpt lat="45.65439" lon="5.72504">
        <ele>623</ele>
        <time>2021-02-21T14:57:47.361Z</time>
      </trkpt>
      <trkpt lat="45.65438" lon="5.72495">
        <ele>623</ele>
        <time>2021-02-21T14:57:52.339Z</time>
      </trkpt>
      <trkpt lat="45.65438" lon="5.72485">
        <ele>621</ele>
        <time>2021-02-21T14:57:57.328Z</time>
      </trkpt>
      <trkpt lat="45.65436" lon="5.72477">
        <ele>621</ele>
        <time>2021-02-21T14:58:01.387Z</time>
      </trkpt>
      <trkpt lat="45.65435" lon="5.72468">
        <ele>621</ele>
        <time>2021-02-21T14:58:06.358Z</time>
      </trkpt>
      <trkpt lat="45.65434" lon="5.72458">
        <ele>621</ele>
        <time>2021-02-21T14:58:11.350Z</time>
      </trkpt>
      <trkpt lat="45.65435" lon="5.72449">
        <ele>621</ele>
        <time>2021-02-21T14:58:16.374Z</time>
      </trkpt>
      <trkpt lat="45.65442" lon="5.72442">
        <ele>621</ele>
        <time>2021-02-21T14:58:21.334Z</time>
      </trkpt>
      <trkpt lat="45.65447" lon="5.72439">
        <ele>621</ele>
        <time>2021-02-21T14:58:25.357Z</time>
      </trkpt>
      <trkpt lat="45.65461" lon="5.72434">
        <ele>619</ele>
        <time>2021-02-21T14:59:09.318Z</time>
      </trkpt>
      <trkpt lat="45.65462" lon="5.72434">
        <ele>619</ele>
        <time>2021-02-21T14:59:13.320Z</time>
      </trkpt>
      <trkpt lat="45.65463" lon="5.72433">
        <ele>619</ele>
        <time>2021-02-21T14:59:17.347Z</time>
      </trkpt>
      <trkpt lat="45.65463" lon="5.72433">
        <ele>619</ele>
        <time>2021-02-21T14:59:21.305Z</time>
      </trkpt>
      <trkpt lat="45.65463" lon="5.72434">
        <ele>619</ele>
        <time>2021-02-21T14:59:25.354Z</time>
      </trkpt>
      <trkpt lat="45.65467" lon="5.72434">
        <ele>619</ele>
        <time>2021-02-21T14:59:54.343Z</time>
      </trkpt>
      <trkpt lat="45.65468" lon="5.72434">
        <ele>619</ele>
        <time>2021-02-21T14:59:59.327Z</time>
      </trkpt>
      <trkpt lat="45.65468" lon="5.72432">
        <ele>619</ele>
        <time>2021-02-21T15:00:04.337Z</time>
      </trkpt>
      <trkpt lat="45.6547" lon="5.72428">
        <ele>621</ele>
        <time>2021-02-21T15:00:08.353Z</time>
      </trkpt>
      <trkpt lat="45.65472" lon="5.72422">
        <ele>621</ele>
        <time>2021-02-21T15:00:13.401Z</time>
      </trkpt>
      <trkpt lat="45.65474" lon="5.72414">
        <ele>621</ele>
        <time>2021-02-21T15:01:28.336Z</time>
      </trkpt>
      <trkpt lat="45.65474" lon="5.72414">
        <ele>621</ele>
        <time>2021-02-21T15:01:33.415Z</time>
      </trkpt>
      <trkpt lat="45.65476" lon="5.72413">
        <ele>621</ele>
        <time>2021-02-21T15:01:38.360Z</time>
      </trkpt>
      <trkpt lat="45.6548" lon="5.72412">
        <ele>621</ele>
        <time>2021-02-21T15:01:42.354Z</time>
      </trkpt>
      <trkpt lat="45.65487" lon="5.72416">
        <ele>621</ele>
        <time>2021-02-21T15:01:47.356Z</time>
      </trkpt>
      <trkpt lat="45.65493" lon="5.72418">
        <ele>621</ele>
        <time>2021-02-21T15:01:51.364Z</time>
      </trkpt>
      <trkpt lat="45.65498" lon="5.72417">
        <ele>621</ele>
        <time>2021-02-21T15:01:56.354Z</time>
      </trkpt>
      <trkpt lat="45.65503" lon="5.72416">
        <ele>621</ele>
        <time>2021-02-21T15:02:01.368Z</time>
      </trkpt>
      <trkpt lat="45.6551" lon="5.72416">
        <ele>621</ele>
        <time>2021-02-21T15:02:06.364Z</time>
      </trkpt>
      <trkpt lat="45.65517" lon="5.72417">
        <ele>620</ele>
        <time>2021-02-21T15:02:11.353Z</time>
      </trkpt>
      <trkpt lat="45.65522" lon="5.72417">
        <ele>620</ele>
        <time>2021-02-21T15:02:16.368Z</time>
      </trkpt>
      <trkpt lat="45.65528" lon="5.72417">
        <ele>620</ele>
        <time>2021-02-21T15:02:21.369Z</time>
      </trkpt>
      <trkpt lat="45.65531" lon="5.72418">
        <ele>620</ele>
        <time>2021-02-21T15:02:26.371Z</time>
      </trkpt>
      <trkpt lat="45.65534" lon="5.72422">
        <ele>620</ele>
        <time>2021-02-21T15:02:54.334Z</time>
      </trkpt>
      <trkpt lat="45.65534" lon="5.72424">
        <ele>620</ele>
        <time>2021-02-21T15:02:59.339Z</time>
      </trkpt>
      <trkpt lat="45.65534" lon="5.72424">
        <ele>620</ele>
        <time>2021-02-21T15:03:04.328Z</time>
      </trkpt>
      <trkpt lat="45.65536" lon="5.72423">
        <ele>620</ele>
        <time>2021-02-21T15:03:09.349Z</time>
      </trkpt>
      <trkpt lat="45.6554" lon="5.72422">
        <ele>620</ele>
        <time>2021-02-21T15:03:14.368Z</time>
      </trkpt>
      <trkpt lat="45.65544" lon="5.7242">
        <ele>620</ele>
        <time>2021-02-21T15:03:19.336Z</time>
      </trkpt>
      <trkpt lat="45.65547" lon="5.72422">
        <ele>620</ele>
        <time>2021-02-21T15:03:24.394Z</time>
      </trkpt>
      <trkpt lat="45.65552" lon="5.72418">
        <ele>620</ele>
        <time>2021-02-21T15:03:29.373Z</time>
      </trkpt>
      <trkpt lat="45.65558" lon="5.72417">
        <ele>620</ele>
        <time>2021-02-21T15:03:34.364Z</time>
      </trkpt>
      <trkpt lat="45.65562" lon="5.72414">
        <ele>620</ele>
        <time>2021-02-21T15:03:39.377Z</time>
      </trkpt>
      <trkpt lat="45.65566" lon="5.72415">
        <ele>620</ele>
        <time>2021-02-21T15:03:44.366Z</time>
      </trkpt>
      <trkpt lat="45.6557" lon="5.72413">
        <ele>619</ele>
        <time>2021-02-21T15:03:49.364Z</time>
      </trkpt>
      <trkpt lat="45.65574" lon="5.72411">
        <ele>619</ele>
        <time>2021-02-21T15:03:54.363Z</time>
      </trkpt>
      <trkpt lat="45.6558" lon="5.7241">
        <ele>619</ele>
        <time>2021-02-21T15:03:58.365Z</time>
      </trkpt>
      <trkpt lat="45.65587" lon="5.72408">
        <ele>619</ele>
        <time>2021-02-21T15:04:03.375Z</time>
      </trkpt>
      <trkpt lat="45.65593" lon="5.72407">
        <ele>619</ele>
        <time>2021-02-21T15:04:08.366Z</time>
      </trkpt>
      <trkpt lat="45.656" lon="5.72406">
        <ele>616</ele>
        <time>2021-02-21T15:04:13.348Z</time>
      </trkpt>
      <trkpt lat="45.65605" lon="5.72407">
        <ele>616</ele>
        <time>2021-02-21T15:04:17.365Z</time>
      </trkpt>
      <trkpt lat="45.65613" lon="5.72408">
        <ele>616</ele>
        <time>2021-02-21T15:04:22.350Z</time>
      </trkpt>
      <trkpt lat="45.6562" lon="5.7241">
        <ele>616</ele>
        <time>2021-02-21T15:04:27.358Z</time>
      </trkpt>
      <trkpt lat="45.65625" lon="5.72412">
        <ele>613</ele>
        <time>2021-02-21T15:04:31.376Z</time>
      </trkpt>
      <trkpt lat="45.65632" lon="5.72411">
        <ele>613</ele>
        <time>2021-02-21T15:04:36.364Z</time>
      </trkpt>
      <trkpt lat="45.65637" lon="5.72415">
        <ele>613</ele>
        <time>2021-02-21T15:04:41.358Z</time>
      </trkpt>
      <trkpt lat="45.65643" lon="5.7242">
        <ele>613</ele>
        <time>2021-02-21T15:04:46.356Z</time>
      </trkpt>
      <trkpt lat="45.65647" lon="5.72417">
        <ele>613</ele>
        <time>2021-02-21T15:04:50.360Z</time>
      </trkpt>
      <trkpt lat="45.65653" lon="5.72415">
        <ele>611</ele>
        <time>2021-02-21T15:04:55.349Z</time>
      </trkpt>
      <trkpt lat="45.65662" lon="5.72417">
        <ele>611</ele>
        <time>2021-02-21T15:05:00.368Z</time>
      </trkpt>
      <trkpt lat="45.65667" lon="5.72418">
        <ele>611</ele>
        <time>2021-02-21T15:05:05.336Z</time>
      </trkpt>
      <trkpt lat="45.65673" lon="5.72418">
        <ele>611</ele>
        <time>2021-02-21T15:05:09.363Z</time>
      </trkpt>
      <trkpt lat="45.65677" lon="5.72419">
        <ele>611</ele>
        <time>2021-02-21T15:05:14.355Z</time>
      </trkpt>
      <trkpt lat="45.65683" lon="5.72421">
        <ele>612</ele>
        <time>2021-02-21T15:05:19.347Z</time>
      </trkpt>
      <trkpt lat="45.65689" lon="5.72425">
        <ele>612</ele>
        <time>2021-02-21T15:05:24.352Z</time>
      </trkpt>
      <trkpt lat="45.65696" lon="5.72427">
        <ele>612</ele>
        <time>2021-02-21T15:05:29.346Z</time>
      </trkpt>
      <trkpt lat="45.65703" lon="5.72428">
        <ele>612</ele>
        <time>2021-02-21T15:05:34.354Z</time>
      </trkpt>
      <trkpt lat="45.6571" lon="5.72429">
        <ele>612</ele>
        <time>2021-02-21T15:05:39.357Z</time>
      </trkpt>
      <trkpt lat="45.65717" lon="5.72432">
        <ele>602</ele>
        <time>2021-02-21T15:05:44.360Z</time>
      </trkpt>
      <trkpt lat="45.65722" lon="5.72436">
        <ele>602</ele>
        <time>2021-02-21T15:05:49.340Z</time>
      </trkpt>
      <trkpt lat="45.65728" lon="5.72434">
        <ele>602</ele>
        <time>2021-02-21T15:05:54.371Z</time>
      </trkpt>
      <trkpt lat="45.65736" lon="5.72436">
        <ele>602</ele>
        <time>2021-02-21T15:05:59.345Z</time>
      </trkpt>
      <trkpt lat="45.65744" lon="5.72438">
        <ele>598</ele>
        <time>2021-02-21T15:06:04.342Z</time>
      </trkpt>
      <trkpt lat="45.65745" lon="5.72439">
        <ele>598</ele>
        <time>2021-02-21T15:06:08.369Z</time>
      </trkpt>
      <trkpt lat="45.65755" lon="5.72442">
        <ele>598</ele>
        <time>2021-02-21T15:06:17.356Z</time>
      </trkpt>
      <trkpt lat="45.65756" lon="5.7244">
        <ele>598</ele>
        <time>2021-02-21T15:06:22.363Z</time>
      </trkpt>
      <trkpt lat="45.65757" lon="5.7244">
        <ele>598</ele>
        <time>2021-02-21T15:06:26.360Z</time>
      </trkpt>
      <trkpt lat="45.65757" lon="5.7244">
        <ele>598</ele>
        <time>2021-02-21T15:06:31.363Z</time>
      </trkpt>
      <trkpt lat="45.65758" lon="5.72439">
        <ele>598</ele>
        <time>2021-02-21T15:06:36.362Z</time>
      </trkpt>
      <trkpt lat="45.6576" lon="5.72439">
        <ele>598</ele>
        <time>2021-02-21T15:07:00.370Z</time>
      </trkpt>
      <trkpt lat="45.65765" lon="5.7244">
        <ele>595</ele>
        <time>2021-02-21T15:07:05.357Z</time>
      </trkpt>
      <trkpt lat="45.65772" lon="5.72442">
        <ele>595</ele>
        <time>2021-02-21T15:07:10.364Z</time>
      </trkpt>
      <trkpt lat="45.65779" lon="5.72447">
        <ele>595</ele>
        <time>2021-02-21T15:07:15.359Z</time>
      </trkpt>
      <trkpt lat="45.65785" lon="5.7245">
        <ele>595</ele>
        <time>2021-02-21T15:07:19.415Z</time>
      </trkpt>
      <trkpt lat="45.65791" lon="5.72451">
        <ele>595</ele>
        <time>2021-02-21T15:07:24.357Z</time>
      </trkpt>
      <trkpt lat="45.65795" lon="5.72452">
        <ele>592</ele>
        <time>2021-02-21T15:07:29.366Z</time>
      </trkpt>
      <trkpt lat="45.65801" lon="5.72454">
        <ele>592</ele>
        <time>2021-02-21T15:07:34.361Z</time>
      </trkpt>
      <trkpt lat="45.65806" lon="5.72456">
        <ele>592</ele>
        <time>2021-02-21T15:07:39.345Z</time>
      </trkpt>
      <trkpt lat="45.65812" lon="5.72461">
        <ele>584</ele>
        <time>2021-02-21T15:07:44.364Z</time>
      </trkpt>
      <trkpt lat="45.65817" lon="5.72464">
        <ele>584</ele>
        <time>2021-02-21T15:07:49.355Z</time>
      </trkpt>
      <trkpt lat="45.65823" lon="5.72468">
        <ele>584</ele>
        <time>2021-02-21T15:07:54.357Z</time>
      </trkpt>
      <trkpt lat="45.6583" lon="5.72471">
        <ele>584</ele>
        <time>2021-02-21T15:07:59.331Z</time>
      </trkpt>
      <trkpt lat="45.65834" lon="5.72472">
        <ele>584</ele>
        <time>2021-02-21T15:08:04.330Z</time>
      </trkpt>
      <trkpt lat="45.6584" lon="5.72473">
        <ele>584</ele>
        <time>2021-02-21T15:08:08.382Z</time>
      </trkpt>
      <trkpt lat="45.65846" lon="5.72477">
        <ele>584</ele>
        <time>2021-02-21T15:08:13.371Z</time>
      </trkpt>
      <trkpt lat="45.65851" lon="5.72476">
        <ele>582</ele>
        <time>2021-02-21T15:08:17.353Z</time>
      </trkpt>
      <trkpt lat="45.65857" lon="5.72475">
        <ele>582</ele>
        <time>2021-02-21T15:08:22.366Z</time>
      </trkpt>
      <trkpt lat="45.65863" lon="5.72476">
        <ele>582</ele>
        <time>2021-02-21T15:08:27.364Z</time>
      </trkpt>
      <trkpt lat="45.65867" lon="5.72477">
        <ele>582</ele>
        <time>2021-02-21T15:08:32.351Z</time>
      </trkpt>
      <trkpt lat="45.65871" lon="5.72477">
        <ele>582</ele>
        <time>2021-02-21T15:08:36.360Z</time>
      </trkpt>
      <trkpt lat="45.65875" lon="5.72479">
        <ele>580</ele>
        <time>2021-02-21T15:08:40.428Z</time>
      </trkpt>
      <trkpt lat="45.6588" lon="5.72482">
        <ele>580</ele>
        <time>2021-02-21T15:08:45.344Z</time>
      </trkpt>
      <trkpt lat="45.65883" lon="5.72484">
        <ele>580</ele>
        <time>2021-02-21T15:08:50.351Z</time>
      </trkpt>
      <trkpt lat="45.65887" lon="5.72484">
        <ele>580</ele>
        <time>2021-02-21T15:08:55.380Z</time>
      </trkpt>
      <trkpt lat="45.65892" lon="5.72487">
        <ele>572</ele>
        <time>2021-02-21T15:09:09.399Z</time>
      </trkpt>
      <trkpt lat="45.65893" lon="5.72488">
        <ele>572</ele>
        <time>2021-02-21T15:09:13.364Z</time>
      </trkpt>
      <trkpt lat="45.65895" lon="5.72488">
        <ele>572</ele>
        <time>2021-02-21T15:09:18.347Z</time>
      </trkpt>
      <trkpt lat="45.65898" lon="5.7249">
        <ele>572</ele>
        <time>2021-02-21T15:09:23.348Z</time>
      </trkpt>
      <trkpt lat="45.65902" lon="5.72493">
        <ele>572</ele>
        <time>2021-02-21T15:09:28.355Z</time>
      </trkpt>
      <trkpt lat="45.65907" lon="5.72498">
        <ele>571</ele>
        <time>2021-02-21T15:09:33.341Z</time>
      </trkpt>
      <trkpt lat="45.65911" lon="5.72503">
        <ele>571</ele>
        <time>2021-02-21T15:09:38.353Z</time>
      </trkpt>
      <trkpt lat="45.65916" lon="5.72509">
        <ele>571</ele>
        <time>2021-02-21T15:09:43.390Z</time>
      </trkpt>
      <trkpt lat="45.6592" lon="5.72514">
        <ele>571</ele>
        <time>2021-02-21T15:09:48.366Z</time>
      </trkpt>
      <trkpt lat="45.65927" lon="5.72515">
        <ele>566</ele>
        <time>2021-02-21T15:10:11.375Z</time>
      </trkpt>
      <trkpt lat="45.6593" lon="5.72517">
        <ele>566</ele>
        <time>2021-02-21T15:10:16.355Z</time>
      </trkpt>
      <trkpt lat="45.65931" lon="5.72518">
        <ele>568</ele>
        <time>2021-02-21T15:10:20.396Z</time>
      </trkpt>
      <trkpt lat="45.65932" lon="5.72519">
        <ele>568</ele>
        <time>2021-02-21T15:10:25.361Z</time>
      </trkpt>
      <trkpt lat="45.65936" lon="5.72524">
        <ele>568</ele>
        <time>2021-02-21T15:10:29.354Z</time>
      </trkpt>
      <trkpt lat="45.65944" lon="5.72535">
        <ele>568</ele>
        <time>2021-02-21T15:10:34.353Z</time>
      </trkpt>
      <trkpt lat="45.65951" lon="5.7254">
        <ele>568</ele>
        <time>2021-02-21T15:10:39.356Z</time>
      </trkpt>
      <trkpt lat="45.65958" lon="5.72546">
        <ele>565</ele>
        <time>2021-02-21T15:10:44.360Z</time>
      </trkpt>
      <trkpt lat="45.65966" lon="5.72552">
        <ele>563</ele>
        <time>2021-02-21T15:10:49.371Z</time>
      </trkpt>
      <trkpt lat="45.65969" lon="5.72557">
        <ele>563</ele>
        <time>2021-02-21T15:11:34.379Z</time>
      </trkpt>
      <trkpt lat="45.6597" lon="5.72559">
        <ele>563</ele>
        <time>2021-02-21T15:11:38.370Z</time>
      </trkpt>
      <trkpt lat="45.6597" lon="5.7256">
        <ele>563</ele>
        <time>2021-02-21T15:11:43.365Z</time>
      </trkpt>
      <trkpt lat="45.65973" lon="5.7256">
        <ele>563</ele>
        <time>2021-02-21T15:11:47.371Z</time>
      </trkpt>
      <trkpt lat="45.65978" lon="5.72561">
        <ele>563</ele>
        <time>2021-02-21T15:11:52.355Z</time>
      </trkpt>
      <trkpt lat="45.65983" lon="5.72562">
        <ele>563</ele>
        <time>2021-02-21T15:11:56.354Z</time>
      </trkpt>
      <trkpt lat="45.65991" lon="5.72562">
        <ele>560</ele>
        <time>2021-02-21T15:12:01.368Z</time>
      </trkpt>
      <trkpt lat="45.65997" lon="5.72563">
        <ele>560</ele>
        <time>2021-02-21T15:12:05.372Z</time>
      </trkpt>
      <trkpt lat="45.66003" lon="5.72561">
        <ele>560</ele>
        <time>2021-02-21T15:12:10.355Z</time>
      </trkpt>
      <trkpt lat="45.66011" lon="5.72564">
        <ele>560</ele>
        <time>2021-02-21T15:12:15.364Z</time>
      </trkpt>
      <trkpt lat="45.66019" lon="5.72567">
        <ele>559</ele>
        <time>2021-02-21T15:12:19.345Z</time>
      </trkpt>
      <trkpt lat="45.66027" lon="5.72574">
        <ele>557</ele>
        <time>2021-02-21T15:12:24.357Z</time>
      </trkpt>
      <trkpt lat="45.66035" lon="5.72578">
        <ele>557</ele>
        <time>2021-02-21T15:12:29.381Z</time>
      </trkpt>
      <trkpt lat="45.66041" lon="5.72582">
        <ele>557</ele>
        <time>2021-02-21T15:12:34.360Z</time>
      </trkpt>
      <trkpt lat="45.66048" lon="5.72587">
        <ele>557</ele>
        <time>2021-02-21T15:12:38.424Z</time>
      </trkpt>
      <trkpt lat="45.66056" lon="5.72589">
        <ele>557</ele>
        <time>2021-02-21T15:12:43.340Z</time>
      </trkpt>
      <trkpt lat="45.66062" lon="5.72589">
        <ele>557</ele>
        <time>2021-02-21T15:12:47.351Z</time>
      </trkpt>
      <trkpt lat="45.66068" lon="5.72588">
        <ele>557</ele>
        <time>2021-02-21T15:12:51.357Z</time>
      </trkpt>
      <trkpt lat="45.66075" lon="5.7259">
        <ele>555</ele>
        <time>2021-02-21T15:12:56.344Z</time>
      </trkpt>
      <trkpt lat="45.66077" lon="5.72595">
        <ele>555</ele>
        <time>2021-02-21T15:13:00.353Z</time>
      </trkpt>
      <trkpt lat="45.6608" lon="5.72598">
        <ele>553</ele>
        <time>2021-02-21T15:13:05.380Z</time>
      </trkpt>
      <trkpt lat="45.66086" lon="5.72603">
        <ele>553</ele>
        <time>2021-02-21T15:13:10.366Z</time>
      </trkpt>
      <trkpt lat="45.66091" lon="5.72607">
        <ele>553</ele>
        <time>2021-02-21T15:13:15.377Z</time>
      </trkpt>
      <trkpt lat="45.66094" lon="5.72608">
        <ele>553</ele>
        <time>2021-02-21T15:13:20.390Z</time>
      </trkpt>
      <trkpt lat="45.66098" lon="5.72615">
        <ele>547</ele>
        <time>2021-02-21T15:13:25.363Z</time>
      </trkpt>
      <trkpt lat="45.66103" lon="5.72621">
        <ele>547</ele>
        <time>2021-02-21T15:13:30.358Z</time>
      </trkpt>
      <trkpt lat="45.66108" lon="5.72629">
        <ele>543</ele>
        <time>2021-02-21T15:13:35.348Z</time>
      </trkpt>
      <trkpt lat="45.66111" lon="5.72631">
        <ele>543</ele>
        <time>2021-02-21T15:13:39.378Z</time>
      </trkpt>
      <trkpt lat="45.66116" lon="5.7264">
        <ele>543</ele>
        <time>2021-02-21T15:13:44.349Z</time>
      </trkpt>
      <trkpt lat="45.6612" lon="5.72645">
        <ele>543</ele>
        <time>2021-02-21T15:13:48.407Z</time>
      </trkpt>
      <trkpt lat="45.66125" lon="5.72649">
        <ele>543</ele>
        <time>2021-02-21T15:13:53.362Z</time>
      </trkpt>
      <trkpt lat="45.6613" lon="5.72655">
        <ele>535</ele>
        <time>2021-02-21T15:13:58.363Z</time>
      </trkpt>
      <trkpt lat="45.66136" lon="5.72661">
        <ele>535</ele>
        <time>2021-02-21T15:14:03.350Z</time>
      </trkpt>
      <trkpt lat="45.66141" lon="5.72667">
        <ele>535</ele>
        <time>2021-02-21T15:14:08.354Z</time>
      </trkpt>
      <trkpt lat="45.66145" lon="5.72672">
        <ele>535</ele>
        <time>2021-02-21T15:14:12.369Z</time>
      </trkpt>
      <trkpt lat="45.66151" lon="5.72678">
        <ele>535</ele>
        <time>2021-02-21T15:14:17.362Z</time>
      </trkpt>
      <trkpt lat="45.66155" lon="5.72683">
        <ele>531</ele>
        <time>2021-02-21T15:14:22.366Z</time>
      </trkpt>
      <trkpt lat="45.66161" lon="5.72686">
        <ele>531</ele>
        <time>2021-02-21T15:14:27.341Z</time>
      </trkpt>
      <trkpt lat="45.66167" lon="5.72689">
        <ele>531</ele>
        <time>2021-02-21T15:14:32.355Z</time>
      </trkpt>
      <trkpt lat="45.66175" lon="5.72693">
        <ele>531</ele>
        <time>2021-02-21T15:14:37.371Z</time>
      </trkpt>
      <trkpt lat="45.66184" lon="5.72702">
        <ele>530</ele>
        <time>2021-02-21T15:14:42.351Z</time>
      </trkpt>
      <trkpt lat="45.6619" lon="5.72705">
        <ele>530</ele>
        <time>2021-02-21T15:14:46.370Z</time>
      </trkpt>
      <trkpt lat="45.66192" lon="5.72698">
        <ele>530</ele>
        <time>2021-02-21T15:14:51.365Z</time>
      </trkpt>
      <trkpt lat="45.66191" lon="5.72686">
        <ele>530</ele>
        <time>2021-02-21T15:14:56.348Z</time>
      </trkpt>
      <trkpt lat="45.66193" lon="5.72652">
        <ele>532</ele>
        <time>2021-02-21T15:15:01.343Z</time>
      </trkpt>
      <trkpt lat="45.66203" lon="5.72617">
        <ele>534</ele>
        <time>2021-02-21T15:15:06.368Z</time>
      </trkpt>
      <trkpt lat="45.66231" lon="5.72607">
        <ele>534</ele>
        <time>2021-02-21T15:15:11.396Z</time>
      </trkpt>
      <trkpt lat="45.66258" lon="5.72601">
        <ele>537</ele>
        <time>2021-02-21T15:15:16.366Z</time>
      </trkpt>
      <trkpt lat="45.66278" lon="5.72586">
        <ele>543</ele>
        <time>2021-02-21T15:15:20.370Z</time>
      </trkpt>
      <trkpt lat="45.66297" lon="5.72561">
        <ele>547</ele>
        <time>2021-02-21T15:15:25.351Z</time>
      </trkpt>
      <trkpt lat="45.66315" lon="5.7254">
        <ele>549</ele>
        <time>2021-02-21T15:15:30.306Z</time>
      </trkpt>
      <trkpt lat="45.66335" lon="5.72503">
        <ele>551</ele>
        <time>2021-02-21T15:15:34.342Z</time>
      </trkpt>
      <trkpt lat="45.66349" lon="5.72459">
        <ele>554</ele>
        <time>2021-02-21T15:15:39.409Z</time>
      </trkpt>
      <trkpt lat="45.66348" lon="5.72448">
        <ele>555</ele>
        <time>2021-02-21T15:15:44.348Z</time>
      </trkpt>
      <trkpt lat="45.66346" lon="5.72438">
        <ele>556</ele>
        <time>2021-02-21T15:15:49.331Z</time>
      </trkpt>
      <trkpt lat="45.66346" lon="5.72428">
        <ele>559</ele>
        <time>2021-02-21T15:15:59.353Z</time>
      </trkpt>
      <trkpt lat="45.66349" lon="5.72415">
        <ele>557</ele>
        <time>2021-02-21T15:16:04.364Z</time>
      </trkpt>
      <trkpt lat="45.66353" lon="5.72402">
        <ele>560</ele>
        <time>2021-02-21T15:16:08.400Z</time>
      </trkpt>
      <trkpt lat="45.66358" lon="5.72398">
        <ele>560</ele>
        <time>2021-02-21T15:16:13.342Z</time>
      </trkpt>
      <trkpt lat="45.66368" lon="5.72401">
        <ele>560</ele>
        <time>2021-02-21T15:16:18.320Z</time>
      </trkpt>
      <trkpt lat="45.66379" lon="5.72406">
        <ele>555</ele>
        <time>2021-02-21T15:16:23.321Z</time>
      </trkpt>
      <trkpt lat="45.66386" lon="5.72409">
        <ele>555</ele>
        <time>2021-02-21T15:16:31.349Z</time>
      </trkpt>
      <trkpt lat="45.66397" lon="5.72409">
        <ele>555</ele>
        <time>2021-02-21T15:16:36.357Z</time>
      </trkpt>
      <trkpt lat="45.66406" lon="5.7241">
        <ele>554</ele>
        <time>2021-02-21T15:16:41.339Z</time>
      </trkpt>
      <trkpt lat="45.66417" lon="5.7241">
        <ele>554</ele>
        <time>2021-02-21T15:16:50.360Z</time>
      </trkpt>
      <trkpt lat="45.66426" lon="5.72406">
        <ele>554</ele>
        <time>2021-02-21T15:16:55.380Z</time>
      </trkpt>
      <trkpt lat="45.66439" lon="5.72401">
        <ele>556</ele>
        <time>2021-02-21T15:17:09.358Z</time>
      </trkpt>
      <trkpt lat="45.66451" lon="5.72401">
        <ele>556</ele>
        <time>2021-02-21T15:17:14.350Z</time>
      </trkpt>
      <trkpt lat="45.66458" lon="5.72401">
        <ele>553</ele>
        <time>2021-02-21T15:17:18.364Z</time>
      </trkpt>
      <trkpt lat="45.66466" lon="5.72399">
        <ele>553</ele>
        <time>2021-02-21T15:17:23.413Z</time>
      </trkpt>
      <trkpt lat="45.66471" lon="5.72397">
        <ele>553</ele>
        <time>2021-02-21T15:17:28.343Z</time>
      </trkpt>
      <trkpt lat="45.66479" lon="5.72394">
        <ele>553</ele>
        <time>2021-02-21T15:17:32.334Z</time>
      </trkpt>
      <trkpt lat="45.66484" lon="5.72387">
        <ele>553</ele>
        <time>2021-02-21T15:17:37.352Z</time>
      </trkpt>
      <trkpt lat="45.6649" lon="5.72378">
        <ele>551</ele>
        <time>2021-02-21T15:17:42.353Z</time>
      </trkpt>
      <trkpt lat="45.66495" lon="5.72373">
        <ele>554</ele>
        <time>2021-02-21T15:17:46.400Z</time>
      </trkpt>
      <trkpt lat="45.66501" lon="5.72366">
        <ele>554</ele>
        <time>2021-02-21T15:17:51.348Z</time>
      </trkpt>
      <trkpt lat="45.66508" lon="5.72359">
        <ele>554</ele>
        <time>2021-02-21T15:17:56.338Z</time>
      </trkpt>
      <trkpt lat="45.66514" lon="5.72351">
        <ele>554</ele>
        <time>2021-02-21T15:18:01.349Z</time>
      </trkpt>
      <trkpt lat="45.66519" lon="5.72342">
        <ele>554</ele>
        <time>2021-02-21T15:18:06.358Z</time>
      </trkpt>
      <trkpt lat="45.66524" lon="5.72337">
        <ele>554</ele>
        <time>2021-02-21T15:18:11.338Z</time>
      </trkpt>
      <trkpt lat="45.66527" lon="5.72331">
        <ele>554</ele>
        <time>2021-02-21T15:18:15.357Z</time>
      </trkpt>
      <trkpt lat="45.66534" lon="5.72308">
        <ele>556</ele>
        <time>2021-02-21T15:18:20.357Z</time>
      </trkpt>
      <trkpt lat="45.66536" lon="5.72289">
        <ele>557</ele>
        <time>2021-02-21T15:18:25.352Z</time>
      </trkpt>
      <trkpt lat="45.66536" lon="5.72286">
        <ele>557</ele>
        <time>2021-02-21T15:18:30.354Z</time>
      </trkpt>
      <trkpt lat="45.66533" lon="5.72273">
        <ele>557</ele>
        <time>2021-02-21T15:18:40.341Z</time>
      </trkpt>
      <trkpt lat="45.66525" lon="5.72262">
        <ele>555</ele>
        <time>2021-02-21T15:18:45.355Z</time>
      </trkpt>
      <trkpt lat="45.66518" lon="5.72248">
        <ele>555</ele>
        <time>2021-02-21T15:18:50.365Z</time>
      </trkpt>
      <trkpt lat="45.66522" lon="5.72216">
        <ele>555</ele>
        <time>2021-02-21T15:18:55.367Z</time>
      </trkpt>
      <trkpt lat="45.66533" lon="5.72185">
        <ele>557</ele>
        <time>2021-02-21T15:18:59.373Z</time>
      </trkpt>
      <trkpt lat="45.66538" lon="5.72165">
        <ele>561</ele>
        <time>2021-02-21T15:19:04.364Z</time>
      </trkpt>
      <trkpt lat="45.66536" lon="5.72135">
        <ele>563</ele>
        <time>2021-02-21T15:19:09.355Z</time>
      </trkpt>
      <trkpt lat="45.66528" lon="5.72116">
        <ele>564</ele>
        <time>2021-02-21T15:19:14.377Z</time>
      </trkpt>
      <trkpt lat="45.66514" lon="5.72106">
        <ele>564</ele>
        <time>2021-02-21T15:19:19.348Z</time>
      </trkpt>
      <trkpt lat="45.66502" lon="5.72091">
        <ele>568</ele>
        <time>2021-02-21T15:19:24.356Z</time>
      </trkpt>
      <trkpt lat="45.66491" lon="5.72082">
        <ele>568</ele>
        <time>2021-02-21T15:19:29.368Z</time>
      </trkpt>
      <trkpt lat="45.6646" lon="5.72061">
        <ele>571</ele>
        <time>2021-02-21T15:19:34.356Z</time>
      </trkpt>
      <trkpt lat="45.66434" lon="5.72031">
        <ele>577</ele>
        <time>2021-02-21T15:19:39.332Z</time>
      </trkpt>
      <trkpt lat="45.66404" lon="5.72003">
        <ele>585</ele>
        <time>2021-02-21T15:19:44.342Z</time>
      </trkpt>
      <trkpt lat="45.66377" lon="5.71978">
        <ele>589</ele>
        <time>2021-02-21T15:19:49.318Z</time>
      </trkpt>
      <trkpt lat="45.6636" lon="5.71963">
        <ele>595</ele>
        <time>2021-02-21T15:19:53.340Z</time>
      </trkpt>
      <trkpt lat="45.66353" lon="5.71958">
        <ele>595</ele>
        <time>2021-02-21T15:19:58.361Z</time>
      </trkpt>
      <trkpt lat="45.6635" lon="5.71939">
        <ele>595</ele>
        <time>2021-02-21T15:20:08.340Z</time>
      </trkpt>
      <trkpt lat="45.66349" lon="5.71928">
        <ele>595</ele>
        <time>2021-02-21T15:20:18.323Z</time>
      </trkpt>
      <trkpt lat="45.6635" lon="5.71915">
        <ele>595</ele>
        <time>2021-02-21T15:20:26.350Z</time>
      </trkpt>
      <trkpt lat="45.66351" lon="5.719">
        <ele>596</ele>
        <time>2021-02-21T15:20:36.325Z</time>
      </trkpt>
      <trkpt lat="45.66356" lon="5.71889">
        <ele>596</ele>
        <time>2021-02-21T15:20:40.348Z</time>
      </trkpt>
      <trkpt lat="45.66371" lon="5.71866">
        <ele>596</ele>
        <time>2021-02-21T15:20:44.364Z</time>
      </trkpt>
      <trkpt lat="45.66386" lon="5.7185">
        <ele>588</ele>
        <time>2021-02-21T15:20:48.396Z</time>
      </trkpt>
      <trkpt lat="45.66392" lon="5.71841">
        <ele>588</ele>
        <time>2021-02-21T15:20:52.353Z</time>
      </trkpt>
      <trkpt lat="45.66395" lon="5.71832">
        <ele>588</ele>
        <time>2021-02-21T15:20:57.350Z</time>
      </trkpt>
      <trkpt lat="45.66397" lon="5.71827">
        <ele>588</ele>
        <time>2021-02-21T15:21:01.345Z</time>
      </trkpt>
      <trkpt lat="45.66398" lon="5.71821">
        <ele>588</ele>
        <time>2021-02-21T15:21:06.331Z</time>
      </trkpt>
      <trkpt lat="45.664" lon="5.71811">
        <ele>589</ele>
        <time>2021-02-21T15:21:10.346Z</time>
      </trkpt>
      <trkpt lat="45.664" lon="5.718">
        <ele>589</ele>
        <time>2021-02-21T15:21:15.341Z</time>
      </trkpt>
      <trkpt lat="45.664" lon="5.71787">
        <ele>591</ele>
        <time>2021-02-21T15:21:25.374Z</time>
      </trkpt>
      <trkpt lat="45.66403" lon="5.71773">
        <ele>585</ele>
        <time>2021-02-21T15:21:30.329Z</time>
      </trkpt>
      <trkpt lat="45.66408" lon="5.71761">
        <ele>588</ele>
        <time>2021-02-21T15:21:34.352Z</time>
      </trkpt>
      <trkpt lat="45.66413" lon="5.71753">
        <ele>588</ele>
        <time>2021-02-21T15:21:39.343Z</time>
      </trkpt>
      <trkpt lat="45.66421" lon="5.71744">
        <ele>588</ele>
        <time>2021-02-21T15:21:49.350Z</time>
      </trkpt>
      <trkpt lat="45.66435" lon="5.71752">
        <ele>583</ele>
        <time>2021-02-21T15:22:02.361Z</time>
      </trkpt>
      <trkpt lat="45.66449" lon="5.7176">
        <ele>583</ele>
        <time>2021-02-21T15:22:07.362Z</time>
      </trkpt>
      <trkpt lat="45.66456" lon="5.71764">
        <ele>583</ele>
        <time>2021-02-21T15:22:12.370Z</time>
      </trkpt>
      <trkpt lat="45.66463" lon="5.71768">
        <ele>580</ele>
        <time>2021-02-21T15:22:22.312Z</time>
      </trkpt>
      <trkpt lat="45.66469" lon="5.71775">
        <ele>580</ele>
        <time>2021-02-21T15:22:30.337Z</time>
      </trkpt>
      <trkpt lat="45.66475" lon="5.71784">
        <ele>580</ele>
        <time>2021-02-21T15:22:45.342Z</time>
      </trkpt>
      <trkpt lat="45.66483" lon="5.71791">
        <ele>580</ele>
        <time>2021-02-21T15:23:19.333Z</time>
      </trkpt>
      <trkpt lat="45.66493" lon="5.71788">
        <ele>581</ele>
        <time>2021-02-21T15:23:24.353Z</time>
      </trkpt>
      <trkpt lat="45.66499" lon="5.71789">
        <ele>581</ele>
        <time>2021-02-21T15:23:29.362Z</time>
      </trkpt>
      <trkpt lat="45.66515" lon="5.71788">
        <ele>580</ele>
        <time>2021-02-21T15:23:33.397Z</time>
      </trkpt>
      <trkpt lat="45.66529" lon="5.71784">
        <ele>580</ele>
        <time>2021-02-21T15:23:38.345Z</time>
      </trkpt>
      <trkpt lat="45.66533" lon="5.71782">
        <ele>580</ele>
        <time>2021-02-21T15:23:42.356Z</time>
      </trkpt>
      <trkpt lat="45.6655" lon="5.7178">
        <ele>578</ele>
        <time>2021-02-21T15:23:47.351Z</time>
      </trkpt>
      <trkpt lat="45.6656" lon="5.71779">
        <ele>578</ele>
        <time>2021-02-21T15:23:57.353Z</time>
      </trkpt>
      <trkpt lat="45.66569" lon="5.71781">
        <ele>578</ele>
        <time>2021-02-21T15:24:06.354Z</time>
      </trkpt>
      <trkpt lat="45.66586" lon="5.7179">
        <ele>577</ele>
        <time>2021-02-21T15:24:16.359Z</time>
      </trkpt>
      <trkpt lat="45.66601" lon="5.71795">
        <ele>573</ele>
        <time>2021-02-21T15:24:21.347Z</time>
      </trkpt>
      <trkpt lat="45.66619" lon="5.718">
        <ele>573</ele>
        <time>2021-02-21T15:24:26.378Z</time>
      </trkpt>
      <trkpt lat="45.66639" lon="5.71806">
        <ele>571</ele>
        <time>2021-02-21T15:24:31.334Z</time>
      </trkpt>
      <trkpt lat="45.66656" lon="5.71808">
        <ele>570</ele>
        <time>2021-02-21T15:24:36.404Z</time>
      </trkpt>
      <trkpt lat="45.66672" lon="5.71817">
        <ele>570</ele>
        <time>2021-02-21T15:24:41.360Z</time>
      </trkpt>
      <trkpt lat="45.66681" lon="5.7183">
        <ele>567</ele>
        <time>2021-02-21T15:24:46.355Z</time>
      </trkpt>
      <trkpt lat="45.66687" lon="5.71832">
        <ele>567</ele>
        <time>2021-02-21T15:24:51.346Z</time>
      </trkpt>
      <trkpt lat="45.66694" lon="5.71824">
        <ele>567</ele>
        <time>2021-02-21T15:24:56.354Z</time>
      </trkpt>
      <trkpt lat="45.66698" lon="5.71815">
        <ele>569</ele>
        <time>2021-02-21T15:25:01.345Z</time>
      </trkpt>
      <trkpt lat="45.66702" lon="5.71808">
        <ele>569</ele>
        <time>2021-02-21T15:25:06.327Z</time>
      </trkpt>
      <trkpt lat="45.66707" lon="5.71805">
        <ele>569</ele>
        <time>2021-02-21T15:25:11.355Z</time>
      </trkpt>
      <trkpt lat="45.66711" lon="5.71796">
        <ele>566</ele>
        <time>2021-02-21T15:25:16.347Z</time>
      </trkpt>
      <trkpt lat="45.66716" lon="5.71785">
        <ele>569</ele>
        <time>2021-02-21T15:25:21.348Z</time>
      </trkpt>
      <trkpt lat="45.6672" lon="5.71778">
        <ele>569</ele>
        <time>2021-02-21T15:25:25.344Z</time>
      </trkpt>
      <trkpt lat="45.66728" lon="5.7177">
        <ele>569</ele>
        <time>2021-02-21T15:25:30.347Z</time>
      </trkpt>
      <trkpt lat="45.66739" lon="5.71762">
        <ele>574</ele>
        <time>2021-02-21T15:25:34.408Z</time>
      </trkpt>
      <trkpt lat="45.66759" lon="5.71764">
        <ele>571</ele>
        <time>2021-02-21T15:25:39.337Z</time>
      </trkpt>
      <trkpt lat="45.66768" lon="5.71765">
        <ele>572</ele>
        <time>2021-02-21T15:25:43.329Z</time>
      </trkpt>
      <trkpt lat="45.66773" lon="5.71764">
        <ele>572</ele>
        <time>2021-02-21T15:25:48.355Z</time>
      </trkpt>
      <trkpt lat="45.66782" lon="5.7177">
        <ele>572</ele>
        <time>2021-02-21T15:25:53.327Z</time>
      </trkpt>
      <trkpt lat="45.66788" lon="5.71779">
        <ele>572</ele>
        <time>2021-02-21T15:25:57.359Z</time>
      </trkpt>
      <trkpt lat="45.66794" lon="5.71785">
        <ele>574</ele>
        <time>2021-02-21T15:26:02.315Z</time>
      </trkpt>
      <trkpt lat="45.66797" lon="5.71789">
        <ele>574</ele>
        <time>2021-02-21T15:26:06.348Z</time>
      </trkpt>
      <trkpt lat="45.66803" lon="5.71793">
        <ele>570</ele>
        <time>2021-02-21T15:26:11.336Z</time>
      </trkpt>
      <trkpt lat="45.6681" lon="5.71798">
        <ele>570</ele>
        <time>2021-02-21T15:26:16.330Z</time>
      </trkpt>
      <trkpt lat="45.66819" lon="5.71799">
        <ele>570</ele>
        <time>2021-02-21T15:26:20.349Z</time>
      </trkpt>
      <trkpt lat="45.66829" lon="5.71807">
        <ele>575</ele>
        <time>2021-02-21T15:26:25.329Z</time>
      </trkpt>
      <trkpt lat="45.66836" lon="5.71808">
        <ele>575</ele>
        <time>2021-02-21T15:26:30.337Z</time>
      </trkpt>
      <trkpt lat="45.66841" lon="5.71811">
        <ele>575</ele>
        <time>2021-02-21T15:26:35.347Z</time>
      </trkpt>
      <trkpt lat="45.66849" lon="5.71813">
        <ele>578</ele>
        <time>2021-02-21T15:26:40.346Z</time>
      </trkpt>
      <trkpt lat="45.66853" lon="5.71812">
        <ele>578</ele>
        <time>2021-02-21T15:26:45.367Z</time>
      </trkpt>
      <trkpt lat="45.66858" lon="5.71812">
        <ele>578</ele>
        <time>2021-02-21T15:26:49.369Z</time>
      </trkpt>
      <trkpt lat="45.66865" lon="5.71818">
        <ele>578</ele>
        <time>2021-02-21T15:26:54.367Z</time>
      </trkpt>
      <trkpt lat="45.66872" lon="5.71822">
        <ele>576</ele>
        <time>2021-02-21T15:26:59.354Z</time>
      </trkpt>
      <trkpt lat="45.66878" lon="5.71825">
        <ele>577</ele>
        <time>2021-02-21T15:27:03.363Z</time>
      </trkpt>
      <trkpt lat="45.66884" lon="5.71828">
        <ele>577</ele>
        <time>2021-02-21T15:27:08.331Z</time>
      </trkpt>
      <trkpt lat="45.66891" lon="5.71834">
        <ele>577</ele>
        <time>2021-02-21T15:27:13.304Z</time>
      </trkpt>
      <trkpt lat="45.66896" lon="5.71834">
        <ele>577</ele>
        <time>2021-02-21T15:27:17.345Z</time>
      </trkpt>
      <trkpt lat="45.66899" lon="5.71831">
        <ele>577</ele>
        <time>2021-02-21T15:27:22.358Z</time>
      </trkpt>
      <trkpt lat="45.66907" lon="5.71826">
        <ele>574</ele>
        <time>2021-02-21T15:27:27.345Z</time>
      </trkpt>
      <trkpt lat="45.66912" lon="5.71825">
        <ele>574</ele>
        <time>2021-02-21T15:27:31.345Z</time>
      </trkpt>
      <trkpt lat="45.66918" lon="5.71825">
        <ele>574</ele>
        <time>2021-02-21T15:27:36.325Z</time>
      </trkpt>
      <trkpt lat="45.66921" lon="5.71825">
        <ele>574</ele>
        <time>2021-02-21T15:27:40.334Z</time>
      </trkpt>
      <trkpt lat="45.66928" lon="5.71821">
        <ele>574</ele>
        <time>2021-02-21T15:27:45.346Z</time>
      </trkpt>
      <trkpt lat="45.66934" lon="5.71818">
        <ele>571</ele>
        <time>2021-02-21T15:27:50.359Z</time>
      </trkpt>
      <trkpt lat="45.66944" lon="5.71813">
        <ele>571</ele>
        <time>2021-02-21T15:27:55.343Z</time>
      </trkpt>
      <trkpt lat="45.6696" lon="5.71814">
        <ele>568</ele>
        <time>2021-02-21T15:28:10.356Z</time>
      </trkpt>
      <trkpt lat="45.66962" lon="5.71817">
        <ele>568</ele>
        <time>2021-02-21T15:28:15.337Z</time>
      </trkpt>
      <trkpt lat="45.66964" lon="5.71819">
        <ele>568</ele>
        <time>2021-02-21T15:28:20.312Z</time>
      </trkpt>
      <trkpt lat="45.66965" lon="5.71815">
        <ele>568</ele>
        <time>2021-02-21T15:28:25.307Z</time>
      </trkpt>
      <trkpt lat="45.66969" lon="5.71811">
        <ele>568</ele>
        <time>2021-02-21T15:28:29.301Z</time>
      </trkpt>
      <trkpt lat="45.66973" lon="5.71805">
        <ele>568</ele>
        <time>2021-02-21T15:28:33.291Z</time>
      </trkpt>
      <trkpt lat="45.66978" lon="5.71797">
        <ele>568</ele>
        <time>2021-02-21T15:28:38.366Z</time>
      </trkpt>
      <trkpt lat="45.66982" lon="5.71792">
        <ele>568</ele>
        <time>2021-02-21T15:28:43.312Z</time>
      </trkpt>
      <trkpt lat="45.66985" lon="5.71785">
        <ele>567</ele>
        <time>2021-02-21T15:28:47.345Z</time>
      </trkpt>
      <trkpt lat="45.66987" lon="5.71778">
        <ele>564</ele>
        <time>2021-02-21T15:28:52.350Z</time>
      </trkpt>
      <trkpt lat="45.66991" lon="5.71766">
        <ele>564</ele>
        <time>2021-02-21T15:28:57.328Z</time>
      </trkpt>
      <trkpt lat="45.66995" lon="5.71756">
        <ele>562</ele>
        <time>2021-02-21T15:29:02.353Z</time>
      </trkpt>
      <trkpt lat="45.66999" lon="5.71749">
        <ele>562</ele>
        <time>2021-02-21T15:29:07.353Z</time>
      </trkpt>
      <trkpt lat="45.67005" lon="5.71746">
        <ele>562</ele>
        <time>2021-02-21T15:29:12.355Z</time>
      </trkpt>
      <trkpt lat="45.67011" lon="5.71744">
        <ele>562</ele>
        <time>2021-02-21T15:29:17.338Z</time>
      </trkpt>
      <trkpt lat="45.67016" lon="5.71739">
        <ele>562</ele>
        <time>2021-02-21T15:29:22.345Z</time>
      </trkpt>
      <trkpt lat="45.67026" lon="5.71736">
        <ele>562</ele>
        <time>2021-02-21T15:29:27.338Z</time>
      </trkpt>
      <trkpt lat="45.67032" lon="5.71733">
        <ele>562</ele>
        <time>2021-02-21T15:29:32.336Z</time>
      </trkpt>
      <trkpt lat="45.6704" lon="5.71733">
        <ele>562</ele>
        <time>2021-02-21T15:29:37.343Z</time>
      </trkpt>
      <trkpt lat="45.67047" lon="5.71738">
        <ele>562</ele>
        <time>2021-02-21T15:29:41.339Z</time>
      </trkpt>
      <trkpt lat="45.67054" lon="5.71742">
        <ele>562</ele>
        <time>2021-02-21T15:29:46.354Z</time>
      </trkpt>
      <trkpt lat="45.6706" lon="5.71746">
        <ele>562</ele>
        <time>2021-02-21T15:29:50.361Z</time>
      </trkpt>
      <trkpt lat="45.67067" lon="5.71745">
        <ele>562</ele>
        <time>2021-02-21T15:29:55.358Z</time>
      </trkpt>
      <trkpt lat="45.67074" lon="5.71745">
        <ele>559</ele>
        <time>2021-02-21T15:30:00.312Z</time>
      </trkpt>
      <trkpt lat="45.67082" lon="5.71752">
        <ele>559</ele>
        <time>2021-02-21T15:30:04.350Z</time>
      </trkpt>
      <trkpt lat="45.67084" lon="5.71753">
        <ele>559</ele>
        <time>2021-02-21T15:30:09.323Z</time>
      </trkpt>
      <trkpt lat="45.67087" lon="5.71751">
        <ele>559</ele>
        <time>2021-02-21T15:30:14.329Z</time>
      </trkpt>
      <trkpt lat="45.67093" lon="5.71749">
        <ele>559</ele>
        <time>2021-02-21T15:30:19.332Z</time>
      </trkpt>
      <trkpt lat="45.67095" lon="5.71748">
        <ele>559</ele>
        <time>2021-02-21T15:30:23.340Z</time>
      </trkpt>
      <trkpt lat="45.67095" lon="5.71747">
        <ele>559</ele>
        <time>2021-02-21T15:30:51.340Z</time>
      </trkpt>
      <trkpt lat="45.67097" lon="5.71747">
        <ele>559</ele>
        <time>2021-02-21T15:30:55.341Z</time>
      </trkpt>
      <trkpt lat="45.67101" lon="5.71748">
        <ele>555</ele>
        <time>2021-02-21T15:31:00.324Z</time>
      </trkpt>
      <trkpt lat="45.67102" lon="5.71749">
        <ele>555</ele>
        <time>2021-02-21T15:31:05.310Z</time>
      </trkpt>
      <trkpt lat="45.67104" lon="5.71748">
        <ele>555</ele>
        <time>2021-02-21T15:31:09.367Z</time>
      </trkpt>
      <trkpt lat="45.67108" lon="5.71748">
        <ele>555</ele>
        <time>2021-02-21T15:31:13.343Z</time>
      </trkpt>
      <trkpt lat="45.67111" lon="5.7175">
        <ele>555</ele>
        <time>2021-02-21T15:31:17.333Z</time>
      </trkpt>
      <trkpt lat="45.67112" lon="5.71752">
        <ele>555</ele>
        <time>2021-02-21T15:31:22.327Z</time>
      </trkpt>
      <trkpt lat="45.67116" lon="5.71755">
        <ele>555</ele>
        <time>2021-02-21T15:31:27.328Z</time>
      </trkpt>
      <trkpt lat="45.6712" lon="5.71757">
        <ele>555</ele>
        <time>2021-02-21T15:31:31.590Z</time>
      </trkpt>
      <trkpt lat="45.67124" lon="5.71759">
        <ele>555</ele>
        <time>2021-02-21T15:31:36.365Z</time>
      </trkpt>
      <trkpt lat="45.67134" lon="5.71757">
        <ele>550</ele>
        <time>2021-02-21T15:31:41.359Z</time>
      </trkpt>
      <trkpt lat="45.67142" lon="5.71758">
        <ele>550</ele>
        <time>2021-02-21T15:31:46.354Z</time>
      </trkpt>
      <trkpt lat="45.67152" lon="5.71763">
        <ele>550</ele>
        <time>2021-02-21T15:31:51.338Z</time>
      </trkpt>
      <trkpt lat="45.67157" lon="5.71763">
        <ele>547</ele>
        <time>2021-02-21T15:31:55.347Z</time>
      </trkpt>
      <trkpt lat="45.67164" lon="5.7176">
        <ele>547</ele>
        <time>2021-02-21T15:32:00.366Z</time>
      </trkpt>
      <trkpt lat="45.67169" lon="5.71756">
        <ele>547</ele>
        <time>2021-02-21T15:32:05.357Z</time>
      </trkpt>
      <trkpt lat="45.67178" lon="5.71755">
        <ele>547</ele>
        <time>2021-02-21T15:32:10.352Z</time>
      </trkpt>
      <trkpt lat="45.67185" lon="5.71756">
        <ele>546</ele>
        <time>2021-02-21T15:32:15.349Z</time>
      </trkpt>
      <trkpt lat="45.67193" lon="5.71759">
        <ele>546</ele>
        <time>2021-02-21T15:32:20.352Z</time>
      </trkpt>
      <trkpt lat="45.67201" lon="5.71764">
        <ele>546</ele>
        <time>2021-02-21T15:32:25.343Z</time>
      </trkpt>
      <trkpt lat="45.67206" lon="5.71766">
        <ele>547</ele>
        <time>2021-02-21T15:32:29.355Z</time>
      </trkpt>
      <trkpt lat="45.67212" lon="5.7177">
        <ele>548</ele>
        <time>2021-02-21T15:32:34.340Z</time>
      </trkpt>
      <trkpt lat="45.67216" lon="5.71765">
        <ele>548</ele>
        <time>2021-02-21T15:32:39.361Z</time>
      </trkpt>
      <trkpt lat="45.67218" lon="5.71756">
        <ele>545</ele>
        <time>2021-02-21T15:32:44.340Z</time>
      </trkpt>
      <trkpt lat="45.67222" lon="5.71747">
        <ele>545</ele>
        <time>2021-02-21T15:32:49.353Z</time>
      </trkpt>
      <trkpt lat="45.67225" lon="5.71737">
        <ele>545</ele>
        <time>2021-02-21T15:32:54.379Z</time>
      </trkpt>
      <trkpt lat="45.67229" lon="5.71726">
        <ele>543</ele>
        <time>2021-02-21T15:32:59.349Z</time>
      </trkpt>
      <trkpt lat="45.67232" lon="5.7172">
        <ele>543</ele>
        <time>2021-02-21T15:33:04.324Z</time>
      </trkpt>
      <trkpt lat="45.67236" lon="5.71716">
        <ele>542</ele>
        <time>2021-02-21T15:33:08.338Z</time>
      </trkpt>
      <trkpt lat="45.67244" lon="5.71713">
        <ele>542</ele>
        <time>2021-02-21T15:33:13.353Z</time>
      </trkpt>
      <trkpt lat="45.67251" lon="5.7171">
        <ele>542</ele>
        <time>2021-02-21T15:33:18.345Z</time>
      </trkpt>
      <trkpt lat="45.67253" lon="5.71706">
        <ele>540</ele>
        <time>2021-02-21T15:33:23.359Z</time>
      </trkpt>
      <trkpt lat="45.67254" lon="5.71697">
        <ele>540</ele>
        <time>2021-02-21T15:33:47.336Z</time>
      </trkpt>
      <trkpt lat="45.67253" lon="5.71694">
        <ele>540</ele>
        <time>2021-02-21T15:33:52.340Z</time>
      </trkpt>
      <trkpt lat="45.67252" lon="5.71692">
        <ele>540</ele>
        <time>2021-02-21T15:33:57.328Z</time>
      </trkpt>
      <trkpt lat="45.67253" lon="5.71686">
        <ele>540</ele>
        <time>2021-02-21T15:34:01.351Z</time>
      </trkpt>
      <trkpt lat="45.67252" lon="5.71683">
        <ele>540</ele>
        <time>2021-02-21T15:34:05.342Z</time>
      </trkpt>
      <trkpt lat="45.67254" lon="5.71678">
        <ele>539</ele>
        <time>2021-02-21T15:34:25.339Z</time>
      </trkpt>
      <trkpt lat="45.67253" lon="5.71678">
        <ele>539</ele>
        <time>2021-02-21T15:34:30.385Z</time>
      </trkpt>
      <trkpt lat="45.67253" lon="5.71672">
        <ele>539</ele>
        <time>2021-02-21T15:34:35.378Z</time>
      </trkpt>
      <trkpt lat="45.67253" lon="5.71668">
        <ele>539</ele>
        <time>2021-02-21T15:34:40.346Z</time>
      </trkpt>
      <trkpt lat="45.67253" lon="5.71661">
        <ele>539</ele>
        <time>2021-02-21T15:34:45.347Z</time>
      </trkpt>
      <trkpt lat="45.67254" lon="5.7166">
        <ele>539</ele>
        <time>2021-02-21T15:35:09.327Z</time>
      </trkpt>
      <trkpt lat="45.6725" lon="5.7166">
        <ele>539</ele>
        <time>2021-02-21T15:35:13.378Z</time>
      </trkpt>
      <trkpt lat="45.67226" lon="5.71668">
        <ele>540</ele>
        <time>2021-02-21T15:35:18.328Z</time>
      </trkpt>
      <trkpt lat="45.67202" lon="5.71681">
        <ele>546</ele>
        <time>2021-02-21T15:35:23.340Z</time>
      </trkpt>
      <trkpt lat="45.67185" lon="5.71674">
        <ele>544</ele>
        <time>2021-02-21T15:35:27.332Z</time>
      </trkpt>
      <trkpt lat="45.67171" lon="5.71663">
        <ele>545</ele>
        <time>2021-02-21T15:35:31.342Z</time>
      </trkpt>
      <trkpt lat="45.67152" lon="5.71647">
        <ele>545</ele>
        <time>2021-02-21T15:35:36.315Z</time>
      </trkpt>
      <trkpt lat="45.6714" lon="5.71637">
        <ele>545</ele>
        <time>2021-02-21T15:35:40.355Z</time>
      </trkpt>
      <trkpt lat="45.67122" lon="5.71637">
        <ele>549</ele>
        <time>2021-02-21T15:35:45.349Z</time>
      </trkpt>
      <trkpt lat="45.67094" lon="5.71638">
        <ele>555</ele>
        <time>2021-02-21T15:35:50.334Z</time>
      </trkpt>
      <trkpt lat="45.67068" lon="5.71629">
        <ele>561</ele>
        <time>2021-02-21T15:35:54.340Z</time>
      </trkpt>
      <trkpt lat="45.67039" lon="5.71616">
        <ele>561</ele>
        <time>2021-02-21T15:35:59.338Z</time>
      </trkpt>
      <trkpt lat="45.6702" lon="5.71613">
        <ele>561</ele>
        <time>2021-02-21T15:36:04.328Z</time>
      </trkpt>
      <trkpt lat="45.67011" lon="5.71613">
        <ele>563</ele>
        <time>2021-02-21T15:36:09.319Z</time>
      </trkpt>
      <trkpt lat="45.66999" lon="5.71612">
        <ele>563</ele>
        <time>2021-02-21T15:36:31.416Z</time>
      </trkpt>
      <trkpt lat="45.66991" lon="5.71615">
        <ele>563</ele>
        <time>2021-02-21T15:36:36.349Z</time>
      </trkpt>
      <trkpt lat="45.6698" lon="5.71613">
        <ele>567</ele>
        <time>2021-02-21T15:36:40.348Z</time>
      </trkpt>
      <trkpt lat="45.66967" lon="5.71605">
        <ele>567</ele>
        <time>2021-02-21T15:36:45.328Z</time>
      </trkpt>
      <trkpt lat="45.66964" lon="5.71602">
        <ele>567</ele>
        <time>2021-02-21T15:36:49.363Z</time>
      </trkpt>
      <trkpt lat="45.66958" lon="5.71591">
        <ele>564</ele>
        <time>2021-02-21T15:36:54.392Z</time>
      </trkpt>
      <trkpt lat="45.66955" lon="5.71586">
        <ele>564</ele>
        <time>2021-02-21T15:36:59.367Z</time>
      </trkpt>
      <trkpt lat="45.66948" lon="5.71572">
        <ele>564</ele>
        <time>2021-02-21T15:37:04.332Z</time>
      </trkpt>
      <trkpt lat="45.66942" lon="5.71565">
        <ele>557</ele>
        <time>2021-02-21T15:37:09.341Z</time>
      </trkpt>
      <trkpt lat="45.6694" lon="5.71564">
        <ele>557</ele>
        <time>2021-02-21T15:37:14.364Z</time>
      </trkpt>
      <trkpt lat="45.66934" lon="5.71556">
        <ele>557</ele>
        <time>2021-02-21T15:37:23.326Z</time>
      </trkpt>
      <trkpt lat="45.66924" lon="5.71539">
        <ele>553</ele>
        <time>2021-02-21T15:37:33.360Z</time>
      </trkpt>
      <trkpt lat="45.66915" lon="5.71525">
        <ele>553</ele>
        <time>2021-02-21T15:37:38.348Z</time>
      </trkpt>
      <trkpt lat="45.66903" lon="5.71518">
        <ele>553</ele>
        <time>2021-02-21T15:37:43.335Z</time>
      </trkpt>
      <trkpt lat="45.66895" lon="5.71516">
        <ele>556</ele>
        <time>2021-02-21T15:37:48.370Z</time>
      </trkpt>
      <trkpt lat="45.66882" lon="5.71516">
        <ele>556</ele>
        <time>2021-02-21T15:37:53.340Z</time>
      </trkpt>
      <trkpt lat="45.66859" lon="5.7152">
        <ele>558</ele>
        <time>2021-02-21T15:37:58.353Z</time>
      </trkpt>
      <trkpt lat="45.66846" lon="5.71517">
        <ele>564</ele>
        <time>2021-02-21T15:38:03.343Z</time>
      </trkpt>
      <trkpt lat="45.66839" lon="5.71512">
        <ele>558</ele>
        <time>2021-02-21T15:38:08.357Z</time>
      </trkpt>
      <trkpt lat="45.66834" lon="5.71508">
        <ele>558</ele>
        <time>2021-02-21T15:38:13.337Z</time>
      </trkpt>
      <trkpt lat="45.66816" lon="5.715">
        <ele>562</ele>
        <time>2021-02-21T15:38:18.334Z</time>
      </trkpt>
      <trkpt lat="45.66796" lon="5.71495">
        <ele>562</ele>
        <time>2021-02-21T15:38:22.335Z</time>
      </trkpt>
      <trkpt lat="45.66769" lon="5.71478">
        <ele>559</ele>
        <time>2021-02-21T15:38:27.346Z</time>
      </trkpt>
      <trkpt lat="45.66754" lon="5.71459">
        <ele>562</ele>
        <time>2021-02-21T15:38:32.321Z</time>
      </trkpt>
      <trkpt lat="45.66747" lon="5.71452">
        <ele>557</ele>
        <time>2021-02-21T15:38:36.352Z</time>
      </trkpt>
      <trkpt lat="45.66744" lon="5.71443">
        <ele>557</ele>
        <time>2021-02-21T15:38:41.337Z</time>
      </trkpt>
      <trkpt lat="45.6674" lon="5.71438">
        <ele>557</ele>
        <time>2021-02-21T15:38:56.345Z</time>
      </trkpt>
      <trkpt lat="45.66731" lon="5.71442">
        <ele>559</ele>
        <time>2021-02-21T15:39:05.337Z</time>
      </trkpt>
      <trkpt lat="45.66716" lon="5.71456">
        <ele>559</ele>
        <time>2021-02-21T15:39:10.396Z</time>
      </trkpt>
      <trkpt lat="45.66704" lon="5.71464">
        <ele>563</ele>
        <time>2021-02-21T15:39:15.354Z</time>
      </trkpt>
      <trkpt lat="45.66695" lon="5.71471">
        <ele>563</ele>
        <time>2021-02-21T15:39:20.344Z</time>
      </trkpt>
      <trkpt lat="45.66688" lon="5.71477">
        <ele>563</ele>
        <time>2021-02-21T15:39:25.346Z</time>
      </trkpt>
      <trkpt lat="45.66682" lon="5.71482">
        <ele>563</ele>
        <time>2021-02-21T15:39:30.336Z</time>
      </trkpt>
      <trkpt lat="45.66671" lon="5.71484">
        <ele>563</ele>
        <time>2021-02-21T15:39:35.339Z</time>
      </trkpt>
      <trkpt lat="45.66664" lon="5.71488">
        <ele>564</ele>
        <time>2021-02-21T15:39:39.323Z</time>
      </trkpt>
      <trkpt lat="45.66659" lon="5.71494">
        <ele>564</ele>
        <time>2021-02-21T15:39:44.344Z</time>
      </trkpt>
      <trkpt lat="45.66655" lon="5.71504">
        <ele>564</ele>
        <time>2021-02-21T15:39:49.393Z</time>
      </trkpt>
      <trkpt lat="45.66652" lon="5.71514">
        <ele>567</ele>
        <time>2021-02-21T15:39:54.364Z</time>
      </trkpt>
      <trkpt lat="45.66654" lon="5.7152">
        <ele>565</ele>
        <time>2021-02-21T15:39:59.333Z</time>
      </trkpt>
      <trkpt lat="45.66655" lon="5.71534">
        <ele>565</ele>
        <time>2021-02-21T15:40:04.358Z</time>
      </trkpt>
      <trkpt lat="45.66657" lon="5.71552">
        <ele>567</ele>
        <time>2021-02-21T15:40:09.341Z</time>
      </trkpt>
      <trkpt lat="45.66657" lon="5.71555">
        <ele>567</ele>
        <time>2021-02-21T15:40:13.332Z</time>
      </trkpt>
      <trkpt lat="45.66662" lon="5.71576">
        <ele>568</ele>
        <time>2021-02-21T15:40:18.337Z</time>
      </trkpt>
      <trkpt lat="45.66663" lon="5.71584">
        <ele>568</ele>
        <time>2021-02-21T15:40:23.330Z</time>
      </trkpt>
      <trkpt lat="45.66668" lon="5.71592">
        <ele>568</ele>
        <time>2021-02-21T15:40:27.336Z</time>
      </trkpt>
      <trkpt lat="45.6667" lon="5.71593">
        <ele>568</ele>
        <time>2021-02-21T15:40:32.345Z</time>
      </trkpt>
      <trkpt lat="45.66673" lon="5.716">
        <ele>570</ele>
        <time>2021-02-21T15:40:37.387Z</time>
      </trkpt>
      <trkpt lat="45.66677" lon="5.71619">
        <ele>570</ele>
        <time>2021-02-21T15:40:42.343Z</time>
      </trkpt>
      <trkpt lat="45.66678" lon="5.71627">
        <ele>571</ele>
        <time>2021-02-21T15:40:47.341Z</time>
      </trkpt>
      <trkpt lat="45.66677" lon="5.71641">
        <ele>571</ele>
        <time>2021-02-21T15:40:52.331Z</time>
      </trkpt>
      <trkpt lat="45.66673" lon="5.71657">
        <ele>572</ele>
        <time>2021-02-21T15:40:57.338Z</time>
      </trkpt>
      <trkpt lat="45.6667" lon="5.71668">
        <ele>572</ele>
        <time>2021-02-21T15:41:02.358Z</time>
      </trkpt>
      <trkpt lat="45.66669" lon="5.71679">
        <ele>572</ele>
        <time>2021-02-21T15:41:07.352Z</time>
      </trkpt>
      <trkpt lat="45.66669" lon="5.71687">
        <ele>573</ele>
        <time>2021-02-21T15:41:11.325Z</time>
      </trkpt>
      <trkpt lat="45.66666" lon="5.71694">
        <ele>573</ele>
        <time>2021-02-21T15:41:16.321Z</time>
      </trkpt>
      <trkpt lat="45.66658" lon="5.71689">
        <ele>573</ele>
        <time>2021-02-21T15:41:20.357Z</time>
      </trkpt>
      <trkpt lat="45.66651" lon="5.71676">
        <ele>575</ele>
        <time>2021-02-21T15:41:25.343Z</time>
      </trkpt>
      <trkpt lat="45.66644" lon="5.71666">
        <ele>575</ele>
        <time>2021-02-21T15:41:30.374Z</time>
      </trkpt>
      <trkpt lat="45.66639" lon="5.71658">
        <ele>575</ele>
        <time>2021-02-21T15:41:35.316Z</time>
      </trkpt>
      <trkpt lat="45.66635" lon="5.7165">
        <ele>575</ele>
        <time>2021-02-21T15:41:39.360Z</time>
      </trkpt>
      <trkpt lat="45.66623" lon="5.71631">
        <ele>580</ele>
        <time>2021-02-21T15:41:44.334Z</time>
      </trkpt>
      <trkpt lat="45.66607" lon="5.71614">
        <ele>580</ele>
        <time>2021-02-21T15:41:49.336Z</time>
      </trkpt>
      <trkpt lat="45.66596" lon="5.71602">
        <ele>584</ele>
        <time>2021-02-21T15:41:53.351Z</time>
      </trkpt>
      <trkpt lat="45.6658" lon="5.7159">
        <ele>584</ele>
        <time>2021-02-21T15:41:58.373Z</time>
      </trkpt>
      <trkpt lat="45.66563" lon="5.71585">
        <ele>587</ele>
        <time>2021-02-21T15:42:03.356Z</time>
      </trkpt>
      <trkpt lat="45.66544" lon="5.71579">
        <ele>587</ele>
        <time>2021-02-21T15:42:07.371Z</time>
      </trkpt>
      <trkpt lat="45.66519" lon="5.7157">
        <ele>590</ele>
        <time>2021-02-21T15:42:12.368Z</time>
      </trkpt>
      <trkpt lat="45.66498" lon="5.71546">
        <ele>595</ele>
        <time>2021-02-21T15:42:17.333Z</time>
      </trkpt>
      <trkpt lat="45.66483" lon="5.71521">
        <ele>599</ele>
        <time>2021-02-21T15:42:21.340Z</time>
      </trkpt>
      <trkpt lat="45.66463" lon="5.715">
        <ele>598</ele>
        <time>2021-02-21T15:42:26.356Z</time>
      </trkpt>
      <trkpt lat="45.66441" lon="5.71488">
        <ele>600</ele>
        <time>2021-02-21T15:42:31.354Z</time>
      </trkpt>
      <trkpt lat="45.66414" lon="5.71483">
        <ele>599</ele>
        <time>2021-02-21T15:42:36.338Z</time>
      </trkpt>
      <trkpt lat="45.66393" lon="5.71466">
        <ele>597</ele>
        <time>2021-02-21T15:42:41.340Z</time>
      </trkpt>
      <trkpt lat="45.66379" lon="5.7145">
        <ele>599</ele>
        <time>2021-02-21T15:42:46.354Z</time>
      </trkpt>
      <trkpt lat="45.66373" lon="5.71445">
        <ele>600</ele>
        <time>2021-02-21T15:42:50.365Z</time>
      </trkpt>
      <trkpt lat="45.66365" lon="5.71439">
        <ele>600</ele>
        <time>2021-02-21T15:42:55.346Z</time>
      </trkpt>
      <trkpt lat="45.6635" lon="5.71433">
        <ele>600</ele>
        <time>2021-02-21T15:43:00.345Z</time>
      </trkpt>
      <trkpt lat="45.66332" lon="5.71429">
        <ele>604</ele>
        <time>2021-02-21T15:43:05.362Z</time>
      </trkpt>
      <trkpt lat="45.66306" lon="5.71414">
        <ele>606</ele>
        <time>2021-02-21T15:43:10.333Z</time>
      </trkpt>
      <trkpt lat="45.66283" lon="5.71399">
        <ele>610</ele>
        <time>2021-02-21T15:43:15.354Z</time>
      </trkpt>
      <trkpt lat="45.66262" lon="5.71389">
        <ele>614</ele>
        <time>2021-02-21T15:43:20.352Z</time>
      </trkpt>
      <trkpt lat="45.66238" lon="5.71369">
        <ele>614</ele>
        <time>2021-02-21T15:43:25.348Z</time>
      </trkpt>
      <trkpt lat="45.66222" lon="5.71355">
        <ele>620</ele>
        <time>2021-02-21T15:43:29.368Z</time>
      </trkpt>
      <trkpt lat="45.66198" lon="5.71339">
        <ele>624</ele>
        <time>2021-02-21T15:43:34.372Z</time>
      </trkpt>
      <trkpt lat="45.66181" lon="5.71329">
        <ele>624</ele>
        <time>2021-02-21T15:43:39.355Z</time>
      </trkpt>
      <trkpt lat="45.66159" lon="5.7132">
        <ele>627</ele>
        <time>2021-02-21T15:43:44.304Z</time>
      </trkpt>
      <trkpt lat="45.66139" lon="5.71308">
        <ele>627</ele>
        <time>2021-02-21T15:43:48.339Z</time>
      </trkpt>
      <trkpt lat="45.66116" lon="5.713">
        <ele>628</ele>
        <time>2021-02-21T15:43:53.334Z</time>
      </trkpt>
      <trkpt lat="45.66099" lon="5.71294">
        <ele>628</ele>
        <time>2021-02-21T15:43:57.352Z</time>
      </trkpt>
      <trkpt lat="45.66083" lon="5.71287">
        <ele>631</ele>
        <time>2021-02-21T15:44:02.416Z</time>
      </trkpt>
      <trkpt lat="45.66076" lon="5.71282">
        <ele>631</ele>
        <time>2021-02-21T15:44:07.361Z</time>
      </trkpt>
      <trkpt lat="45.66069" lon="5.71281">
        <ele>635</ele>
        <time>2021-02-21T15:44:17.370Z</time>
      </trkpt>
      <trkpt lat="45.66066" lon="5.71285">
        <ele>635</ele>
        <time>2021-02-21T15:44:22.350Z</time>
      </trkpt>
      <trkpt lat="45.6606" lon="5.71289">
        <ele>635</ele>
        <time>2021-02-21T15:44:27.361Z</time>
      </trkpt>
      <trkpt lat="45.66055" lon="5.71292">
        <ele>634</ele>
        <time>2021-02-21T15:44:32.329Z</time>
      </trkpt>
      <trkpt lat="45.66051" lon="5.71295">
        <ele>634</ele>
        <time>2021-02-21T15:44:37.380Z</time>
      </trkpt>
      <trkpt lat="45.66047" lon="5.71302">
        <ele>634</ele>
        <time>2021-02-21T15:44:56.398Z</time>
      </trkpt>
      <trkpt lat="45.66045" lon="5.71309">
        <ele>634</ele>
        <time>2021-02-21T15:45:28.397Z</time>
      </trkpt>
      <trkpt lat="45.66037" lon="5.71323">
        <ele>641</ele>
        <time>2021-02-21T15:45:38.347Z</time>
      </trkpt>
      <trkpt lat="45.66034" lon="5.71329">
        <ele>641</ele>
        <time>2021-02-21T15:45:42.377Z</time>
      </trkpt>
      <trkpt lat="45.66029" lon="5.71338">
        <ele>641</ele>
        <time>2021-02-21T15:45:51.335Z</time>
      </trkpt>
      <trkpt lat="45.66026" lon="5.71349">
        <ele>641</ele>
        <time>2021-02-21T15:45:56.383Z</time>
      </trkpt>
      <trkpt lat="45.66021" lon="5.71372">
        <ele>641</ele>
        <time>2021-02-21T15:46:01.319Z</time>
      </trkpt>
      <trkpt lat="45.66018" lon="5.71378">
        <ele>642</ele>
        <time>2021-02-21T15:46:06.356Z</time>
      </trkpt>
      <trkpt lat="45.66015" lon="5.71387">
        <ele>642</ele>
        <time>2021-02-21T15:46:11.352Z</time>
      </trkpt>
      <trkpt lat="45.66015" lon="5.71396">
        <ele>642</ele>
        <time>2021-02-21T15:46:16.290Z</time>
      </trkpt>
      <trkpt lat="45.66013" lon="5.71408">
        <ele>644</ele>
        <time>2021-02-21T15:46:20.394Z</time>
      </trkpt>
      <trkpt lat="45.66008" lon="5.71423">
        <ele>644</ele>
        <time>2021-02-21T15:46:25.342Z</time>
      </trkpt>
      <trkpt lat="45.66005" lon="5.71428">
        <ele>644</ele>
        <time>2021-02-21T15:46:30.342Z</time>
      </trkpt>
      <trkpt lat="45.65995" lon="5.71427">
        <ele>644</ele>
        <time>2021-02-21T15:46:35.337Z</time>
      </trkpt>
      <trkpt lat="45.65987" lon="5.71417">
        <ele>644</ele>
        <time>2021-02-21T15:46:40.345Z</time>
      </trkpt>
      <trkpt lat="45.65981" lon="5.7139">
        <ele>645</ele>
        <time>2021-02-21T15:46:45.327Z</time>
      </trkpt>
      <trkpt lat="45.65967" lon="5.7135">
        <ele>645</ele>
        <time>2021-02-21T15:46:50.326Z</time>
      </trkpt>
      <trkpt lat="45.65951" lon="5.71318">
        <ele>650</ele>
        <time>2021-02-21T15:46:55.381Z</time>
      </trkpt>
      <trkpt lat="45.65931" lon="5.71285">
        <ele>650</ele>
        <time>2021-02-21T15:47:00.324Z</time>
      </trkpt>
      <trkpt lat="45.65912" lon="5.71254">
        <ele>650</ele>
        <time>2021-02-21T15:47:04.361Z</time>
      </trkpt>
      <trkpt lat="45.65893" lon="5.71223">
        <ele>652</ele>
        <time>2021-02-21T15:47:09.335Z</time>
      </trkpt>
      <trkpt lat="45.6588" lon="5.71193">
        <ele>649</ele>
        <time>2021-02-21T15:47:13.392Z</time>
      </trkpt>
      <trkpt lat="45.65866" lon="5.71171">
        <ele>653</ele>
        <time>2021-02-21T15:47:18.347Z</time>
      </trkpt>
      <trkpt lat="45.65862" lon="5.71165">
        <ele>653</ele>
        <time>2021-02-21T15:47:23.334Z</time>
      </trkpt>
      <trkpt lat="45.65858" lon="5.7117">
        <ele>653</ele>
        <time>2021-02-21T15:47:28.340Z</time>
      </trkpt>
      <trkpt lat="45.65856" lon="5.71173">
        <ele>653</ele>
        <time>2021-02-21T15:47:33.335Z</time>
      </trkpt>
      <trkpt lat="45.65852" lon="5.71179">
        <ele>653</ele>
        <time>2021-02-21T15:47:42.352Z</time>
      </trkpt>
      <trkpt lat="45.65847" lon="5.71182">
        <ele>659</ele>
        <time>2021-02-21T15:47:47.338Z</time>
      </trkpt>
      <trkpt lat="45.6584" lon="5.71184">
        <ele>659</ele>
        <time>2021-02-21T15:47:56.355Z</time>
      </trkpt>
      <trkpt lat="45.65833" lon="5.71189">
        <ele>659</ele>
        <time>2021-02-21T15:48:01.405Z</time>
      </trkpt>
      <trkpt lat="45.65827" lon="5.71198">
        <ele>659</ele>
        <time>2021-02-21T15:48:06.341Z</time>
      </trkpt>
      <trkpt lat="45.65823" lon="5.7122">
        <ele>661</ele>
        <time>2021-02-21T15:48:15.344Z</time>
      </trkpt>
      <trkpt lat="45.65822" lon="5.71233">
        <ele>661</ele>
        <time>2021-02-21T15:48:20.365Z</time>
      </trkpt>
      <trkpt lat="45.6582" lon="5.71238">
        <ele>662</ele>
        <time>2021-02-21T15:48:25.385Z</time>
      </trkpt>
      <trkpt lat="45.65818" lon="5.71249">
        <ele>668</ele>
        <time>2021-02-21T15:48:34.365Z</time>
      </trkpt>
      <trkpt lat="45.65818" lon="5.71257">
        <ele>668</ele>
        <time>2021-02-21T15:48:39.312Z</time>
      </trkpt>
      <trkpt lat="45.6582" lon="5.71267">
        <ele>663</ele>
        <time>2021-02-21T15:48:44.304Z</time>
      </trkpt>
      <trkpt lat="45.65824" lon="5.71282">
        <ele>663</ele>
        <time>2021-02-21T15:48:48.346Z</time>
      </trkpt>
      <trkpt lat="45.65824" lon="5.71284">
        <ele>663</ele>
        <time>2021-02-21T15:48:52.343Z</time>
      </trkpt>
      <trkpt lat="45.65835" lon="5.71302">
        <ele>666</ele>
        <time>2021-02-21T15:49:02.309Z</time>
      </trkpt>
      <trkpt lat="45.65839" lon="5.71306">
        <ele>666</ele>
        <time>2021-02-21T15:49:06.338Z</time>
      </trkpt>
      <trkpt lat="45.65846" lon="5.71314">
        <ele>666</ele>
        <time>2021-02-21T15:49:11.350Z</time>
      </trkpt>
      <trkpt lat="45.65851" lon="5.71325">
        <ele>664</ele>
        <time>2021-02-21T15:49:16.366Z</time>
      </trkpt>
      <trkpt lat="45.65856" lon="5.71335">
        <ele>664</ele>
        <time>2021-02-21T15:49:21.337Z</time>
      </trkpt>
      <trkpt lat="45.65862" lon="5.71343">
        <ele>664</ele>
        <time>2021-02-21T15:49:26.356Z</time>
      </trkpt>
      <trkpt lat="45.65864" lon="5.71353">
        <ele>668</ele>
        <time>2021-02-21T15:49:31.363Z</time>
      </trkpt>
      <trkpt lat="45.65868" lon="5.71361">
        <ele>668</ele>
        <time>2021-02-21T15:49:36.342Z</time>
      </trkpt>
      <trkpt lat="45.65871" lon="5.71367">
        <ele>668</ele>
        <time>2021-02-21T15:49:41.347Z</time>
      </trkpt>
      <trkpt lat="45.65871" lon="5.71369">
        <ele>668</ele>
        <time>2021-02-21T15:49:45.334Z</time>
      </trkpt>
      <trkpt lat="45.65876" lon="5.71378">
        <ele>669</ele>
        <time>2021-02-21T15:49:55.344Z</time>
      </trkpt>
      <trkpt lat="45.65876" lon="5.71379">
        <ele>669</ele>
        <time>2021-02-21T15:50:00.344Z</time>
      </trkpt>
      <trkpt lat="45.65882" lon="5.71381">
        <ele>669</ele>
        <time>2021-02-21T15:50:10.368Z</time>
      </trkpt>
      <trkpt lat="45.65889" lon="5.71384">
        <ele>669</ele>
        <time>2021-02-21T15:50:14.372Z</time>
      </trkpt>
      <trkpt lat="45.65894" lon="5.71389">
        <ele>669</ele>
        <time>2021-02-21T15:50:19.417Z</time>
      </trkpt>
      <trkpt lat="45.65901" lon="5.71404">
        <ele>673</ele>
        <time>2021-02-21T15:50:24.356Z</time>
      </trkpt>
      <trkpt lat="45.65905" lon="5.71413">
        <ele>667</ele>
        <time>2021-02-21T15:50:29.340Z</time>
      </trkpt>
      <trkpt lat="45.65909" lon="5.71423">
        <ele>667</ele>
        <time>2021-02-21T15:50:34.361Z</time>
      </trkpt>
      <trkpt lat="45.65909" lon="5.71429">
        <ele>667</ele>
        <time>2021-02-21T15:50:39.334Z</time>
      </trkpt>
      <trkpt lat="45.65903" lon="5.71438">
        <ele>670</ele>
        <time>2021-02-21T15:50:44.327Z</time>
      </trkpt>
      <trkpt lat="45.65897" lon="5.71444">
        <ele>674</ele>
        <time>2021-02-21T15:50:54.332Z</time>
      </trkpt>
      <trkpt lat="45.65894" lon="5.71447">
        <ele>674</ele>
        <time>2021-02-21T15:50:58.346Z</time>
      </trkpt>
      <trkpt lat="45.65887" lon="5.71455">
        <ele>674</ele>
        <time>2021-02-21T15:51:03.346Z</time>
      </trkpt>
      <trkpt lat="45.65884" lon="5.71465">
        <ele>676</ele>
        <time>2021-02-21T15:51:08.352Z</time>
      </trkpt>
      <trkpt lat="45.65883" lon="5.71476">
        <ele>676</ele>
        <time>2021-02-21T15:51:13.347Z</time>
      </trkpt>
      <trkpt lat="45.65884" lon="5.71488">
        <ele>679</ele>
        <time>2021-02-21T15:51:17.343Z</time>
      </trkpt>
      <trkpt lat="45.65886" lon="5.71502">
        <ele>679</ele>
        <time>2021-02-21T15:51:22.329Z</time>
      </trkpt>
      <trkpt lat="45.65888" lon="5.71512">
        <ele>679</ele>
        <time>2021-02-21T15:51:26.366Z</time>
      </trkpt>
      <trkpt lat="45.65892" lon="5.7152">
        <ele>683</ele>
        <time>2021-02-21T15:51:31.368Z</time>
      </trkpt>
      <trkpt lat="45.65901" lon="5.71528">
        <ele>683</ele>
        <time>2021-02-21T15:51:45.346Z</time>
      </trkpt>
      <trkpt lat="45.65907" lon="5.71535">
        <ele>676</ele>
        <time>2021-02-21T15:51:54.329Z</time>
      </trkpt>
      <trkpt lat="45.65912" lon="5.71548">
        <ele>680</ele>
        <time>2021-02-21T15:51:58.407Z</time>
      </trkpt>
      <trkpt lat="45.65908" lon="5.71554">
        <ele>680</ele>
        <time>2021-02-21T15:52:03.347Z</time>
      </trkpt>
      <trkpt lat="45.65885" lon="5.7154">
        <ele>683</ele>
        <time>2021-02-21T15:52:08.362Z</time>
      </trkpt>
      <trkpt lat="45.65866" lon="5.71533">
        <ele>689</ele>
        <time>2021-02-21T15:52:13.350Z</time>
      </trkpt>
      <trkpt lat="45.65843" lon="5.71513">
        <ele>690</ele>
        <time>2021-02-21T15:52:18.336Z</time>
      </trkpt>
      <trkpt lat="45.65816" lon="5.71484">
        <ele>693</ele>
        <time>2021-02-21T15:52:23.344Z</time>
      </trkpt>
      <trkpt lat="45.65797" lon="5.71452">
        <ele>688</ele>
        <time>2021-02-21T15:52:27.370Z</time>
      </trkpt>
      <trkpt lat="45.65768" lon="5.71423">
        <ele>692</ele>
        <time>2021-02-21T15:52:32.327Z</time>
      </trkpt>
      <trkpt lat="45.65745" lon="5.71397">
        <ele>695</ele>
        <time>2021-02-21T15:52:37.342Z</time>
      </trkpt>
      <trkpt lat="45.65727" lon="5.71374">
        <ele>697</ele>
        <time>2021-02-21T15:52:42.329Z</time>
      </trkpt>
      <trkpt lat="45.65712" lon="5.71356">
        <ele>697</ele>
        <time>2021-02-21T15:52:47.326Z</time>
      </trkpt>
      <trkpt lat="45.65689" lon="5.71329">
        <ele>702</ele>
        <time>2021-02-21T15:52:51.333Z</time>
      </trkpt>
      <trkpt lat="45.65661" lon="5.71296">
        <ele>705</ele>
        <time>2021-02-21T15:52:56.371Z</time>
      </trkpt>
      <trkpt lat="45.65638" lon="5.71267">
        <ele>709</ele>
        <time>2021-02-21T15:53:01.328Z</time>
      </trkpt>
      <trkpt lat="45.65612" lon="5.71245">
        <ele>714</ele>
        <time>2021-02-21T15:53:06.383Z</time>
      </trkpt>
      <trkpt lat="45.65592" lon="5.71239">
        <ele>721</ele>
        <time>2021-02-21T15:53:11.353Z</time>
      </trkpt>
      <trkpt lat="45.6559" lon="5.7124">
        <ele>721</ele>
        <time>2021-02-21T15:53:16.338Z</time>
      </trkpt>
      <trkpt lat="45.65583" lon="5.71242">
        <ele>721</ele>
        <time>2021-02-21T15:53:21.353Z</time>
      </trkpt>
      <trkpt lat="45.65576" lon="5.71246">
        <ele>721</ele>
        <time>2021-02-21T15:53:31.333Z</time>
      </trkpt>
      <trkpt lat="45.65571" lon="5.71247">
        <ele>721</ele>
        <time>2021-02-21T15:53:36.328Z</time>
      </trkpt>
      <trkpt lat="45.65562" lon="5.71251">
        <ele>727</ele>
        <time>2021-02-21T15:53:46.357Z</time>
      </trkpt>
      <trkpt lat="45.65559" lon="5.71254">
        <ele>727</ele>
        <time>2021-02-21T15:53:51.364Z</time>
      </trkpt>
      <trkpt lat="45.65549" lon="5.71256">
        <ele>727</ele>
        <time>2021-02-21T15:53:56.344Z</time>
      </trkpt>
      <trkpt lat="45.65544" lon="5.71254">
        <ele>727</ele>
        <time>2021-02-21T15:54:05.355Z</time>
      </trkpt>
      <trkpt lat="45.65533" lon="5.71253">
        <ele>733</ele>
        <time>2021-02-21T15:54:09.346Z</time>
      </trkpt>
      <trkpt lat="45.65524" lon="5.71254">
        <ele>733</ele>
        <time>2021-02-21T15:54:14.332Z</time>
      </trkpt>
      <trkpt lat="45.65518" lon="5.71256">
        <ele>733</ele>
        <time>2021-02-21T15:54:19.317Z</time>
      </trkpt>
      <trkpt lat="45.65512" lon="5.71258">
        <ele>741</ele>
        <time>2021-02-21T15:54:39.341Z</time>
      </trkpt>
      <trkpt lat="45.65509" lon="5.71259">
        <ele>741</ele>
        <time>2021-02-21T15:54:44.354Z</time>
      </trkpt>
      <trkpt lat="45.65502" lon="5.71265">
        <ele>746</ele>
        <time>2021-02-21T15:54:48.368Z</time>
      </trkpt>
      <trkpt lat="45.65494" lon="5.7127">
        <ele>746</ele>
        <time>2021-02-21T15:54:57.346Z</time>
      </trkpt>
      <trkpt lat="45.65486" lon="5.71268">
        <ele>746</ele>
        <time>2021-02-21T15:55:10.346Z</time>
      </trkpt>
      <trkpt lat="45.65479" lon="5.71266">
        <ele>751</ele>
        <time>2021-02-21T15:55:15.345Z</time>
      </trkpt>
      <trkpt lat="45.65474" lon="5.71264">
        <ele>751</ele>
        <time>2021-02-21T15:55:20.359Z</time>
      </trkpt>
      <trkpt lat="45.65467" lon="5.71257">
        <ele>748</ele>
        <time>2021-02-21T15:55:39.316Z</time>
      </trkpt>
      <trkpt lat="45.6546" lon="5.7125">
        <ele>748</ele>
        <time>2021-02-21T15:55:53.376Z</time>
      </trkpt>
      <trkpt lat="45.65453" lon="5.71246">
        <ele>753</ele>
        <time>2021-02-21T15:56:03.344Z</time>
      </trkpt>
      <trkpt lat="45.65432" lon="5.71244">
        <ele>753</ele>
        <time>2021-02-21T15:56:12.360Z</time>
      </trkpt>
      <trkpt lat="45.65413" lon="5.71246">
        <ele>757</ele>
        <time>2021-02-21T15:56:17.339Z</time>
      </trkpt>
      <trkpt lat="45.65404" lon="5.71252">
        <ele>757</ele>
        <time>2021-02-21T15:56:22.365Z</time>
      </trkpt>
      <trkpt lat="45.65398" lon="5.71255">
        <ele>759</ele>
        <time>2021-02-21T15:56:27.336Z</time>
      </trkpt>
      <trkpt lat="45.65391" lon="5.71258">
        <ele>759</ele>
        <time>2021-02-21T15:56:32.357Z</time>
      </trkpt>
      <trkpt lat="45.65385" lon="5.71258">
        <ele>759</ele>
        <time>2021-02-21T15:56:41.369Z</time>
      </trkpt>
      <trkpt lat="45.65378" lon="5.71256">
        <ele>759</ele>
        <time>2021-02-21T15:56:46.342Z</time>
      </trkpt>
      <trkpt lat="45.65371" lon="5.71256">
        <ele>758</ele>
        <time>2021-02-21T15:56:56.339Z</time>
      </trkpt>
      <trkpt lat="45.65362" lon="5.71254">
        <ele>758</ele>
        <time>2021-02-21T15:57:10.342Z</time>
      </trkpt>
      <trkpt lat="45.65353" lon="5.71255">
        <ele>758</ele>
        <time>2021-02-21T15:57:19.347Z</time>
      </trkpt>
      <trkpt lat="45.65335" lon="5.71261">
        <ele>756</ele>
        <time>2021-02-21T15:57:24.337Z</time>
      </trkpt>
      <trkpt lat="45.6531" lon="5.71271">
        <ele>752</ele>
        <time>2021-02-21T15:57:29.354Z</time>
      </trkpt>
      <trkpt lat="45.65295" lon="5.71279">
        <ele>752</ele>
        <time>2021-02-21T15:57:34.328Z</time>
      </trkpt>
      <trkpt lat="45.65293" lon="5.7128">
        <ele>752</ele>
        <time>2021-02-21T15:57:38.332Z</time>
      </trkpt>
      <trkpt lat="45.65288" lon="5.71284">
        <ele>747</ele>
        <time>2021-02-21T15:57:43.351Z</time>
      </trkpt>
      <trkpt lat="45.6528" lon="5.71289">
        <ele>747</ele>
        <time>2021-02-21T15:57:48.332Z</time>
      </trkpt>
      <trkpt lat="45.65278" lon="5.71291">
        <ele>747</ele>
        <time>2021-02-21T15:57:52.349Z</time>
      </trkpt>
      <trkpt lat="45.65273" lon="5.71296">
        <ele>746</ele>
        <time>2021-02-21T15:58:01.412Z</time>
      </trkpt>
      <trkpt lat="45.65268" lon="5.71298">
        <ele>746</ele>
        <time>2021-02-21T15:58:11.361Z</time>
      </trkpt>
      <trkpt lat="45.65265" lon="5.71301">
        <ele>746</ele>
        <time>2021-02-21T15:58:16.340Z</time>
      </trkpt>
      <trkpt lat="45.65257" lon="5.71302">
        <ele>739</ele>
        <time>2021-02-21T15:58:21.348Z</time>
      </trkpt>
      <trkpt lat="45.65251" lon="5.71301">
        <ele>739</ele>
        <time>2021-02-21T15:58:26.344Z</time>
      </trkpt>
      <trkpt lat="45.65248" lon="5.71299">
        <ele>739</ele>
        <time>2021-02-21T15:58:31.363Z</time>
      </trkpt>
      <trkpt lat="45.65245" lon="5.71298">
        <ele>739</ele>
        <time>2021-02-21T15:58:36.336Z</time>
      </trkpt>
      <trkpt lat="45.65242" lon="5.71296">
        <ele>739</ele>
        <time>2021-02-21T15:58:41.390Z</time>
      </trkpt>
      <trkpt lat="45.65234" lon="5.71296">
        <ele>735</ele>
        <time>2021-02-21T15:58:46.353Z</time>
      </trkpt>
      <trkpt lat="45.65221" lon="5.71307">
        <ele>735</ele>
        <time>2021-02-21T15:58:51.297Z</time>
      </trkpt>
      <trkpt lat="45.6521" lon="5.71318">
        <ele>735</ele>
        <time>2021-02-21T15:58:56.370Z</time>
      </trkpt>
      <trkpt lat="45.65206" lon="5.71325">
        <ele>733</ele>
        <time>2021-02-21T15:59:01.347Z</time>
      </trkpt>
      <trkpt lat="45.65195" lon="5.71323">
        <ele>733</ele>
        <time>2021-02-21T15:59:06.325Z</time>
      </trkpt>
      <trkpt lat="45.65189" lon="5.71318">
        <ele>732</ele>
        <time>2021-02-21T15:59:10.336Z</time>
      </trkpt>
      <trkpt lat="45.65184" lon="5.7131">
        <ele>732</ele>
        <time>2021-02-21T15:59:15.338Z</time>
      </trkpt>
      <trkpt lat="45.6518" lon="5.713">
        <ele>732</ele>
        <time>2021-02-21T15:59:20.338Z</time>
      </trkpt>
      <trkpt lat="45.65179" lon="5.71289">
        <ele>733</ele>
        <time>2021-02-21T15:59:25.345Z</time>
      </trkpt>
      <trkpt lat="45.65176" lon="5.71283">
        <ele>733</ele>
        <time>2021-02-21T15:59:30.327Z</time>
      </trkpt>
      <trkpt lat="45.6517" lon="5.7128">
        <ele>733</ele>
        <time>2021-02-21T15:59:34.342Z</time>
      </trkpt>
      <trkpt lat="45.65164" lon="5.71279">
        <ele>733</ele>
        <time>2021-02-21T15:59:39.343Z</time>
      </trkpt>
      <trkpt lat="45.65158" lon="5.71278">
        <ele>733</ele>
        <time>2021-02-21T15:59:44.334Z</time>
      </trkpt>
      <trkpt lat="45.65152" lon="5.71277">
        <ele>735</ele>
        <time>2021-02-21T15:59:49.351Z</time>
      </trkpt>
      <trkpt lat="45.65144" lon="5.71268">
        <ele>735</ele>
        <time>2021-02-21T15:59:54.358Z</time>
      </trkpt>
      <trkpt lat="45.65137" lon="5.71263">
        <ele>735</ele>
        <time>2021-02-21T15:59:59.302Z</time>
      </trkpt>
      <trkpt lat="45.65132" lon="5.71263">
        <ele>735</ele>
        <time>2021-02-21T16:00:03.332Z</time>
      </trkpt>
      <trkpt lat="45.65126" lon="5.71259">
        <ele>735</ele>
        <time>2021-02-21T16:00:08.350Z</time>
      </trkpt>
      <trkpt lat="45.6512" lon="5.7125">
        <ele>742</ele>
        <time>2021-02-21T16:00:13.355Z</time>
      </trkpt>
      <trkpt lat="45.65114" lon="5.71241">
        <ele>742</ele>
        <time>2021-02-21T16:00:18.340Z</time>
      </trkpt>
      <trkpt lat="45.6511" lon="5.71233">
        <ele>742</ele>
        <time>2021-02-21T16:00:22.370Z</time>
      </trkpt>
      <trkpt lat="45.65105" lon="5.71225">
        <ele>742</ele>
        <time>2021-02-21T16:00:27.322Z</time>
      </trkpt>
      <trkpt lat="45.651" lon="5.71221">
        <ele>742</ele>
        <time>2021-02-21T16:00:31.357Z</time>
      </trkpt>
      <trkpt lat="45.65095" lon="5.71216">
        <ele>749</ele>
        <time>2021-02-21T16:00:36.330Z</time>
      </trkpt>
      <trkpt lat="45.65094" lon="5.71209">
        <ele>749</ele>
        <time>2021-02-21T16:00:40.414Z</time>
      </trkpt>
      <trkpt lat="45.65089" lon="5.712">
        <ele>749</ele>
        <time>2021-02-21T16:00:45.331Z</time>
      </trkpt>
      <trkpt lat="45.65087" lon="5.71196">
        <ele>749</ele>
        <time>2021-02-21T16:00:50.327Z</time>
      </trkpt>
      <trkpt lat="45.65082" lon="5.71197">
        <ele>749</ele>
        <time>2021-02-21T16:00:55.336Z</time>
      </trkpt>
      <trkpt lat="45.65078" lon="5.71199">
        <ele>749</ele>
        <time>2021-02-21T16:01:00.343Z</time>
      </trkpt>
      <trkpt lat="45.65074" lon="5.71201">
        <ele>749</ele>
        <time>2021-02-21T16:01:05.343Z</time>
      </trkpt>
      <trkpt lat="45.65072" lon="5.71202">
        <ele>749</ele>
        <time>2021-02-21T16:01:10.333Z</time>
      </trkpt>
      <trkpt lat="45.65072" lon="5.71202">
        <ele>749</ele>
        <time>2021-02-21T16:01:15.396Z</time>
      </trkpt>
      <trkpt lat="45.65072" lon="5.71202">
        <ele>749</ele>
        <time>2021-02-21T16:01:20.334Z</time>
      </trkpt>
      <trkpt lat="45.65067" lon="5.71205">
        <ele>755</ele>
        <time>2021-02-21T16:01:25.334Z</time>
      </trkpt>
      <trkpt lat="45.65059" lon="5.71206">
        <ele>755</ele>
        <time>2021-02-21T16:01:30.336Z</time>
      </trkpt>
      <trkpt lat="45.65054" lon="5.71208">
        <ele>755</ele>
        <time>2021-02-21T16:01:34.338Z</time>
      </trkpt>
      <trkpt lat="45.65048" lon="5.71209">
        <ele>753</ele>
        <time>2021-02-21T16:01:39.348Z</time>
      </trkpt>
      <trkpt lat="45.65043" lon="5.71208">
        <ele>753</ele>
        <time>2021-02-21T16:01:44.355Z</time>
      </trkpt>
      <trkpt lat="45.65037" lon="5.7121">
        <ele>761</ele>
        <time>2021-02-21T16:01:49.333Z</time>
      </trkpt>
      <trkpt lat="45.65034" lon="5.7121">
        <ele>761</ele>
        <time>2021-02-21T16:01:53.351Z</time>
      </trkpt>
      <trkpt lat="45.6503" lon="5.71209">
        <ele>761</ele>
        <time>2021-02-21T16:01:58.343Z</time>
      </trkpt>
      <trkpt lat="45.65023" lon="5.71206">
        <ele>761</ele>
        <time>2021-02-21T16:02:03.337Z</time>
      </trkpt>
      <trkpt lat="45.65017" lon="5.71206">
        <ele>761</ele>
        <time>2021-02-21T16:02:08.343Z</time>
      </trkpt>
      <trkpt lat="45.65012" lon="5.71206">
        <ele>767</ele>
        <time>2021-02-21T16:02:12.408Z</time>
      </trkpt>
      <trkpt lat="45.65005" lon="5.71206">
        <ele>767</ele>
        <time>2021-02-21T16:02:17.348Z</time>
      </trkpt>
      <trkpt lat="45.64998" lon="5.71209">
        <ele>768</ele>
        <time>2021-02-21T16:02:22.357Z</time>
      </trkpt>
      <trkpt lat="45.64992" lon="5.71212">
        <ele>768</ele>
        <time>2021-02-21T16:02:27.341Z</time>
      </trkpt>
      <trkpt lat="45.64984" lon="5.71213">
        <ele>770</ele>
        <time>2021-02-21T16:02:32.321Z</time>
      </trkpt>
      <trkpt lat="45.64979" lon="5.71213">
        <ele>770</ele>
        <time>2021-02-21T16:02:36.346Z</time>
      </trkpt>
      <trkpt lat="45.64975" lon="5.71213">
        <ele>770</ele>
        <time>2021-02-21T16:02:41.306Z</time>
      </trkpt>
      <trkpt lat="45.64969" lon="5.71212">
        <ele>770</ele>
        <time>2021-02-21T16:02:45.394Z</time>
      </trkpt>
      <trkpt lat="45.6496" lon="5.7121">
        <ele>770</ele>
        <time>2021-02-21T16:02:50.351Z</time>
      </trkpt>
      <trkpt lat="45.64954" lon="5.71208">
        <ele>773</ele>
        <time>2021-02-21T16:02:55.345Z</time>
      </trkpt>
      <trkpt lat="45.64947" lon="5.71206">
        <ele>773</ele>
        <time>2021-02-21T16:03:00.297Z</time>
      </trkpt>
      <trkpt lat="45.64941" lon="5.71205">
        <ele>773</ele>
        <time>2021-02-21T16:03:04.327Z</time>
      </trkpt>
      <trkpt lat="45.64937" lon="5.71203">
        <ele>773</ele>
        <time>2021-02-21T16:03:08.387Z</time>
      </trkpt>
      <trkpt lat="45.64931" lon="5.71199">
        <ele>773</ele>
        <time>2021-02-21T16:03:13.357Z</time>
      </trkpt>
      <trkpt lat="45.64925" lon="5.71196">
        <ele>775</ele>
        <time>2021-02-21T16:03:18.346Z</time>
      </trkpt>
      <trkpt lat="45.64924" lon="5.71196">
        <ele>775</ele>
        <time>2021-02-21T16:03:22.368Z</time>
      </trkpt>
      <trkpt lat="45.6492" lon="5.71194">
        <ele>775</ele>
        <time>2021-02-21T16:03:27.337Z</time>
      </trkpt>
      <trkpt lat="45.64915" lon="5.71192">
        <ele>775</ele>
        <time>2021-02-21T16:03:31.348Z</time>
      </trkpt>
      <trkpt lat="45.6491" lon="5.71188">
        <ele>775</ele>
        <time>2021-02-21T16:03:36.335Z</time>
      </trkpt>
      <trkpt lat="45.64902" lon="5.71185">
        <ele>776</ele>
        <time>2021-02-21T16:03:41.324Z</time>
      </trkpt>
      <trkpt lat="45.64893" lon="5.71182">
        <ele>776</ele>
        <time>2021-02-21T16:03:46.336Z</time>
      </trkpt>
      <trkpt lat="45.64884" lon="5.71181">
        <ele>776</ele>
        <time>2021-02-21T16:03:51.340Z</time>
      </trkpt>
      <trkpt lat="45.64876" lon="5.71179">
        <ele>776</ele>
        <time>2021-02-21T16:03:56.341Z</time>
      </trkpt>
      <trkpt lat="45.64871" lon="5.71178">
        <ele>780</ele>
        <time>2021-02-21T16:04:01.354Z</time>
      </trkpt>
      <trkpt lat="45.6487" lon="5.71177">
        <ele>780</ele>
        <time>2021-02-21T16:04:06.353Z</time>
      </trkpt>
      <trkpt lat="45.6487" lon="5.71175">
        <ele>780</ele>
        <time>2021-02-21T16:04:11.343Z</time>
      </trkpt>
      <trkpt lat="45.64862" lon="5.71165">
        <ele>780</ele>
        <time>2021-02-21T16:04:16.331Z</time>
      </trkpt>
      <trkpt lat="45.64854" lon="5.71157">
        <ele>780</ele>
        <time>2021-02-21T16:04:21.350Z</time>
      </trkpt>
      <trkpt lat="45.64851" lon="5.71158">
        <ele>780</ele>
        <time>2021-02-21T16:04:25.366Z</time>
      </trkpt>
      <trkpt lat="45.64845" lon="5.71159">
        <ele>785</ele>
        <time>2021-02-21T16:04:30.368Z</time>
      </trkpt>
      <trkpt lat="45.64843" lon="5.71159">
        <ele>785</ele>
        <time>2021-02-21T16:04:35.349Z</time>
      </trkpt>
      <trkpt lat="45.64841" lon="5.71158">
        <ele>785</ele>
        <time>2021-02-21T16:04:40.362Z</time>
      </trkpt>
      <trkpt lat="45.64839" lon="5.71158">
        <ele>785</ele>
        <time>2021-02-21T16:04:45.351Z</time>
      </trkpt>
      <trkpt lat="45.64834" lon="5.71155">
        <ele>785</ele>
        <time>2021-02-21T16:04:50.335Z</time>
      </trkpt>
      <trkpt lat="45.6483" lon="5.71152">
        <ele>785</ele>
        <time>2021-02-21T16:04:55.340Z</time>
      </trkpt>
      <trkpt lat="45.64822" lon="5.71149">
        <ele>785</ele>
        <time>2021-02-21T16:05:00.336Z</time>
      </trkpt>
      <trkpt lat="45.64813" lon="5.71145">
        <ele>787</ele>
        <time>2021-02-21T16:05:05.325Z</time>
      </trkpt>
      <trkpt lat="45.64807" lon="5.71143">
        <ele>787</ele>
        <time>2021-02-21T16:05:09.336Z</time>
      </trkpt>
      <trkpt lat="45.64802" lon="5.7114">
        <ele>787</ele>
        <time>2021-02-21T16:05:13.347Z</time>
      </trkpt>
      <trkpt lat="45.64795" lon="5.71136">
        <ele>787</ele>
        <time>2021-02-21T16:05:18.337Z</time>
      </trkpt>
      <trkpt lat="45.64789" lon="5.71132">
        <ele>790</ele>
        <time>2021-02-21T16:05:23.330Z</time>
      </trkpt>
      <trkpt lat="45.64783" lon="5.71129">
        <ele>790</ele>
        <time>2021-02-21T16:05:28.358Z</time>
      </trkpt>
      <trkpt lat="45.64777" lon="5.71126">
        <ele>790</ele>
        <time>2021-02-21T16:05:33.301Z</time>
      </trkpt>
      <trkpt lat="45.64776" lon="5.71125">
        <ele>790</ele>
        <time>2021-02-21T16:05:38.307Z</time>
      </trkpt>
      <trkpt lat="45.64775" lon="5.71124">
        <ele>790</ele>
        <time>2021-02-21T16:05:42.328Z</time>
      </trkpt>
      <trkpt lat="45.64774" lon="5.71124">
        <ele>790</ele>
        <time>2021-02-21T16:05:47.338Z</time>
      </trkpt>
      <trkpt lat="45.64768" lon="5.71123">
        <ele>790</ele>
        <time>2021-02-21T16:05:51.326Z</time>
      </trkpt>
      <trkpt lat="45.64763" lon="5.71116">
        <ele>793</ele>
        <time>2021-02-21T16:05:56.325Z</time>
      </trkpt>
      <trkpt lat="45.64759" lon="5.71105">
        <ele>793</ele>
        <time>2021-02-21T16:06:01.376Z</time>
      </trkpt>
      <trkpt lat="45.64757" lon="5.71102">
        <ele>793</ele>
        <time>2021-02-21T16:06:06.323Z</time>
      </trkpt>
      <trkpt lat="45.64754" lon="5.7109">
        <ele>795</ele>
        <time>2021-02-21T16:06:11.315Z</time>
      </trkpt>
      <trkpt lat="45.64746" lon="5.71079">
        <ele>795</ele>
        <time>2021-02-21T16:06:16.331Z</time>
      </trkpt>
      <trkpt lat="45.64741" lon="5.71073">
        <ele>795</ele>
        <time>2021-02-21T16:06:21.320Z</time>
      </trkpt>
      <trkpt lat="45.64735" lon="5.7107">
        <ele>798</ele>
        <time>2021-02-21T16:06:26.342Z</time>
      </trkpt>
      <trkpt lat="45.64728" lon="5.71066">
        <ele>801</ele>
        <time>2021-02-21T16:06:30.363Z</time>
      </trkpt>
      <trkpt lat="45.64721" lon="5.71063">
        <ele>801</ele>
        <time>2021-02-21T16:06:35.352Z</time>
      </trkpt>
      <trkpt lat="45.64716" lon="5.71064">
        <ele>801</ele>
        <time>2021-02-21T16:06:40.327Z</time>
      </trkpt>
      <trkpt lat="45.64712" lon="5.71062">
        <ele>801</ele>
        <time>2021-02-21T16:06:45.338Z</time>
      </trkpt>
      <trkpt lat="45.64706" lon="5.71064">
        <ele>806</ele>
        <time>2021-02-21T16:06:50.320Z</time>
      </trkpt>
      <trkpt lat="45.64704" lon="5.71063">
        <ele>806</ele>
        <time>2021-02-21T16:06:54.364Z</time>
      </trkpt>
      <trkpt lat="45.64703" lon="5.71064">
        <ele>806</ele>
        <time>2021-02-21T16:06:59.322Z</time>
      </trkpt>
      <trkpt lat="45.647" lon="5.71058">
        <ele>806</ele>
        <time>2021-02-21T16:07:04.309Z</time>
      </trkpt>
      <trkpt lat="45.64698" lon="5.71052">
        <ele>806</ele>
        <time>2021-02-21T16:07:09.337Z</time>
      </trkpt>
      <trkpt lat="45.64698" lon="5.7105">
        <ele>806</ele>
        <time>2021-02-21T16:07:14.327Z</time>
      </trkpt>
      <trkpt lat="45.64697" lon="5.71048">
        <ele>806</ele>
        <time>2021-02-21T16:07:18.356Z</time>
      </trkpt>
      <trkpt lat="45.64695" lon="5.71043">
        <ele>806</ele>
        <time>2021-02-21T16:07:23.344Z</time>
      </trkpt>
      <trkpt lat="45.64686" lon="5.71032">
        <ele>809</ele>
        <time>2021-02-21T16:07:28.339Z</time>
      </trkpt>
      <trkpt lat="45.64685" lon="5.71027">
        <ele>809</ele>
        <time>2021-02-21T16:07:33.322Z</time>
      </trkpt>
      <trkpt lat="45.64685" lon="5.71025">
        <ele>809</ele>
        <time>2021-02-21T16:07:38.357Z</time>
      </trkpt>
      <trkpt lat="45.64684" lon="5.71023">
        <ele>809</ele>
        <time>2021-02-21T16:07:43.351Z</time>
      </trkpt>
      <trkpt lat="45.64681" lon="5.71018">
        <ele>809</ele>
        <time>2021-02-21T16:07:48.313Z</time>
      </trkpt>
      <trkpt lat="45.6468" lon="5.71016">
        <ele>812</ele>
        <time>2021-02-21T16:07:52.333Z</time>
      </trkpt>
      <trkpt lat="45.64678" lon="5.71013">
        <ele>815</ele>
        <time>2021-02-21T16:07:57.335Z</time>
      </trkpt>
      <trkpt lat="45.64677" lon="5.71011">
        <ele>815</ele>
        <time>2021-02-21T16:08:02.342Z</time>
      </trkpt>
      <trkpt lat="45.64677" lon="5.71009">
        <ele>815</ele>
        <time>2021-02-21T16:08:07.329Z</time>
      </trkpt>
      <trkpt lat="45.64677" lon="5.71006">
        <ele>815</ele>
        <time>2021-02-21T16:08:12.343Z</time>
      </trkpt>
      <trkpt lat="45.64677" lon="5.71004">
        <ele>815</ele>
        <time>2021-02-21T16:08:17.346Z</time>
      </trkpt>
      <trkpt lat="45.64673" lon="5.70984">
        <ele>818</ele>
        <time>2021-02-21T16:08:22.367Z</time>
      </trkpt>
      <trkpt lat="45.64668" lon="5.7097">
        <ele>818</ele>
        <time>2021-02-21T16:08:26.348Z</time>
      </trkpt>
      <trkpt lat="45.64662" lon="5.70953">
        <ele>821</ele>
        <time>2021-02-21T16:08:31.337Z</time>
      </trkpt>
      <trkpt lat="45.64655" lon="5.7094">
        <ele>821</ele>
        <time>2021-02-21T16:08:36.365Z</time>
      </trkpt>
      <trkpt lat="45.64654" lon="5.70935">
        <ele>821</ele>
        <time>2021-02-21T16:08:41.338Z</time>
      </trkpt>
      <trkpt lat="45.64652" lon="5.70928">
        <ele>823</ele>
        <time>2021-02-21T16:08:45.398Z</time>
      </trkpt>
      <trkpt lat="45.6465" lon="5.70924">
        <ele>823</ele>
        <time>2021-02-21T16:08:50.339Z</time>
      </trkpt>
      <trkpt lat="45.64649" lon="5.70922">
        <ele>823</ele>
        <time>2021-02-21T16:08:54.358Z</time>
      </trkpt>
      <trkpt lat="45.64648" lon="5.7092">
        <ele>823</ele>
        <time>2021-02-21T16:08:59.340Z</time>
      </trkpt>
      <trkpt lat="45.64643" lon="5.70909">
        <ele>823</ele>
        <time>2021-02-21T16:09:04.301Z</time>
      </trkpt>
      <trkpt lat="45.6464" lon="5.70901">
        <ele>825</ele>
        <time>2021-02-21T16:09:08.332Z</time>
      </trkpt>
      <trkpt lat="45.64635" lon="5.70889">
        <ele>825</ele>
        <time>2021-02-21T16:09:13.352Z</time>
      </trkpt>
      <trkpt lat="45.64631" lon="5.70883">
        <ele>825</ele>
        <time>2021-02-21T16:09:17.350Z</time>
      </trkpt>
      <trkpt lat="45.64631" lon="5.70881">
        <ele>825</ele>
        <time>2021-02-21T16:09:21.341Z</time>
      </trkpt>
      <trkpt lat="45.6463" lon="5.70878">
        <ele>825</ele>
        <time>2021-02-21T16:09:26.344Z</time>
      </trkpt>
      <trkpt lat="45.64627" lon="5.70871">
        <ele>828</ele>
        <time>2021-02-21T16:09:30.348Z</time>
      </trkpt>
      <trkpt lat="45.64625" lon="5.70867">
        <ele>828</ele>
        <time>2021-02-21T16:09:35.325Z</time>
      </trkpt>
      <trkpt lat="45.64624" lon="5.70865">
        <ele>828</ele>
        <time>2021-02-21T16:09:39.358Z</time>
      </trkpt>
      <trkpt lat="45.64623" lon="5.70864">
        <ele>828</ele>
        <time>2021-02-21T16:09:44.363Z</time>
      </trkpt>
      <trkpt lat="45.64623" lon="5.70863">
        <ele>828</ele>
        <time>2021-02-21T16:09:49.287Z</time>
      </trkpt>
      <trkpt lat="45.64623" lon="5.70862">
        <ele>828</ele>
        <time>2021-02-21T16:09:53.315Z</time>
      </trkpt>
      <trkpt lat="45.64615" lon="5.7085">
        <ele>828</ele>
        <time>2021-02-21T16:09:58.339Z</time>
      </trkpt>
      <trkpt lat="45.64608" lon="5.70827">
        <ele>828</ele>
        <time>2021-02-21T16:10:03.337Z</time>
      </trkpt>
      <trkpt lat="45.64602" lon="5.70808">
        <ele>830</ele>
        <time>2021-02-21T16:10:08.329Z</time>
      </trkpt>
      <trkpt lat="45.64595" lon="5.70791">
        <ele>831</ele>
        <time>2021-02-21T16:10:13.349Z</time>
      </trkpt>
      <trkpt lat="45.6459" lon="5.70776">
        <ele>831</ele>
        <time>2021-02-21T16:10:18.347Z</time>
      </trkpt>
      <trkpt lat="45.64584" lon="5.70762">
        <ele>831</ele>
        <time>2021-02-21T16:10:23.346Z</time>
      </trkpt>
      <trkpt lat="45.64581" lon="5.70753">
        <ele>831</ele>
        <time>2021-02-21T16:10:28.358Z</time>
      </trkpt>
      <trkpt lat="45.64581" lon="5.70752">
        <ele>831</ele>
        <time>2021-02-21T16:10:33.333Z</time>
      </trkpt>
      <trkpt lat="45.64576" lon="5.70748">
        <ele>831</ele>
        <time>2021-02-21T16:10:38.390Z</time>
      </trkpt>
      <trkpt lat="45.6457" lon="5.70737">
        <ele>831</ele>
        <time>2021-02-21T16:10:43.324Z</time>
      </trkpt>
      <trkpt lat="45.64559" lon="5.70724">
        <ele>832</ele>
        <time>2021-02-21T16:10:48.316Z</time>
      </trkpt>
      <trkpt lat="45.6455" lon="5.70717">
        <ele>832</ele>
        <time>2021-02-21T16:10:52.345Z</time>
      </trkpt>
      <trkpt lat="45.64542" lon="5.7071">
        <ele>832</ele>
        <time>2021-02-21T16:10:57.370Z</time>
      </trkpt>
      <trkpt lat="45.64535" lon="5.70703">
        <ele>830</ele>
        <time>2021-02-21T16:11:02.357Z</time>
      </trkpt>
      <trkpt lat="45.64532" lon="5.70702">
        <ele>830</ele>
        <time>2021-02-21T16:11:07.336Z</time>
      </trkpt>
      <trkpt lat="45.64527" lon="5.70703">
        <ele>830</ele>
        <time>2021-02-21T16:11:12.331Z</time>
      </trkpt>
      <trkpt lat="45.64526" lon="5.70703">
        <ele>830</ele>
        <time>2021-02-21T16:11:17.333Z</time>
      </trkpt>
      <trkpt lat="45.64525" lon="5.70703">
        <ele>830</ele>
        <time>2021-02-21T16:11:21.324Z</time>
      </trkpt>
      <trkpt lat="45.64524" lon="5.70703">
        <ele>830</ele>
        <time>2021-02-21T16:11:26.322Z</time>
      </trkpt>
      <trkpt lat="45.64521" lon="5.70704">
        <ele>830</ele>
        <time>2021-02-21T16:11:30.378Z</time>
      </trkpt>
      <trkpt lat="45.64509" lon="5.70706">
        <ele>835</ele>
        <time>2021-02-21T16:11:35.342Z</time>
      </trkpt>
      <trkpt lat="45.64504" lon="5.70707">
        <ele>835</ele>
        <time>2021-02-21T16:11:40.307Z</time>
      </trkpt>
      <trkpt lat="45.64495" lon="5.70706">
        <ele>835</ele>
        <time>2021-02-21T16:11:45.351Z</time>
      </trkpt>
      <trkpt lat="45.64486" lon="5.70708">
        <ele>839</ele>
        <time>2021-02-21T16:11:50.282Z</time>
      </trkpt>
      <trkpt lat="45.64485" lon="5.70709">
        <ele>842</ele>
        <time>2021-02-21T16:11:54.310Z</time>
      </trkpt>
      <trkpt lat="45.64484" lon="5.70709">
        <ele>842</ele>
        <time>2021-02-21T16:11:58.336Z</time>
      </trkpt>
      <trkpt lat="45.64474" lon="5.70716">
        <ele>842</ele>
        <time>2021-02-21T16:12:03.365Z</time>
      </trkpt>
      <trkpt lat="45.64464" lon="5.70725">
        <ele>842</ele>
        <time>2021-02-21T16:12:08.341Z</time>
      </trkpt>
      <trkpt lat="45.6446" lon="5.70731">
        <ele>842</ele>
        <time>2021-02-21T16:12:13.335Z</time>
      </trkpt>
      <trkpt lat="45.64452" lon="5.70746">
        <ele>842</ele>
        <time>2021-02-21T16:12:36.305Z</time>
      </trkpt>
      <trkpt lat="45.64451" lon="5.70746">
        <ele>842</ele>
        <time>2021-02-21T16:12:40.328Z</time>
      </trkpt>
      <trkpt lat="45.6445" lon="5.70746">
        <ele>842</ele>
        <time>2021-02-21T16:12:45.337Z</time>
      </trkpt>
      <trkpt lat="45.64449" lon="5.70746">
        <ele>842</ele>
        <time>2021-02-21T16:12:49.405Z</time>
      </trkpt>
      <trkpt lat="45.64447" lon="5.70745">
        <ele>842</ele>
        <time>2021-02-21T16:12:54.328Z</time>
      </trkpt>
      <trkpt lat="45.64446" lon="5.70744">
        <ele>842</ele>
        <time>2021-02-21T16:12:59.304Z</time>
      </trkpt>
      <trkpt lat="45.64444" lon="5.70743">
        <ele>842</ele>
        <time>2021-02-21T16:13:04.314Z</time>
      </trkpt>
      <trkpt lat="45.64443" lon="5.70742">
        <ele>842</ele>
        <time>2021-02-21T16:13:09.312Z</time>
      </trkpt>
      <trkpt lat="45.64443" lon="5.7074">
        <ele>842</ele>
        <time>2021-02-21T16:13:13.315Z</time>
      </trkpt>
      <trkpt lat="45.64434" lon="5.70725">
        <ele>843</ele>
        <time>2021-02-21T16:13:18.325Z</time>
      </trkpt>
      <trkpt lat="45.64425" lon="5.70711">
        <ele>848</ele>
        <time>2021-02-21T16:13:23.336Z</time>
      </trkpt>
      <trkpt lat="45.64423" lon="5.70709">
        <ele>848</ele>
        <time>2021-02-21T16:13:28.347Z</time>
      </trkpt>
      <trkpt lat="45.64414" lon="5.70702">
        <ele>847</ele>
        <time>2021-02-21T16:13:33.335Z</time>
      </trkpt>
      <trkpt lat="45.64406" lon="5.70696">
        <ele>847</ele>
        <time>2021-02-21T16:13:37.404Z</time>
      </trkpt>
      <trkpt lat="45.64399" lon="5.70692">
        <ele>852</ele>
        <time>2021-02-21T16:13:42.313Z</time>
      </trkpt>
      <trkpt lat="45.64398" lon="5.70691">
        <ele>852</ele>
        <time>2021-02-21T16:13:46.340Z</time>
      </trkpt>
      <trkpt lat="45.64393" lon="5.70689">
        <ele>852</ele>
        <time>2021-02-21T16:13:50.332Z</time>
      </trkpt>
      <trkpt lat="45.64381" lon="5.70687">
        <ele>852</ele>
        <time>2021-02-21T16:13:55.349Z</time>
      </trkpt>
      <trkpt lat="45.6437" lon="5.70687">
        <ele>854</ele>
        <time>2021-02-21T16:13:59.399Z</time>
      </trkpt>
      <trkpt lat="45.6436" lon="5.70685">
        <ele>854</ele>
        <time>2021-02-21T16:14:04.308Z</time>
      </trkpt>
      <trkpt lat="45.64355" lon="5.70682">
        <ele>854</ele>
        <time>2021-02-21T16:14:08.356Z</time>
      </trkpt>
      <trkpt lat="45.64355" lon="5.70681">
        <ele>854</ele>
        <time>2021-02-21T16:14:13.342Z</time>
      </trkpt>
      <trkpt lat="45.64354" lon="5.70681">
        <ele>854</ele>
        <time>2021-02-21T16:14:17.329Z</time>
      </trkpt>
      <trkpt lat="45.64351" lon="5.70678">
        <ele>854</ele>
        <time>2021-02-21T16:14:22.311Z</time>
      </trkpt>
      <trkpt lat="45.64345" lon="5.70671">
        <ele>856</ele>
        <time>2021-02-21T16:14:26.348Z</time>
      </trkpt>
      <trkpt lat="45.64336" lon="5.70663">
        <ele>856</ele>
        <time>2021-02-21T16:14:31.356Z</time>
      </trkpt>
      <trkpt lat="45.64329" lon="5.70656">
        <ele>856</ele>
        <time>2021-02-21T16:14:36.357Z</time>
      </trkpt>
      <trkpt lat="45.64323" lon="5.70652">
        <ele>855</ele>
        <time>2021-02-21T16:14:41.338Z</time>
      </trkpt>
      <trkpt lat="45.64322" lon="5.70651">
        <ele>855</ele>
        <time>2021-02-21T16:14:46.322Z</time>
      </trkpt>
      <trkpt lat="45.64314" lon="5.70648">
        <ele>857</ele>
        <time>2021-02-21T16:14:50.354Z</time>
      </trkpt>
      <trkpt lat="45.64304" lon="5.70645">
        <ele>857</ele>
        <time>2021-02-21T16:15:00.335Z</time>
      </trkpt>
      <trkpt lat="45.64301" lon="5.70644">
        <ele>857</ele>
        <time>2021-02-21T16:15:05.343Z</time>
      </trkpt>
      <trkpt lat="45.64299" lon="5.70643">
        <ele>857</ele>
        <time>2021-02-21T16:15:10.334Z</time>
      </trkpt>
      <trkpt lat="45.64297" lon="5.70642">
        <ele>857</ele>
        <time>2021-02-21T16:15:15.288Z</time>
      </trkpt>
      <trkpt lat="45.64293" lon="5.70639">
        <ele>857</ele>
        <time>2021-02-21T16:15:19.353Z</time>
      </trkpt>
      <trkpt lat="45.64288" lon="5.70631">
        <ele>853</ele>
        <time>2021-02-21T16:15:29.296Z</time>
      </trkpt>
      <trkpt lat="45.64288" lon="5.7063">
        <ele>853</ele>
        <time>2021-02-21T16:15:33.304Z</time>
      </trkpt>
      <trkpt lat="45.64288" lon="5.70629">
        <ele>853</ele>
        <time>2021-02-21T16:15:38.312Z</time>
      </trkpt>
      <trkpt lat="45.64287" lon="5.70628">
        <ele>853</ele>
        <time>2021-02-21T16:15:42.319Z</time>
      </trkpt>
      <trkpt lat="45.64286" lon="5.70624">
        <ele>850</ele>
        <time>2021-02-21T16:15:47.379Z</time>
      </trkpt>
      <trkpt lat="45.64283" lon="5.70613">
        <ele>850</ele>
        <time>2021-02-21T16:15:52.263Z</time>
      </trkpt>
      <trkpt lat="45.64283" lon="5.70606">
        <ele>850</ele>
        <time>2021-02-21T16:15:56.327Z</time>
      </trkpt>
      <trkpt lat="45.64282" lon="5.70605">
        <ele>850</ele>
        <time>2021-02-21T16:16:01.302Z</time>
      </trkpt>
      <trkpt lat="45.64282" lon="5.70596">
        <ele>846</ele>
        <time>2021-02-21T16:16:06.316Z</time>
      </trkpt>
      <trkpt lat="45.64282" lon="5.7059">
        <ele>846</ele>
        <time>2021-02-21T16:16:11.310Z</time>
      </trkpt>
      <trkpt lat="45.64281" lon="5.70586">
        <ele>846</ele>
        <time>2021-02-21T16:16:16.321Z</time>
      </trkpt>
      <trkpt lat="45.6428" lon="5.70581">
        <ele>846</ele>
        <time>2021-02-21T16:16:21.322Z</time>
      </trkpt>
      <trkpt lat="45.64277" lon="5.70573">
        <ele>846</ele>
        <time>2021-02-21T16:16:26.329Z</time>
      </trkpt>
      <trkpt lat="45.64274" lon="5.70569">
        <ele>843</ele>
        <time>2021-02-21T16:16:31.336Z</time>
      </trkpt>
      <trkpt lat="45.64274" lon="5.70567">
        <ele>843</ele>
        <time>2021-02-21T16:16:36.349Z</time>
      </trkpt>
      <trkpt lat="45.6427" lon="5.70558">
        <ele>843</ele>
        <time>2021-02-21T16:16:41.297Z</time>
      </trkpt>
      <trkpt lat="45.64265" lon="5.70553">
        <ele>843</ele>
        <time>2021-02-21T16:16:45.347Z</time>
      </trkpt>
      <trkpt lat="45.64261" lon="5.70554">
        <ele>841</ele>
        <time>2021-02-21T16:16:50.342Z</time>
      </trkpt>
      <trkpt lat="45.64255" lon="5.70557">
        <ele>841</ele>
        <time>2021-02-21T16:16:55.335Z</time>
      </trkpt>
      <trkpt lat="45.64249" lon="5.7056">
        <ele>841</ele>
        <time>2021-02-21T16:17:00.337Z</time>
      </trkpt>
      <trkpt lat="45.64239" lon="5.70576">
        <ele>843</ele>
        <time>2021-02-21T16:17:05.313Z</time>
      </trkpt>
      <trkpt lat="45.64222" lon="5.70597">
        <ele>842</ele>
        <time>2021-02-21T16:17:09.342Z</time>
      </trkpt>
      <trkpt lat="45.64198" lon="5.70616">
        <ele>844</ele>
        <time>2021-02-21T16:17:14.339Z</time>
      </trkpt>
      <trkpt lat="45.64186" lon="5.70629">
        <ele>846</ele>
        <time>2021-02-21T16:17:19.343Z</time>
      </trkpt>
      <trkpt lat="45.64176" lon="5.70642">
        <ele>846</ele>
        <time>2021-02-21T16:17:24.358Z</time>
      </trkpt>
      <trkpt lat="45.64169" lon="5.70649">
        <ele>846</ele>
        <time>2021-02-21T16:17:28.328Z</time>
      </trkpt>
      <trkpt lat="45.64161" lon="5.70655">
        <ele>847</ele>
        <time>2021-02-21T16:17:33.333Z</time>
      </trkpt>
      <trkpt lat="45.64157" lon="5.70665">
        <ele>847</ele>
        <time>2021-02-21T16:17:38.326Z</time>
      </trkpt>
      <trkpt lat="45.64155" lon="5.70671">
        <ele>847</ele>
        <time>2021-02-21T16:17:43.323Z</time>
      </trkpt>
      <trkpt lat="45.64154" lon="5.70673">
        <ele>847</ele>
        <time>2021-02-21T16:17:47.344Z</time>
      </trkpt>
      <trkpt lat="45.64148" lon="5.70679">
        <ele>849</ele>
        <time>2021-02-21T16:17:52.349Z</time>
      </trkpt>
      <trkpt lat="45.64138" lon="5.70685">
        <ele>846</ele>
        <time>2021-02-21T16:17:56.382Z</time>
      </trkpt>
      <trkpt lat="45.64129" lon="5.70693">
        <ele>846</ele>
        <time>2021-02-21T16:18:01.328Z</time>
      </trkpt>
      <trkpt lat="45.64123" lon="5.70699">
        <ele>849</ele>
        <time>2021-02-21T16:18:05.331Z</time>
      </trkpt>
      <trkpt lat="45.64116" lon="5.70703">
        <ele>849</ele>
        <time>2021-02-21T16:18:10.341Z</time>
      </trkpt>
      <trkpt lat="45.64108" lon="5.70708">
        <ele>849</ele>
        <time>2021-02-21T16:18:15.333Z</time>
      </trkpt>
      <trkpt lat="45.64102" lon="5.70712">
        <ele>845</ele>
        <time>2021-02-21T16:18:19.381Z</time>
      </trkpt>
      <trkpt lat="45.64097" lon="5.7072">
        <ele>845</ele>
        <time>2021-02-21T16:18:24.326Z</time>
      </trkpt>
      <trkpt lat="45.64092" lon="5.70729">
        <ele>847</ele>
        <time>2021-02-21T16:18:29.341Z</time>
      </trkpt>
      <trkpt lat="45.64087" lon="5.70735">
        <ele>847</ele>
        <time>2021-02-21T16:18:34.337Z</time>
      </trkpt>
      <trkpt lat="45.64081" lon="5.70742">
        <ele>843</ele>
        <time>2021-02-21T16:18:39.289Z</time>
      </trkpt>
      <trkpt lat="45.64076" lon="5.70746">
        <ele>843</ele>
        <time>2021-02-21T16:18:43.339Z</time>
      </trkpt>
      <trkpt lat="45.64069" lon="5.70751">
        <ele>844</ele>
        <time>2021-02-21T16:18:48.338Z</time>
      </trkpt>
      <trkpt lat="45.64064" lon="5.70752">
        <ele>844</ele>
        <time>2021-02-21T16:18:53.333Z</time>
      </trkpt>
      <trkpt lat="45.64058" lon="5.70756">
        <ele>844</ele>
        <time>2021-02-21T16:18:58.359Z</time>
      </trkpt>
      <trkpt lat="45.64051" lon="5.7076">
        <ele>844</ele>
        <time>2021-02-21T16:19:03.325Z</time>
      </trkpt>
      <trkpt lat="45.64042" lon="5.7076">
        <ele>844</ele>
        <time>2021-02-21T16:19:08.340Z</time>
      </trkpt>
      <trkpt lat="45.64036" lon="5.70761">
        <ele>848</ele>
        <time>2021-02-21T16:19:13.304Z</time>
      </trkpt>
      <trkpt lat="45.6403" lon="5.70761">
        <ele>848</ele>
        <time>2021-02-21T16:19:17.340Z</time>
      </trkpt>
      <trkpt lat="45.64022" lon="5.70761">
        <ele>848</ele>
        <time>2021-02-21T16:19:22.314Z</time>
      </trkpt>
      <trkpt lat="45.64016" lon="5.70763">
        <ele>848</ele>
        <time>2021-02-21T16:19:27.359Z</time>
      </trkpt>
      <trkpt lat="45.64009" lon="5.70765">
        <ele>845</ele>
        <time>2021-02-21T16:19:32.359Z</time>
      </trkpt>
      <trkpt lat="45.64005" lon="5.70767">
        <ele>845</ele>
        <time>2021-02-21T16:19:37.358Z</time>
      </trkpt>
      <trkpt lat="45.64" lon="5.70768">
        <ele>845</ele>
        <time>2021-02-21T16:19:41.392Z</time>
      </trkpt>
      <trkpt lat="45.63997" lon="5.70769">
        <ele>845</ele>
        <time>2021-02-21T16:19:46.326Z</time>
      </trkpt>
      <trkpt lat="45.63992" lon="5.7077">
        <ele>845</ele>
        <time>2021-02-21T16:19:51.344Z</time>
      </trkpt>
      <trkpt lat="45.63985" lon="5.70772">
        <ele>846</ele>
        <time>2021-02-21T16:19:56.344Z</time>
      </trkpt>
      <trkpt lat="45.63976" lon="5.70777">
        <ele>846</ele>
        <time>2021-02-21T16:20:01.340Z</time>
      </trkpt>
      <trkpt lat="45.63971" lon="5.70779">
        <ele>846</ele>
        <time>2021-02-21T16:20:05.352Z</time>
      </trkpt>
      <trkpt lat="45.63965" lon="5.70781">
        <ele>846</ele>
        <time>2021-02-21T16:20:10.410Z</time>
      </trkpt>
      <trkpt lat="45.63962" lon="5.70783">
        <ele>846</ele>
        <time>2021-02-21T16:20:15.359Z</time>
      </trkpt>
      <trkpt lat="45.6396" lon="5.70785">
        <ele>846</ele>
        <time>2021-02-21T16:20:20.338Z</time>
      </trkpt>
      <trkpt lat="45.63951" lon="5.70792">
        <ele>850</ele>
        <time>2021-02-21T16:20:24.337Z</time>
      </trkpt>
      <trkpt lat="45.63935" lon="5.70801">
        <ele>845</ele>
        <time>2021-02-21T16:20:29.307Z</time>
      </trkpt>
      <trkpt lat="45.63922" lon="5.70807">
        <ele>849</ele>
        <time>2021-02-21T16:20:33.335Z</time>
      </trkpt>
      <trkpt lat="45.63912" lon="5.70812">
        <ele>849</ele>
        <time>2021-02-21T16:20:38.356Z</time>
      </trkpt>
      <trkpt lat="45.63905" lon="5.70821">
        <ele>843</ele>
        <time>2021-02-21T16:20:43.290Z</time>
      </trkpt>
      <trkpt lat="45.63899" lon="5.70828">
        <ele>847</ele>
        <time>2021-02-21T16:20:47.329Z</time>
      </trkpt>
      <trkpt lat="45.63894" lon="5.70833">
        <ele>847</ele>
        <time>2021-02-21T16:20:51.327Z</time>
      </trkpt>
      <trkpt lat="45.63888" lon="5.7084">
        <ele>847</ele>
        <time>2021-02-21T16:20:56.342Z</time>
      </trkpt>
      <trkpt lat="45.63884" lon="5.70848">
        <ele>841</ele>
        <time>2021-02-21T16:21:00.342Z</time>
      </trkpt>
      <trkpt lat="45.63879" lon="5.70855">
        <ele>841</ele>
        <time>2021-02-21T16:21:05.371Z</time>
      </trkpt>
      <trkpt lat="45.63872" lon="5.70859">
        <ele>846</ele>
        <time>2021-02-21T16:21:10.325Z</time>
      </trkpt>
      <trkpt lat="45.63864" lon="5.70863">
        <ele>846</ele>
        <time>2021-02-21T16:21:15.331Z</time>
      </trkpt>
      <trkpt lat="45.63855" lon="5.70867">
        <ele>846</ele>
        <time>2021-02-21T16:21:19.342Z</time>
      </trkpt>
      <trkpt lat="45.63844" lon="5.70871">
        <ele>849</ele>
        <time>2021-02-21T16:21:24.338Z</time>
      </trkpt>
      <trkpt lat="45.63837" lon="5.70873">
        <ele>849</ele>
        <time>2021-02-21T16:21:29.343Z</time>
      </trkpt>
      <trkpt lat="45.63828" lon="5.70876">
        <ele>844</ele>
        <time>2021-02-21T16:21:34.327Z</time>
      </trkpt>
      <trkpt lat="45.63822" lon="5.70879">
        <ele>844</ele>
        <time>2021-02-21T16:21:38.341Z</time>
      </trkpt>
      <trkpt lat="45.63812" lon="5.70882">
        <ele>846</ele>
        <time>2021-02-21T16:21:43.326Z</time>
      </trkpt>
      <trkpt lat="45.63804" lon="5.70884">
        <ele>846</ele>
        <time>2021-02-21T16:21:48.287Z</time>
      </trkpt>
      <trkpt lat="45.63799" lon="5.70884">
        <ele>846</ele>
        <time>2021-02-21T16:21:52.307Z</time>
      </trkpt>
      <trkpt lat="45.63791" lon="5.70886">
        <ele>846</ele>
        <time>2021-02-21T16:21:57.339Z</time>
      </trkpt>
      <trkpt lat="45.63784" lon="5.70887">
        <ele>846</ele>
        <time>2021-02-21T16:22:02.338Z</time>
      </trkpt>
      <trkpt lat="45.63777" lon="5.70888">
        <ele>846</ele>
        <time>2021-02-21T16:22:07.375Z</time>
      </trkpt>
      <trkpt lat="45.63771" lon="5.7089">
        <ele>846</ele>
        <time>2021-02-21T16:22:12.326Z</time>
      </trkpt>
      <trkpt lat="45.63765" lon="5.70892">
        <ele>846</ele>
        <time>2021-02-21T16:22:17.330Z</time>
      </trkpt>
      <trkpt lat="45.6376" lon="5.70895">
        <ele>847</ele>
        <time>2021-02-21T16:22:22.335Z</time>
      </trkpt>
      <trkpt lat="45.63759" lon="5.70895">
        <ele>847</ele>
        <time>2021-02-21T16:22:26.381Z</time>
      </trkpt>
      <trkpt lat="45.63758" lon="5.70896">
        <ele>847</ele>
        <time>2021-02-21T16:22:31.339Z</time>
      </trkpt>
      <trkpt lat="45.63756" lon="5.70897">
        <ele>847</ele>
        <time>2021-02-21T16:22:36.327Z</time>
      </trkpt>
      <trkpt lat="45.63744" lon="5.7091">
        <ele>845</ele>
        <time>2021-02-21T16:22:41.332Z</time>
      </trkpt>
      <trkpt lat="45.63732" lon="5.70927">
        <ele>847</ele>
        <time>2021-02-21T16:22:46.325Z</time>
      </trkpt>
      <trkpt lat="45.63723" lon="5.70934">
        <ele>846</ele>
        <time>2021-02-21T16:22:51.309Z</time>
      </trkpt>
      <trkpt lat="45.63713" lon="5.70936">
        <ele>846</ele>
        <time>2021-02-21T16:22:56.316Z</time>
      </trkpt>
      <trkpt lat="45.63706" lon="5.70938">
        <ele>846</ele>
        <time>2021-02-21T16:23:00.352Z</time>
      </trkpt>
      <trkpt lat="45.63697" lon="5.70937">
        <ele>846</ele>
        <time>2021-02-21T16:23:05.331Z</time>
      </trkpt>
      <trkpt lat="45.6369" lon="5.70935">
        <ele>846</ele>
        <time>2021-02-21T16:23:10.330Z</time>
      </trkpt>
      <trkpt lat="45.63681" lon="5.70934">
        <ele>846</ele>
        <time>2021-02-21T16:23:15.309Z</time>
      </trkpt>
      <trkpt lat="45.63675" lon="5.70935">
        <ele>844</ele>
        <time>2021-02-21T16:23:20.364Z</time>
      </trkpt>
      <trkpt lat="45.63669" lon="5.70936">
        <ele>844</ele>
        <time>2021-02-21T16:23:25.322Z</time>
      </trkpt>
      <trkpt lat="45.63663" lon="5.70936">
        <ele>844</ele>
        <time>2021-02-21T16:23:29.367Z</time>
      </trkpt>
      <trkpt lat="45.63658" lon="5.70934">
        <ele>844</ele>
        <time>2021-02-21T16:23:34.347Z</time>
      </trkpt>
      <trkpt lat="45.63655" lon="5.70933">
        <ele>844</ele>
        <time>2021-02-21T16:23:39.334Z</time>
      </trkpt>
      <trkpt lat="45.63648" lon="5.70932">
        <ele>840</ele>
        <time>2021-02-21T16:23:43.327Z</time>
      </trkpt>
      <trkpt lat="45.63643" lon="5.7093">
        <ele>843</ele>
        <time>2021-02-21T16:23:47.364Z</time>
      </trkpt>
      <trkpt lat="45.63633" lon="5.70929">
        <ele>843</ele>
        <time>2021-02-21T16:23:52.346Z</time>
      </trkpt>
      <trkpt lat="45.63626" lon="5.70927">
        <ele>843</ele>
        <time>2021-02-21T16:23:56.399Z</time>
      </trkpt>
      <trkpt lat="45.6362" lon="5.70927">
        <ele>840</ele>
        <time>2021-02-21T16:24:01.343Z</time>
      </trkpt>
      <trkpt lat="45.63614" lon="5.70927">
        <ele>840</ele>
        <time>2021-02-21T16:24:06.345Z</time>
      </trkpt>
      <trkpt lat="45.63603" lon="5.70926">
        <ele>840</ele>
        <time>2021-02-21T16:24:11.320Z</time>
      </trkpt>
      <trkpt lat="45.63597" lon="5.70926">
        <ele>839</ele>
        <time>2021-02-21T16:24:15.354Z</time>
      </trkpt>
      <trkpt lat="45.63591" lon="5.70926">
        <ele>839</ele>
        <time>2021-02-21T16:24:20.352Z</time>
      </trkpt>
      <trkpt lat="45.63584" lon="5.70926">
        <ele>839</ele>
        <time>2021-02-21T16:24:25.328Z</time>
      </trkpt>
      <trkpt lat="45.63573" lon="5.70927">
        <ele>839</ele>
        <time>2021-02-21T16:24:30.353Z</time>
      </trkpt>
      <trkpt lat="45.63559" lon="5.70923">
        <ele>842</ele>
        <time>2021-02-21T16:24:35.353Z</time>
      </trkpt>
      <trkpt lat="45.63548" lon="5.70922">
        <ele>842</ele>
        <time>2021-02-21T16:24:39.333Z</time>
      </trkpt>
      <trkpt lat="45.63534" lon="5.70921">
        <ele>842</ele>
        <time>2021-02-21T16:24:44.337Z</time>
      </trkpt>
      <trkpt lat="45.63522" lon="5.70922">
        <ele>842</ele>
        <time>2021-02-21T16:24:49.389Z</time>
      </trkpt>
      <trkpt lat="45.63512" lon="5.70923">
        <ele>841</ele>
        <time>2021-02-21T16:24:54.348Z</time>
      </trkpt>
      <trkpt lat="45.63504" lon="5.70927">
        <ele>841</ele>
        <time>2021-02-21T16:24:59.365Z</time>
      </trkpt>
      <trkpt lat="45.63499" lon="5.70931">
        <ele>836</ele>
        <time>2021-02-21T16:25:04.336Z</time>
      </trkpt>
      <trkpt lat="45.63495" lon="5.70934">
        <ele>836</ele>
        <time>2021-02-21T16:25:08.350Z</time>
      </trkpt>
      <trkpt lat="45.63489" lon="5.70941">
        <ele>836</ele>
        <time>2021-02-21T16:25:13.344Z</time>
      </trkpt>
      <trkpt lat="45.63482" lon="5.70946">
        <ele>837</ele>
        <time>2021-02-21T16:25:18.323Z</time>
      </trkpt>
      <trkpt lat="45.63476" lon="5.7095">
        <ele>837</ele>
        <time>2021-02-21T16:25:23.329Z</time>
      </trkpt>
      <trkpt lat="45.63469" lon="5.7095">
        <ele>837</ele>
        <time>2021-02-21T16:25:28.391Z</time>
      </trkpt>
      <trkpt lat="45.63459" lon="5.70948">
        <ele>837</ele>
        <time>2021-02-21T16:25:33.319Z</time>
      </trkpt>
      <trkpt lat="45.63453" lon="5.70948">
        <ele>837</ele>
        <time>2021-02-21T16:25:37.331Z</time>
      </trkpt>
      <trkpt lat="45.63446" lon="5.70947">
        <ele>837</ele>
        <time>2021-02-21T16:25:42.327Z</time>
      </trkpt>
      <trkpt lat="45.63438" lon="5.70943">
        <ele>837</ele>
        <time>2021-02-21T16:25:47.337Z</time>
      </trkpt>
      <trkpt lat="45.63431" lon="5.70942">
        <ele>837</ele>
        <time>2021-02-21T16:25:52.320Z</time>
      </trkpt>
      <trkpt lat="45.63427" lon="5.70941">
        <ele>835</ele>
        <time>2021-02-21T16:25:56.330Z</time>
      </trkpt>
      <trkpt lat="45.63422" lon="5.70939">
        <ele>835</ele>
        <time>2021-02-21T16:26:01.330Z</time>
      </trkpt>
      <trkpt lat="45.63412" lon="5.70939">
        <ele>835</ele>
        <time>2021-02-21T16:26:05.338Z</time>
      </trkpt>
      <trkpt lat="45.63398" lon="5.70939">
        <ele>831</ele>
        <time>2021-02-21T16:26:10.329Z</time>
      </trkpt>
      <trkpt lat="45.63391" lon="5.70937">
        <ele>831</ele>
        <time>2021-02-21T16:26:14.320Z</time>
      </trkpt>
      <trkpt lat="45.63387" lon="5.70938">
        <ele>831</ele>
        <time>2021-02-21T16:26:19.295Z</time>
      </trkpt>
      <trkpt lat="45.6338" lon="5.70949">
        <ele>831</ele>
        <time>2021-02-21T16:26:24.291Z</time>
      </trkpt>
      <trkpt lat="45.63375" lon="5.70961">
        <ele>829</ele>
        <time>2021-02-21T16:26:28.328Z</time>
      </trkpt>
      <trkpt lat="45.63369" lon="5.70977">
        <ele>829</ele>
        <time>2021-02-21T16:26:33.318Z</time>
      </trkpt>
      <trkpt lat="45.63365" lon="5.70986">
        <ele>829</ele>
        <time>2021-02-21T16:26:37.328Z</time>
      </trkpt>
      <trkpt lat="45.63359" lon="5.70995">
        <ele>827</ele>
        <time>2021-02-21T16:26:42.323Z</time>
      </trkpt>
      <trkpt lat="45.63351" lon="5.71001">
        <ele>827</ele>
        <time>2021-02-21T16:26:47.319Z</time>
      </trkpt>
      <trkpt lat="45.63343" lon="5.71005">
        <ele>831</ele>
        <time>2021-02-21T16:26:52.323Z</time>
      </trkpt>
      <trkpt lat="45.63335" lon="5.7101">
        <ele>831</ele>
        <time>2021-02-21T16:26:56.323Z</time>
      </trkpt>
      <trkpt lat="45.63328" lon="5.71019">
        <ele>828</ele>
        <time>2021-02-21T16:27:01.338Z</time>
      </trkpt>
      <trkpt lat="45.63323" lon="5.71022">
        <ele>828</ele>
        <time>2021-02-21T16:27:06.322Z</time>
      </trkpt>
      <trkpt lat="45.63314" lon="5.71021">
        <ele>833</ele>
        <time>2021-02-21T16:27:11.351Z</time>
      </trkpt>
      <trkpt lat="45.63304" lon="5.71021">
        <ele>833</ele>
        <time>2021-02-21T16:27:16.341Z</time>
      </trkpt>
      <trkpt lat="45.63287" lon="5.71028">
        <ele>834</ele>
        <time>2021-02-21T16:27:21.331Z</time>
      </trkpt>
      <trkpt lat="45.63271" lon="5.71031">
        <ele>834</ele>
        <time>2021-02-21T16:27:25.360Z</time>
      </trkpt>
      <trkpt lat="45.63251" lon="5.71031">
        <ele>831</ele>
        <time>2021-02-21T16:27:30.356Z</time>
      </trkpt>
      <trkpt lat="45.63234" lon="5.7103">
        <ele>832</ele>
        <time>2021-02-21T16:27:35.320Z</time>
      </trkpt>
      <trkpt lat="45.63203" lon="5.71029">
        <ele>835</ele>
        <time>2021-02-21T16:27:40.316Z</time>
      </trkpt>
      <trkpt lat="45.63168" lon="5.71037">
        <ele>842</ele>
        <time>2021-02-21T16:27:45.327Z</time>
      </trkpt>
      <trkpt lat="45.63148" lon="5.71059">
        <ele>843</ele>
        <time>2021-02-21T16:27:50.333Z</time>
      </trkpt>
      <trkpt lat="45.63131" lon="5.71079">
        <ele>841</ele>
        <time>2021-02-21T16:27:55.278Z</time>
      </trkpt>
      <trkpt lat="45.63122" lon="5.7109">
        <ele>843</ele>
        <time>2021-02-21T16:27:59.328Z</time>
      </trkpt>
      <trkpt lat="45.63123" lon="5.71111">
        <ele>841</ele>
        <time>2021-02-21T16:28:04.313Z</time>
      </trkpt>
      <trkpt lat="45.63119" lon="5.71125">
        <ele>841</ele>
        <time>2021-02-21T16:28:09.341Z</time>
      </trkpt>
      <trkpt lat="45.63111" lon="5.71137">
        <ele>835</ele>
        <time>2021-02-21T16:28:14.340Z</time>
      </trkpt>
      <trkpt lat="45.63098" lon="5.71154">
        <ele>829</ele>
        <time>2021-02-21T16:28:19.312Z</time>
      </trkpt>
      <trkpt lat="45.63072" lon="5.71175">
        <ele>839</ele>
        <time>2021-02-21T16:28:24.331Z</time>
      </trkpt>
      <trkpt lat="45.63051" lon="5.71204">
        <ele>841</ele>
        <time>2021-02-21T16:28:29.322Z</time>
      </trkpt>
      <trkpt lat="45.6304" lon="5.71226">
        <ele>843</ele>
        <time>2021-02-21T16:28:33.366Z</time>
      </trkpt>
      <trkpt lat="45.63023" lon="5.71256">
        <ele>841</ele>
        <time>2021-02-21T16:28:38.335Z</time>
      </trkpt>
      <trkpt lat="45.62998" lon="5.71279">
        <ele>842</ele>
        <time>2021-02-21T16:28:43.319Z</time>
      </trkpt>
      <trkpt lat="45.6297" lon="5.71277">
        <ele>844</ele>
        <time>2021-02-21T16:28:48.313Z</time>
      </trkpt>
      <trkpt lat="45.62935" lon="5.71273">
        <ele>844</ele>
        <time>2021-02-21T16:28:53.283Z</time>
      </trkpt>
      <trkpt lat="45.62913" lon="5.71269">
        <ele>844</ele>
        <time>2021-02-21T16:28:57.288Z</time>
      </trkpt>
      <trkpt lat="45.6289" lon="5.71258">
        <ele>848</ele>
        <time>2021-02-21T16:29:01.322Z</time>
      </trkpt>
      <trkpt lat="45.62864" lon="5.71256">
        <ele>850</ele>
        <time>2021-02-21T16:29:05.343Z</time>
      </trkpt>
      <trkpt lat="45.62838" lon="5.71272">
        <ele>850</ele>
        <time>2021-02-21T16:29:10.321Z</time>
      </trkpt>
      <trkpt lat="45.62806" lon="5.71287">
        <ele>854</ele>
        <time>2021-02-21T16:29:15.320Z</time>
      </trkpt>
      <trkpt lat="45.62771" lon="5.71289">
        <ele>856</ele>
        <time>2021-02-21T16:29:20.336Z</time>
      </trkpt>
      <trkpt lat="45.62739" lon="5.71291">
        <ele>857</ele>
        <time>2021-02-21T16:29:25.303Z</time>
      </trkpt>
      <trkpt lat="45.62718" lon="5.71302">
        <ele>857</ele>
        <time>2021-02-21T16:29:29.309Z</time>
      </trkpt>
      <trkpt lat="45.62699" lon="5.71313">
        <ele>858</ele>
        <time>2021-02-21T16:29:34.326Z</time>
      </trkpt>
      <trkpt lat="45.62689" lon="5.71318">
        <ele>858</ele>
        <time>2021-02-21T16:29:38.339Z</time>
      </trkpt>
      <trkpt lat="45.62682" lon="5.71323">
        <ele>856</ele>
        <time>2021-02-21T16:29:43.329Z</time>
      </trkpt>
      <trkpt lat="45.62675" lon="5.71327">
        <ele>854</ele>
        <time>2021-02-21T16:30:02.333Z</time>
      </trkpt>
      <trkpt lat="45.6267" lon="5.71335">
        <ele>854</ele>
        <time>2021-02-21T16:30:16.317Z</time>
      </trkpt>
      <trkpt lat="45.62667" lon="5.71346">
        <ele>854</ele>
        <time>2021-02-21T16:30:26.365Z</time>
      </trkpt>
      <trkpt lat="45.62665" lon="5.71351">
        <ele>851</ele>
        <time>2021-02-21T16:30:31.327Z</time>
      </trkpt>
      <trkpt lat="45.62657" lon="5.71355">
        <ele>851</ele>
        <time>2021-02-21T16:30:39.315Z</time>
      </trkpt>
      <trkpt lat="45.62645" lon="5.71352">
        <ele>847</ele>
        <time>2021-02-21T16:30:54.326Z</time>
      </trkpt>
      <trkpt lat="45.62638" lon="5.71355">
        <ele>847</ele>
        <time>2021-02-21T16:30:59.289Z</time>
      </trkpt>
      <trkpt lat="45.62628" lon="5.71355">
        <ele>847</ele>
        <time>2021-02-21T16:31:03.312Z</time>
      </trkpt>
      <trkpt lat="45.62612" lon="5.71358">
        <ele>844</ele>
        <time>2021-02-21T16:31:08.315Z</time>
      </trkpt>
      <trkpt lat="45.62598" lon="5.7137">
        <ele>844</ele>
        <time>2021-02-21T16:31:13.317Z</time>
      </trkpt>
      <trkpt lat="45.6259" lon="5.7138">
        <ele>842</ele>
        <time>2021-02-21T16:31:18.344Z</time>
      </trkpt>
      <trkpt lat="45.62584" lon="5.71394">
        <ele>842</ele>
        <time>2021-02-21T16:31:23.343Z</time>
      </trkpt>
      <trkpt lat="45.62589" lon="5.71405">
        <ele>840</ele>
        <time>2021-02-21T16:31:27.349Z</time>
      </trkpt>
      <trkpt lat="45.62598" lon="5.7143">
        <ele>843</ele>
        <time>2021-02-21T16:31:32.348Z</time>
      </trkpt>
      <trkpt lat="45.62617" lon="5.71453">
        <ele>841</ele>
        <time>2021-02-21T16:31:37.319Z</time>
      </trkpt>
      <trkpt lat="45.62642" lon="5.71471">
        <ele>839</ele>
        <time>2021-02-21T16:31:42.325Z</time>
      </trkpt>
      <trkpt lat="45.62662" lon="5.71488">
        <ele>832</ele>
        <time>2021-02-21T16:31:47.349Z</time>
      </trkpt>
      <trkpt lat="45.6267" lon="5.71495">
        <ele>832</ele>
        <time>2021-02-21T16:31:51.351Z</time>
      </trkpt>
      <trkpt lat="45.62678" lon="5.715">
        <ele>832</ele>
        <time>2021-02-21T16:31:55.407Z</time>
      </trkpt>
      <trkpt lat="45.62688" lon="5.71513">
        <ele>832</ele>
        <time>2021-02-21T16:32:00.291Z</time>
      </trkpt>
      <trkpt lat="45.62695" lon="5.71516">
        <ele>829</ele>
        <time>2021-02-21T16:32:09.310Z</time>
      </trkpt>
      <trkpt lat="45.62704" lon="5.71513">
        <ele>832</ele>
        <time>2021-02-21T16:32:18.326Z</time>
      </trkpt>
      <trkpt lat="45.62713" lon="5.71511">
        <ele>834</ele>
        <time>2021-02-21T16:32:38.353Z</time>
      </trkpt>
      <trkpt lat="45.62724" lon="5.71508">
        <ele>834</ele>
        <time>2021-02-21T16:32:47.331Z</time>
      </trkpt>
      <trkpt lat="45.62733" lon="5.71506">
        <ele>834</ele>
        <time>2021-02-21T16:32:56.330Z</time>
      </trkpt>
      <trkpt lat="45.62745" lon="5.71497">
        <ele>834</ele>
        <time>2021-02-21T16:33:05.350Z</time>
      </trkpt>
      <trkpt lat="45.62752" lon="5.7149">
        <ele>834</ele>
        <time>2021-02-21T16:33:10.407Z</time>
      </trkpt>
      <trkpt lat="45.6276" lon="5.71483">
        <ele>837</ele>
        <time>2021-02-21T16:33:19.290Z</time>
      </trkpt>
      <trkpt lat="45.62767" lon="5.71475">
        <ele>834</ele>
        <time>2021-02-21T16:33:33.281Z</time>
      </trkpt>
      <trkpt lat="45.62776" lon="5.71469">
        <ele>834</ele>
        <time>2021-02-21T16:33:38.358Z</time>
      </trkpt>
      <trkpt lat="45.62785" lon="5.71468">
        <ele>834</ele>
        <time>2021-02-21T16:33:57.320Z</time>
      </trkpt>
      <trkpt lat="45.62794" lon="5.71472">
        <ele>831</ele>
        <time>2021-02-21T16:34:11.331Z</time>
      </trkpt>
      <trkpt lat="45.62807" lon="5.71466">
        <ele>831</ele>
        <time>2021-02-21T16:34:16.330Z</time>
      </trkpt>
      <trkpt lat="45.62815" lon="5.7146">
        <ele>831</ele>
        <time>2021-02-21T16:34:21.301Z</time>
      </trkpt>
      <trkpt lat="45.62825" lon="5.71453">
        <ele>829</ele>
        <time>2021-02-21T16:34:25.323Z</time>
      </trkpt>
      <trkpt lat="45.62832" lon="5.71449">
        <ele>829</ele>
        <time>2021-02-21T16:34:30.324Z</time>
      </trkpt>
      <trkpt lat="45.62833" lon="5.71449">
        <ele>829</ele>
        <time>2021-02-21T16:34:34.341Z</time>
      </trkpt>
      <trkpt lat="45.62844" lon="5.7145">
        <ele>829</ele>
        <time>2021-02-21T16:34:39.291Z</time>
      </trkpt>
      <trkpt lat="45.6285" lon="5.71457">
        <ele>826</ele>
        <time>2021-02-21T16:34:43.304Z</time>
      </trkpt>
      <trkpt lat="45.62856" lon="5.71463">
        <ele>824</ele>
        <time>2021-02-21T16:34:48.314Z</time>
      </trkpt>
      <trkpt lat="45.62861" lon="5.7147">
        <ele>824</ele>
        <time>2021-02-21T16:34:52.380Z</time>
      </trkpt>
      <trkpt lat="45.62869" lon="5.71486">
        <ele>823</ele>
        <time>2021-02-21T16:34:57.340Z</time>
      </trkpt>
      <trkpt lat="45.62875" lon="5.71499">
        <ele>818</ele>
        <time>2021-02-21T16:35:02.289Z</time>
      </trkpt>
      <trkpt lat="45.62882" lon="5.7151">
        <ele>818</ele>
        <time>2021-02-21T16:35:07.320Z</time>
      </trkpt>
      <trkpt lat="45.62888" lon="5.71522">
        <ele>817</ele>
        <time>2021-02-21T16:35:12.341Z</time>
      </trkpt>
      <trkpt lat="45.62894" lon="5.71533">
        <ele>817</ele>
        <time>2021-02-21T16:35:17.345Z</time>
      </trkpt>
      <trkpt lat="45.62899" lon="5.7154">
        <ele>817</ele>
        <time>2021-02-21T16:35:22.332Z</time>
      </trkpt>
      <trkpt lat="45.62908" lon="5.71546">
        <ele>813</ele>
        <time>2021-02-21T16:35:26.322Z</time>
      </trkpt>
      <trkpt lat="45.62919" lon="5.71557">
        <ele>813</ele>
        <time>2021-02-21T16:35:31.332Z</time>
      </trkpt>
      <trkpt lat="45.62928" lon="5.71568">
        <ele>813</ele>
        <time>2021-02-21T16:35:35.345Z</time>
      </trkpt>
      <trkpt lat="45.62937" lon="5.7157">
        <ele>810</ele>
        <time>2021-02-21T16:35:40.331Z</time>
      </trkpt>
      <trkpt lat="45.62944" lon="5.71565">
        <ele>810</ele>
        <time>2021-02-21T16:35:44.331Z</time>
      </trkpt>
      <trkpt lat="45.62956" lon="5.71562">
        <ele>810</ele>
        <time>2021-02-21T16:35:49.336Z</time>
      </trkpt>
      <trkpt lat="45.62966" lon="5.7156">
        <ele>808</ele>
        <time>2021-02-21T16:35:54.332Z</time>
      </trkpt>
      <trkpt lat="45.62971" lon="5.71561">
        <ele>808</ele>
        <time>2021-02-21T16:35:59.342Z</time>
      </trkpt>
      <trkpt lat="45.62972" lon="5.7156">
        <ele>808</ele>
        <time>2021-02-21T16:36:04.326Z</time>
      </trkpt>
      <trkpt lat="45.62974" lon="5.7156">
        <ele>808</ele>
        <time>2021-02-21T16:36:09.326Z</time>
      </trkpt>
      <trkpt lat="45.62976" lon="5.71561">
        <ele>808</ele>
        <time>2021-02-21T16:36:14.293Z</time>
      </trkpt>
      <trkpt lat="45.62981" lon="5.71563">
        <ele>808</ele>
        <time>2021-02-21T16:36:18.333Z</time>
      </trkpt>
      <trkpt lat="45.6299" lon="5.71567">
        <ele>804</ele>
        <time>2021-02-21T16:36:23.373Z</time>
      </trkpt>
      <trkpt lat="45.62996" lon="5.71574">
        <ele>802</ele>
        <time>2021-02-21T16:36:27.332Z</time>
      </trkpt>
      <trkpt lat="45.63005" lon="5.71587">
        <ele>802</ele>
        <time>2021-02-21T16:36:32.336Z</time>
      </trkpt>
      <trkpt lat="45.63012" lon="5.71595">
        <ele>802</ele>
        <time>2021-02-21T16:36:37.324Z</time>
      </trkpt>
      <trkpt lat="45.63021" lon="5.71603">
        <ele>800</ele>
        <time>2021-02-21T16:36:42.357Z</time>
      </trkpt>
      <trkpt lat="45.63028" lon="5.71611">
        <ele>800</ele>
        <time>2021-02-21T16:36:47.353Z</time>
      </trkpt>
      <trkpt lat="45.63036" lon="5.71623">
        <ele>800</ele>
        <time>2021-02-21T16:36:52.353Z</time>
      </trkpt>
      <trkpt lat="45.63042" lon="5.71632">
        <ele>802</ele>
        <time>2021-02-21T16:36:57.321Z</time>
      </trkpt>
      <trkpt lat="45.63047" lon="5.71639">
        <ele>802</ele>
        <time>2021-02-21T16:37:02.389Z</time>
      </trkpt>
      <trkpt lat="45.63052" lon="5.71646">
        <ele>802</ele>
        <time>2021-02-21T16:37:07.349Z</time>
      </trkpt>
      <trkpt lat="45.63054" lon="5.71653">
        <ele>799</ele>
        <time>2021-02-21T16:37:12.279Z</time>
      </trkpt>
      <trkpt lat="45.63055" lon="5.71656">
        <ele>799</ele>
        <time>2021-02-21T16:37:16.329Z</time>
      </trkpt>
      <trkpt lat="45.63057" lon="5.71667">
        <ele>799</ele>
        <time>2021-02-21T16:37:21.362Z</time>
      </trkpt>
      <trkpt lat="45.63059" lon="5.71674">
        <ele>799</ele>
        <time>2021-02-21T16:37:26.307Z</time>
      </trkpt>
      <trkpt lat="45.63061" lon="5.71682">
        <ele>793</ele>
        <time>2021-02-21T16:37:30.376Z</time>
      </trkpt>
      <trkpt lat="45.63064" lon="5.7169">
        <ele>793</ele>
        <time>2021-02-21T16:37:35.339Z</time>
      </trkpt>
      <trkpt lat="45.63066" lon="5.71695">
        <ele>793</ele>
        <time>2021-02-21T16:37:40.324Z</time>
      </trkpt>
      <trkpt lat="45.63067" lon="5.71698">
        <ele>793</ele>
        <time>2021-02-21T16:37:44.350Z</time>
      </trkpt>
      <trkpt lat="45.6307" lon="5.71705">
        <ele>797</ele>
        <time>2021-02-21T16:37:49.335Z</time>
      </trkpt>
      <trkpt lat="45.63073" lon="5.71712">
        <ele>788</ele>
        <time>2021-02-21T16:37:54.358Z</time>
      </trkpt>
      <trkpt lat="45.63077" lon="5.71718">
        <ele>788</ele>
        <time>2021-02-21T16:37:59.329Z</time>
      </trkpt>
      <trkpt lat="45.63079" lon="5.71723">
        <ele>788</ele>
        <time>2021-02-21T16:38:03.362Z</time>
      </trkpt>
      <trkpt lat="45.6308" lon="5.71729">
        <ele>788</ele>
        <time>2021-02-21T16:38:08.351Z</time>
      </trkpt>
      <trkpt lat="45.63077" lon="5.7174">
        <ele>783</ele>
        <time>2021-02-21T16:38:13.338Z</time>
      </trkpt>
      <trkpt lat="45.63073" lon="5.71748">
        <ele>783</ele>
        <time>2021-02-21T16:38:18.364Z</time>
      </trkpt>
      <trkpt lat="45.63069" lon="5.71757">
        <ele>780</ele>
        <time>2021-02-21T16:38:23.349Z</time>
      </trkpt>
      <trkpt lat="45.63062" lon="5.71766">
        <ele>777</ele>
        <time>2021-02-21T16:38:28.332Z</time>
      </trkpt>
      <trkpt lat="45.63053" lon="5.71778">
        <ele>777</ele>
        <time>2021-02-21T16:38:33.327Z</time>
      </trkpt>
      <trkpt lat="45.63044" lon="5.71787">
        <ele>777</ele>
        <time>2021-02-21T16:38:37.328Z</time>
      </trkpt>
      <trkpt lat="45.63036" lon="5.71798">
        <ele>776</ele>
        <time>2021-02-21T16:38:42.320Z</time>
      </trkpt>
      <trkpt lat="45.63031" lon="5.71804">
        <ele>776</ele>
        <time>2021-02-21T16:38:46.368Z</time>
      </trkpt>
      <trkpt lat="45.63024" lon="5.71811">
        <ele>776</ele>
        <time>2021-02-21T16:38:51.314Z</time>
      </trkpt>
      <trkpt lat="45.63018" lon="5.71821">
        <ele>774</ele>
        <time>2021-02-21T16:38:56.322Z</time>
      </trkpt>
      <trkpt lat="45.63011" lon="5.71828">
        <ele>774</ele>
        <time>2021-02-21T16:39:01.340Z</time>
      </trkpt>
      <trkpt lat="45.63005" lon="5.71835">
        <ele>774</ele>
        <time>2021-02-21T16:39:06.312Z</time>
      </trkpt>
      <trkpt lat="45.62999" lon="5.7184">
        <ele>774</ele>
        <time>2021-02-21T16:39:10.352Z</time>
      </trkpt>
      <trkpt lat="45.62991" lon="5.71847">
        <ele>774</ele>
        <time>2021-02-21T16:39:15.329Z</time>
      </trkpt>
      <trkpt lat="45.62983" lon="5.71853">
        <ele>769</ele>
        <time>2021-02-21T16:39:20.324Z</time>
      </trkpt>
      <trkpt lat="45.62973" lon="5.71859">
        <ele>769</ele>
        <time>2021-02-21T16:39:25.320Z</time>
      </trkpt>
      <trkpt lat="45.62967" lon="5.71865">
        <ele>769</ele>
        <time>2021-02-21T16:39:30.336Z</time>
      </trkpt>
      <trkpt lat="45.62959" lon="5.71872">
        <ele>769</ele>
        <time>2021-02-21T16:39:35.300Z</time>
      </trkpt>
      <trkpt lat="45.62953" lon="5.71878">
        <ele>765</ele>
        <time>2021-02-21T16:39:39.334Z</time>
      </trkpt>
      <trkpt lat="45.62949" lon="5.71884">
        <ele>765</ele>
        <time>2021-02-21T16:39:43.343Z</time>
      </trkpt>
      <trkpt lat="45.62942" lon="5.71889">
        <ele>765</ele>
        <time>2021-02-21T16:39:48.362Z</time>
      </trkpt>
      <trkpt lat="45.62935" lon="5.71894">
        <ele>765</ele>
        <time>2021-02-21T16:39:53.333Z</time>
      </trkpt>
      <trkpt lat="45.6293" lon="5.719">
        <ele>766</ele>
        <time>2021-02-21T16:39:57.357Z</time>
      </trkpt>
      <trkpt lat="45.62925" lon="5.71904">
        <ele>762</ele>
        <time>2021-02-21T16:40:01.342Z</time>
      </trkpt>
      <trkpt lat="45.62918" lon="5.71907">
        <ele>762</ele>
        <time>2021-02-21T16:40:06.341Z</time>
      </trkpt>
      <trkpt lat="45.6291" lon="5.7191">
        <ele>762</ele>
        <time>2021-02-21T16:40:11.363Z</time>
      </trkpt>
      <trkpt lat="45.62903" lon="5.71914">
        <ele>762</ele>
        <time>2021-02-21T16:40:16.347Z</time>
      </trkpt>
      <trkpt lat="45.62897" lon="5.71918">
        <ele>761</ele>
        <time>2021-02-21T16:40:21.358Z</time>
      </trkpt>
      <trkpt lat="45.62891" lon="5.71923">
        <ele>761</ele>
        <time>2021-02-21T16:40:26.330Z</time>
      </trkpt>
      <trkpt lat="45.62885" lon="5.71927">
        <ele>761</ele>
        <time>2021-02-21T16:40:30.342Z</time>
      </trkpt>
      <trkpt lat="45.62877" lon="5.71932">
        <ele>758</ele>
        <time>2021-02-21T16:40:35.346Z</time>
      </trkpt>
      <trkpt lat="45.62869" lon="5.71937">
        <ele>757</ele>
        <time>2021-02-21T16:40:40.368Z</time>
      </trkpt>
      <trkpt lat="45.62863" lon="5.71942">
        <ele>757</ele>
        <time>2021-02-21T16:40:45.338Z</time>
      </trkpt>
      <trkpt lat="45.62857" lon="5.71947">
        <ele>757</ele>
        <time>2021-02-21T16:40:49.355Z</time>
      </trkpt>
      <trkpt lat="45.62851" lon="5.71951">
        <ele>757</ele>
        <time>2021-02-21T16:40:54.310Z</time>
      </trkpt>
      <trkpt lat="45.62845" lon="5.71955">
        <ele>758</ele>
        <time>2021-02-21T16:40:58.405Z</time>
      </trkpt>
      <trkpt lat="45.62839" lon="5.71961">
        <ele>753</ele>
        <time>2021-02-21T16:41:03.336Z</time>
      </trkpt>
      <trkpt lat="45.62831" lon="5.71965">
        <ele>753</ele>
        <time>2021-02-21T16:41:08.334Z</time>
      </trkpt>
      <trkpt lat="45.62822" lon="5.71968">
        <ele>753</ele>
        <time>2021-02-21T16:41:13.316Z</time>
      </trkpt>
      <trkpt lat="45.62816" lon="5.7197">
        <ele>755</ele>
        <time>2021-02-21T16:41:18.345Z</time>
      </trkpt>
      <trkpt lat="45.6281" lon="5.71975">
        <ele>755</ele>
        <time>2021-02-21T16:41:23.329Z</time>
      </trkpt>
      <trkpt lat="45.62805" lon="5.71978">
        <ele>755</ele>
        <time>2021-02-21T16:41:27.321Z</time>
      </trkpt>
      <trkpt lat="45.62799" lon="5.71986">
        <ele>755</ele>
        <time>2021-02-21T16:41:32.321Z</time>
      </trkpt>
      <trkpt lat="45.62796" lon="5.71991">
        <ele>755</ele>
        <time>2021-02-21T16:41:36.346Z</time>
      </trkpt>
      <trkpt lat="45.62795" lon="5.71999">
        <ele>755</ele>
        <time>2021-02-21T16:41:41.317Z</time>
      </trkpt>
      <trkpt lat="45.62795" lon="5.7201">
        <ele>755</ele>
        <time>2021-02-21T16:41:45.346Z</time>
      </trkpt>
      <trkpt lat="45.62797" lon="5.72017">
        <ele>756</ele>
        <time>2021-02-21T16:41:49.384Z</time>
      </trkpt>
      <trkpt lat="45.62799" lon="5.72026">
        <ele>756</ele>
        <time>2021-02-21T16:41:54.319Z</time>
      </trkpt>
      <trkpt lat="45.62804" lon="5.72027">
        <ele>756</ele>
        <time>2021-02-21T16:41:58.322Z</time>
      </trkpt>
      <trkpt lat="45.62808" lon="5.72026">
        <ele>756</ele>
        <time>2021-02-21T16:42:03.313Z</time>
      </trkpt>
      <trkpt lat="45.62812" lon="5.72026">
        <ele>756</ele>
        <time>2021-02-21T16:42:07.347Z</time>
      </trkpt>
      <trkpt lat="45.62817" lon="5.72029">
        <ele>756</ele>
        <time>2021-02-21T16:42:12.322Z</time>
      </trkpt>
      <trkpt lat="45.62822" lon="5.72031">
        <ele>749</ele>
        <time>2021-02-21T16:42:16.326Z</time>
      </trkpt>
      <trkpt lat="45.62828" lon="5.72035">
        <ele>749</ele>
        <time>2021-02-21T16:42:21.322Z</time>
      </trkpt>
      <trkpt lat="45.62835" lon="5.7204">
        <ele>749</ele>
        <time>2021-02-21T16:42:26.374Z</time>
      </trkpt>
      <trkpt lat="45.6284" lon="5.72045">
        <ele>747</ele>
        <time>2021-02-21T16:42:31.334Z</time>
      </trkpt>
      <trkpt lat="45.62845" lon="5.72048">
        <ele>747</ele>
        <time>2021-02-21T16:42:36.295Z</time>
      </trkpt>
      <trkpt lat="45.62847" lon="5.72048">
        <ele>747</ele>
        <time>2021-02-21T16:42:40.367Z</time>
      </trkpt>
      <trkpt lat="45.62847" lon="5.72049">
        <ele>739</ele>
        <time>2021-02-21T16:42:45.284Z</time>
      </trkpt>
      <trkpt lat="45.62852" lon="5.72054">
        <ele>739</ele>
        <time>2021-02-21T16:42:49.345Z</time>
      </trkpt>
      <trkpt lat="45.62856" lon="5.72056">
        <ele>739</ele>
        <time>2021-02-21T16:42:54.337Z</time>
      </trkpt>
      <trkpt lat="45.62862" lon="5.72062">
        <ele>739</ele>
        <time>2021-02-21T16:42:59.336Z</time>
      </trkpt>
      <trkpt lat="45.62866" lon="5.72065">
        <ele>739</ele>
        <time>2021-02-21T16:43:03.338Z</time>
      </trkpt>
      <trkpt lat="45.62871" lon="5.72068">
        <ele>739</ele>
        <time>2021-02-21T16:43:08.395Z</time>
      </trkpt>
      <trkpt lat="45.62877" lon="5.72069">
        <ele>735</ele>
        <time>2021-02-21T16:43:13.284Z</time>
      </trkpt>
      <trkpt lat="45.62881" lon="5.7207">
        <ele>730</ele>
        <time>2021-02-21T16:43:17.350Z</time>
      </trkpt>
      <trkpt lat="45.62884" lon="5.72071">
        <ele>730</ele>
        <time>2021-02-21T16:43:22.368Z</time>
      </trkpt>
      <trkpt lat="45.62888" lon="5.7208">
        <ele>730</ele>
        <time>2021-02-21T16:43:27.331Z</time>
      </trkpt>
      <trkpt lat="45.62885" lon="5.72085">
        <ele>730</ele>
        <time>2021-02-21T16:43:31.320Z</time>
      </trkpt>
      <trkpt lat="45.62879" lon="5.72089">
        <ele>730</ele>
        <time>2021-02-21T16:43:36.407Z</time>
      </trkpt>
      <trkpt lat="45.62877" lon="5.72105">
        <ele>726</ele>
        <time>2021-02-21T16:44:06.354Z</time>
      </trkpt>
      <trkpt lat="45.62883" lon="5.721">
        <ele>726</ele>
        <time>2021-02-21T16:44:11.310Z</time>
      </trkpt>
      <trkpt lat="45.6289" lon="5.72096">
        <ele>730</ele>
        <time>2021-02-21T16:44:15.343Z</time>
      </trkpt>
      <trkpt lat="45.62896" lon="5.72094">
        <ele>730</ele>
        <time>2021-02-21T16:44:19.342Z</time>
      </trkpt>
      <trkpt lat="45.62899" lon="5.72091">
        <ele>730</ele>
        <time>2021-02-21T16:44:24.321Z</time>
      </trkpt>
      <trkpt lat="45.62903" lon="5.72089">
        <ele>725</ele>
        <time>2021-02-21T16:44:28.382Z</time>
      </trkpt>
      <trkpt lat="45.62911" lon="5.72089">
        <ele>725</ele>
        <time>2021-02-21T16:44:33.366Z</time>
      </trkpt>
      <trkpt lat="45.62915" lon="5.72089">
        <ele>725</ele>
        <time>2021-02-21T16:44:38.331Z</time>
      </trkpt>
      <trkpt lat="45.62916" lon="5.7209">
        <ele>725</ele>
        <time>2021-02-21T16:44:43.332Z</time>
      </trkpt>
      <trkpt lat="45.6292" lon="5.7209">
        <ele>725</ele>
        <time>2021-02-21T16:44:47.348Z</time>
      </trkpt>
      <trkpt lat="45.6293" lon="5.72089">
        <ele>725</ele>
        <time>2021-02-21T16:44:52.289Z</time>
      </trkpt>
      <trkpt lat="45.62937" lon="5.72088">
        <ele>720</ele>
        <time>2021-02-21T16:44:56.354Z</time>
      </trkpt>
      <trkpt lat="45.62943" lon="5.72087">
        <ele>720</ele>
        <time>2021-02-21T16:45:01.338Z</time>
      </trkpt>
      <trkpt lat="45.62948" lon="5.72087">
        <ele>720</ele>
        <time>2021-02-21T16:45:06.330Z</time>
      </trkpt>
      <trkpt lat="45.62956" lon="5.72087">
        <ele>720</ele>
        <time>2021-02-21T16:45:11.332Z</time>
      </trkpt>
      <trkpt lat="45.62963" lon="5.72085">
        <ele>718</ele>
        <time>2021-02-21T16:45:16.334Z</time>
      </trkpt>
      <trkpt lat="45.62969" lon="5.72085">
        <ele>718</ele>
        <time>2021-02-21T16:45:20.371Z</time>
      </trkpt>
      <trkpt lat="45.62976" lon="5.72085">
        <ele>718</ele>
        <time>2021-02-21T16:45:25.296Z</time>
      </trkpt>
      <trkpt lat="45.62979" lon="5.72085">
        <ele>718</ele>
        <time>2021-02-21T16:45:29.328Z</time>
      </trkpt>
      <trkpt lat="45.6298" lon="5.72086">
        <ele>718</ele>
        <time>2021-02-21T16:45:33.316Z</time>
      </trkpt>
      <trkpt lat="45.62986" lon="5.72092">
        <ele>718</ele>
        <time>2021-02-21T16:45:38.334Z</time>
      </trkpt>
      <trkpt lat="45.62988" lon="5.72098">
        <ele>713</ele>
        <time>2021-02-21T16:45:43.371Z</time>
      </trkpt>
      <trkpt lat="45.62989" lon="5.72102">
        <ele>713</ele>
        <time>2021-02-21T16:45:48.340Z</time>
      </trkpt>
      <trkpt lat="45.62989" lon="5.72103">
        <ele>713</ele>
        <time>2021-02-21T16:45:52.352Z</time>
      </trkpt>
      <trkpt lat="45.6299" lon="5.72113">
        <ele>713</ele>
        <time>2021-02-21T16:45:57.337Z</time>
      </trkpt>
      <trkpt lat="45.62987" lon="5.72121">
        <ele>713</ele>
        <time>2021-02-21T16:46:02.330Z</time>
      </trkpt>
      <trkpt lat="45.62985" lon="5.72126">
        <ele>710</ele>
        <time>2021-02-21T16:46:06.340Z</time>
      </trkpt>
      <trkpt lat="45.62981" lon="5.72132">
        <ele>710</ele>
        <time>2021-02-21T16:46:11.326Z</time>
      </trkpt>
      <trkpt lat="45.62975" lon="5.72141">
        <ele>710</ele>
        <time>2021-02-21T16:46:16.348Z</time>
      </trkpt>
      <trkpt lat="45.62972" lon="5.72148">
        <ele>710</ele>
        <time>2021-02-21T16:46:20.326Z</time>
      </trkpt>
      <trkpt lat="45.62967" lon="5.72156">
        <ele>706</ele>
        <time>2021-02-21T16:46:25.347Z</time>
      </trkpt>
      <trkpt lat="45.62964" lon="5.72164">
        <ele>706</ele>
        <time>2021-02-21T16:46:30.353Z</time>
      </trkpt>
      <trkpt lat="45.6296" lon="5.7217">
        <ele>706</ele>
        <time>2021-02-21T16:46:34.337Z</time>
      </trkpt>
      <trkpt lat="45.62956" lon="5.72177">
        <ele>709</ele>
        <time>2021-02-21T16:46:38.417Z</time>
      </trkpt>
      <trkpt lat="45.62951" lon="5.72183">
        <ele>703</ele>
        <time>2021-02-21T16:46:43.333Z</time>
      </trkpt>
      <trkpt lat="45.62949" lon="5.7219">
        <ele>703</ele>
        <time>2021-02-21T16:46:48.331Z</time>
      </trkpt>
      <trkpt lat="45.62947" lon="5.72193">
        <ele>703</ele>
        <time>2021-02-21T16:46:52.359Z</time>
      </trkpt>
      <trkpt lat="45.62947" lon="5.72194">
        <ele>703</ele>
        <time>2021-02-21T16:46:57.334Z</time>
      </trkpt>
      <trkpt lat="45.62946" lon="5.72196">
        <ele>703</ele>
        <time>2021-02-21T16:47:02.428Z</time>
      </trkpt>
      <trkpt lat="45.62941" lon="5.72205">
        <ele>703</ele>
        <time>2021-02-21T16:47:07.345Z</time>
      </trkpt>
      <trkpt lat="45.62938" lon="5.72214">
        <ele>700</ele>
        <time>2021-02-21T16:47:12.354Z</time>
      </trkpt>
      <trkpt lat="45.62934" lon="5.7222">
        <ele>700</ele>
        <time>2021-02-21T16:47:27.334Z</time>
      </trkpt>
      <trkpt lat="45.62931" lon="5.72221">
        <ele>700</ele>
        <time>2021-02-21T16:47:32.300Z</time>
      </trkpt>
      <trkpt lat="45.6293" lon="5.72222">
        <ele>703</ele>
        <time>2021-02-21T16:47:36.321Z</time>
      </trkpt>
      <trkpt lat="45.62928" lon="5.72221">
        <ele>703</ele>
        <time>2021-02-21T16:47:41.333Z</time>
      </trkpt>
      <trkpt lat="45.62926" lon="5.72224">
        <ele>703</ele>
        <time>2021-02-21T16:47:46.288Z</time>
      </trkpt>
      <trkpt lat="45.62923" lon="5.72233">
        <ele>703</ele>
        <time>2021-02-21T16:47:50.310Z</time>
      </trkpt>
      <trkpt lat="45.62921" lon="5.72242">
        <ele>699</ele>
        <time>2021-02-21T16:47:55.285Z</time>
      </trkpt>
      <trkpt lat="45.62921" lon="5.7225">
        <ele>699</ele>
        <time>2021-02-21T16:47:59.291Z</time>
      </trkpt>
      <trkpt lat="45.6292" lon="5.72255">
        <ele>699</ele>
        <time>2021-02-21T16:48:03.315Z</time>
      </trkpt>
      <trkpt lat="45.62921" lon="5.72262">
        <ele>699</ele>
        <time>2021-02-21T16:48:07.318Z</time>
      </trkpt>
      <trkpt lat="45.6292" lon="5.72271">
        <ele>697</ele>
        <time>2021-02-21T16:48:12.344Z</time>
      </trkpt>
      <trkpt lat="45.62916" lon="5.7228">
        <ele>697</ele>
        <time>2021-02-21T16:48:17.376Z</time>
      </trkpt>
      <trkpt lat="45.62911" lon="5.7229">
        <ele>697</ele>
        <time>2021-02-21T16:48:22.324Z</time>
      </trkpt>
      <trkpt lat="45.62905" lon="5.723">
        <ele>696</ele>
        <time>2021-02-21T16:48:27.342Z</time>
      </trkpt>
      <trkpt lat="45.62901" lon="5.7231">
        <ele>697</ele>
        <time>2021-02-21T16:48:32.328Z</time>
      </trkpt>
      <trkpt lat="45.62897" lon="5.7232">
        <ele>697</ele>
        <time>2021-02-21T16:48:37.300Z</time>
      </trkpt>
      <trkpt lat="45.62892" lon="5.72327">
        <ele>697</ele>
        <time>2021-02-21T16:48:42.355Z</time>
      </trkpt>
      <trkpt lat="45.62891" lon="5.72333">
        <ele>697</ele>
        <time>2021-02-21T16:48:47.338Z</time>
      </trkpt>
      <trkpt lat="45.62886" lon="5.72341">
        <ele>697</ele>
        <time>2021-02-21T16:48:52.329Z</time>
      </trkpt>
      <trkpt lat="45.62881" lon="5.72347">
        <ele>695</ele>
        <time>2021-02-21T16:48:57.293Z</time>
      </trkpt>
      <trkpt lat="45.62876" lon="5.72354">
        <ele>695</ele>
        <time>2021-02-21T16:49:02.301Z</time>
      </trkpt>
      <trkpt lat="45.6287" lon="5.72367">
        <ele>696</ele>
        <time>2021-02-21T16:49:07.301Z</time>
      </trkpt>
      <trkpt lat="45.62863" lon="5.72376">
        <ele>693</ele>
        <time>2021-02-21T16:49:12.322Z</time>
      </trkpt>
      <trkpt lat="45.62858" lon="5.72383">
        <ele>693</ele>
        <time>2021-02-21T16:49:17.333Z</time>
      </trkpt>
      <trkpt lat="45.62854" lon="5.72392">
        <ele>693</ele>
        <time>2021-02-21T16:49:22.340Z</time>
      </trkpt>
      <trkpt lat="45.6285" lon="5.724">
        <ele>693</ele>
        <time>2021-02-21T16:49:27.332Z</time>
      </trkpt>
      <trkpt lat="45.62845" lon="5.72406">
        <ele>692</ele>
        <time>2021-02-21T16:49:32.315Z</time>
      </trkpt>
      <trkpt lat="45.6284" lon="5.72414">
        <ele>692</ele>
        <time>2021-02-21T16:49:36.347Z</time>
      </trkpt>
      <trkpt lat="45.62832" lon="5.72421">
        <ele>692</ele>
        <time>2021-02-21T16:49:41.352Z</time>
      </trkpt>
      <trkpt lat="45.62826" lon="5.72427">
        <ele>692</ele>
        <time>2021-02-21T16:49:46.306Z</time>
      </trkpt>
      <trkpt lat="45.62821" lon="5.72432">
        <ele>688</ele>
        <time>2021-02-21T16:49:50.337Z</time>
      </trkpt>
      <trkpt lat="45.62817" lon="5.72436">
        <ele>689</ele>
        <time>2021-02-21T16:49:54.337Z</time>
      </trkpt>
      <trkpt lat="45.62813" lon="5.72439">
        <ele>689</ele>
        <time>2021-02-21T16:49:59.293Z</time>
      </trkpt>
      <trkpt lat="45.62808" lon="5.72441">
        <ele>689</ele>
        <time>2021-02-21T16:50:03.309Z</time>
      </trkpt>
      <trkpt lat="45.62803" lon="5.72445">
        <ele>689</ele>
        <time>2021-02-21T16:50:07.328Z</time>
      </trkpt>
      <trkpt lat="45.628" lon="5.72447">
        <ele>689</ele>
        <time>2021-02-21T16:50:11.367Z</time>
      </trkpt>
      <trkpt lat="45.62791" lon="5.72451">
        <ele>689</ele>
        <time>2021-02-21T16:50:16.355Z</time>
      </trkpt>
      <trkpt lat="45.62783" lon="5.72454">
        <ele>689</ele>
        <time>2021-02-21T16:50:21.345Z</time>
      </trkpt>
      <trkpt lat="45.62776" lon="5.72457">
        <ele>689</ele>
        <time>2021-02-21T16:50:26.327Z</time>
      </trkpt>
      <trkpt lat="45.62771" lon="5.72459">
        <ele>684</ele>
        <time>2021-02-21T16:50:30.336Z</time>
      </trkpt>
      <trkpt lat="45.62764" lon="5.72462">
        <ele>685</ele>
        <time>2021-02-21T16:50:35.341Z</time>
      </trkpt>
      <trkpt lat="45.62756" lon="5.72467">
        <ele>685</ele>
        <time>2021-02-21T16:50:40.330Z</time>
      </trkpt>
      <trkpt lat="45.62749" lon="5.72471">
        <ele>685</ele>
        <time>2021-02-21T16:50:45.318Z</time>
      </trkpt>
      <trkpt lat="45.62742" lon="5.72475">
        <ele>685</ele>
        <time>2021-02-21T16:50:50.310Z</time>
      </trkpt>
      <trkpt lat="45.62735" lon="5.72479">
        <ele>689</ele>
        <time>2021-02-21T16:50:55.339Z</time>
      </trkpt>
      <trkpt lat="45.6273" lon="5.72482">
        <ele>689</ele>
        <time>2021-02-21T16:51:00.337Z</time>
      </trkpt>
      <trkpt lat="45.62724" lon="5.72482">
        <ele>689</ele>
        <time>2021-02-21T16:51:05.320Z</time>
      </trkpt>
      <trkpt lat="45.62719" lon="5.72483">
        <ele>689</ele>
        <time>2021-02-21T16:51:09.366Z</time>
      </trkpt>
      <trkpt lat="45.62715" lon="5.72486">
        <ele>684</ele>
        <time>2021-02-21T16:51:13.345Z</time>
      </trkpt>
      <trkpt lat="45.62708" lon="5.72492">
        <ele>688</ele>
        <time>2021-02-21T16:51:18.344Z</time>
      </trkpt>
      <trkpt lat="45.627" lon="5.72504">
        <ele>688</ele>
        <time>2021-02-21T16:51:23.353Z</time>
      </trkpt>
      <trkpt lat="45.62693" lon="5.72516">
        <ele>682</ele>
        <time>2021-02-21T16:51:28.340Z</time>
      </trkpt>
      <trkpt lat="45.62691" lon="5.7252">
        <ele>682</ele>
        <time>2021-02-21T16:51:32.382Z</time>
      </trkpt>
      <trkpt lat="45.62687" lon="5.72523">
        <ele>682</ele>
        <time>2021-02-21T16:51:37.352Z</time>
      </trkpt>
      <trkpt lat="45.62683" lon="5.72528">
        <ele>682</ele>
        <time>2021-02-21T16:51:42.337Z</time>
      </trkpt>
      <trkpt lat="45.62678" lon="5.72532">
        <ele>685</ele>
        <time>2021-02-21T16:51:47.340Z</time>
      </trkpt>
      <trkpt lat="45.62671" lon="5.72536">
        <ele>685</ele>
        <time>2021-02-21T16:51:52.299Z</time>
      </trkpt>
      <trkpt lat="45.62667" lon="5.72539">
        <ele>685</ele>
        <time>2021-02-21T16:51:56.331Z</time>
      </trkpt>
      <trkpt lat="45.62662" lon="5.72543">
        <ele>677</ele>
        <time>2021-02-21T16:52:01.357Z</time>
      </trkpt>
      <trkpt lat="45.62656" lon="5.7255">
        <ele>677</ele>
        <time>2021-02-21T16:52:05.345Z</time>
      </trkpt>
      <trkpt lat="45.6265" lon="5.72558">
        <ele>680</ele>
        <time>2021-02-21T16:52:10.341Z</time>
      </trkpt>
      <trkpt lat="45.62648" lon="5.72566">
        <ele>680</ele>
        <time>2021-02-21T16:52:15.329Z</time>
      </trkpt>
      <trkpt lat="45.62645" lon="5.72573">
        <ele>673</ele>
        <time>2021-02-21T16:52:20.339Z</time>
      </trkpt>
      <trkpt lat="45.6264" lon="5.72575">
        <ele>673</ele>
        <time>2021-02-21T16:52:25.333Z</time>
      </trkpt>
      <trkpt lat="45.62634" lon="5.72571">
        <ele>673</ele>
        <time>2021-02-21T16:52:30.375Z</time>
      </trkpt>
      <trkpt lat="45.62629" lon="5.72578">
        <ele>673</ele>
        <time>2021-02-21T16:52:35.341Z</time>
      </trkpt>
      <trkpt lat="45.62624" lon="5.72582">
        <ele>677</ele>
        <time>2021-02-21T16:52:40.382Z</time>
      </trkpt>
      <trkpt lat="45.62618" lon="5.72585">
        <ele>677</ele>
        <time>2021-02-21T16:52:45.334Z</time>
      </trkpt>
      <trkpt lat="45.62612" lon="5.7259">
        <ele>677</ele>
        <time>2021-02-21T16:52:50.335Z</time>
      </trkpt>
      <trkpt lat="45.62606" lon="5.72592">
        <ele>677</ele>
        <time>2021-02-21T16:52:55.356Z</time>
      </trkpt>
      <trkpt lat="45.62601" lon="5.72595">
        <ele>677</ele>
        <time>2021-02-21T16:53:00.344Z</time>
      </trkpt>
      <trkpt lat="45.62595" lon="5.72598">
        <ele>672</ele>
        <time>2021-02-21T16:53:05.372Z</time>
      </trkpt>
      <trkpt lat="45.6259" lon="5.72601">
        <ele>672</ele>
        <time>2021-02-21T16:53:10.351Z</time>
      </trkpt>
      <trkpt lat="45.6258" lon="5.72611">
        <ele>672</ele>
        <time>2021-02-21T16:53:35.343Z</time>
      </trkpt>
      <trkpt lat="45.62577" lon="5.72614">
        <ele>672</ele>
        <time>2021-02-21T16:53:40.342Z</time>
      </trkpt>
      <trkpt lat="45.62576" lon="5.72614">
        <ele>672</ele>
        <time>2021-02-21T16:53:45.350Z</time>
      </trkpt>
      <trkpt lat="45.62575" lon="5.72614">
        <ele>672</ele>
        <time>2021-02-21T16:53:49.381Z</time>
      </trkpt>
      <trkpt lat="45.62572" lon="5.72614">
        <ele>672</ele>
        <time>2021-02-21T16:53:53.336Z</time>
      </trkpt>
      <trkpt lat="45.62568" lon="5.72615">
        <ele>675</ele>
        <time>2021-02-21T16:53:58.352Z</time>
      </trkpt>
      <trkpt lat="45.62562" lon="5.72621">
        <ele>675</ele>
        <time>2021-02-21T16:54:03.303Z</time>
      </trkpt>
      <trkpt lat="45.62557" lon="5.72624">
        <ele>675</ele>
        <time>2021-02-21T16:54:07.335Z</time>
      </trkpt>
      <trkpt lat="45.62552" lon="5.7263">
        <ele>667</ele>
        <time>2021-02-21T16:54:12.401Z</time>
      </trkpt>
      <trkpt lat="45.62558" lon="5.72634">
        <ele>667</ele>
        <time>2021-02-21T16:54:17.331Z</time>
      </trkpt>
      <trkpt lat="45.62565" lon="5.72629">
        <ele>667</ele>
        <time>2021-02-21T16:54:22.356Z</time>
      </trkpt>
      <trkpt lat="45.6257" lon="5.72626">
        <ele>665</ele>
        <time>2021-02-21T16:54:27.357Z</time>
      </trkpt>
      <trkpt lat="45.62575" lon="5.72624">
        <ele>672</ele>
        <time>2021-02-21T16:54:31.344Z</time>
      </trkpt>
      <trkpt lat="45.62581" lon="5.72623">
        <ele>672</ele>
        <time>2021-02-21T16:54:35.409Z</time>
      </trkpt>
      <trkpt lat="45.62587" lon="5.72622">
        <ele>672</ele>
        <time>2021-02-21T16:54:40.359Z</time>
      </trkpt>
      <trkpt lat="45.62593" lon="5.72621">
        <ele>672</ele>
        <time>2021-02-21T16:54:45.337Z</time>
      </trkpt>
      <trkpt lat="45.62599" lon="5.7262">
        <ele>670</ele>
        <time>2021-02-21T16:54:50.330Z</time>
      </trkpt>
      <trkpt lat="45.62607" lon="5.7262">
        <ele>670</ele>
        <time>2021-02-21T16:54:55.341Z</time>
      </trkpt>
      <trkpt lat="45.62613" lon="5.72619">
        <ele>670</ele>
        <time>2021-02-21T16:54:59.345Z</time>
      </trkpt>
      <trkpt lat="45.62619" lon="5.72617">
        <ele>670</ele>
        <time>2021-02-21T16:55:04.339Z</time>
      </trkpt>
      <trkpt lat="45.62626" lon="5.72617">
        <ele>668</ele>
        <time>2021-02-21T16:55:09.347Z</time>
      </trkpt>
      <trkpt lat="45.62634" lon="5.72617">
        <ele>668</ele>
        <time>2021-02-21T16:55:14.330Z</time>
      </trkpt>
      <trkpt lat="45.6264" lon="5.72615">
        <ele>668</ele>
        <time>2021-02-21T16:55:19.344Z</time>
      </trkpt>
      <trkpt lat="45.62645" lon="5.72612">
        <ele>668</ele>
        <time>2021-02-21T16:55:23.342Z</time>
      </trkpt>
      <trkpt lat="45.62652" lon="5.72611">
        <ele>668</ele>
        <time>2021-02-21T16:55:28.359Z</time>
      </trkpt>
      <trkpt lat="45.62653" lon="5.72627">
        <ele>662</ele>
        <time>2021-02-21T16:55:52.333Z</time>
      </trkpt>
      <trkpt lat="45.62652" lon="5.72627">
        <ele>662</ele>
        <time>2021-02-21T16:55:56.357Z</time>
      </trkpt>
      <trkpt lat="45.62651" lon="5.72625">
        <ele>662</ele>
        <time>2021-02-21T16:56:01.328Z</time>
      </trkpt>
      <trkpt lat="45.62651" lon="5.72626">
        <ele>662</ele>
        <time>2021-02-21T16:56:06.317Z</time>
      </trkpt>
      <trkpt lat="45.62651" lon="5.72626">
        <ele>662</ele>
        <time>2021-02-21T16:56:11.327Z</time>
      </trkpt>
      <trkpt lat="45.62652" lon="5.72625">
        <ele>662</ele>
        <time>2021-02-21T16:56:15.331Z</time>
      </trkpt>
      <trkpt lat="45.62653" lon="5.72628">
        <ele>662</ele>
        <time>2021-02-21T16:56:19.369Z</time>
      </trkpt>
      <trkpt lat="45.62646" lon="5.72632">
        <ele>662</ele>
        <time>2021-02-21T16:56:24.342Z</time>
      </trkpt>
      <trkpt lat="45.62641" lon="5.72639">
        <ele>662</ele>
        <time>2021-02-21T16:56:29.320Z</time>
      </trkpt>
      <trkpt lat="45.62635" lon="5.72651">
        <ele>662</ele>
        <time>2021-02-21T16:57:53.317Z</time>
      </trkpt>
      <trkpt lat="45.62633" lon="5.7265">
        <ele>662</ele>
        <time>2021-02-21T16:57:57.326Z</time>
      </trkpt>
      <trkpt lat="45.62626" lon="5.72663">
        <ele>658</ele>
        <time>2021-02-21T16:58:08.312Z</time>
      </trkpt>
      <trkpt lat="45.62625" lon="5.72678">
        <ele>658</ele>
        <time>2021-02-21T16:58:18.348Z</time>
      </trkpt>
      <trkpt lat="45.62622" lon="5.72677">
        <ele>658</ele>
        <time>2021-02-21T16:58:26.340Z</time>
      </trkpt>
      <trkpt lat="45.62636" lon="5.72657">
        <ele>658</ele>
        <time>2021-02-21T17:05:01.351Z</time>
      </trkpt>
      <trkpt lat="45.6264" lon="5.72655">
        <ele>658</ele>
        <time>2021-02-21T17:05:06.318Z</time>
      </trkpt>
      <trkpt lat="45.62644" lon="5.72652">
        <ele>662</ele>
        <time>2021-02-21T17:05:10.342Z</time>
      </trkpt>
      <trkpt lat="45.6265" lon="5.72648">
        <ele>662</ele>
        <time>2021-02-21T17:05:15.332Z</time>
      </trkpt>
      <trkpt lat="45.62655" lon="5.72648">
        <ele>659</ele>
        <time>2021-02-21T17:05:20.320Z</time>
      </trkpt>
      <trkpt lat="45.62661" lon="5.72652">
        <ele>659</ele>
        <time>2021-02-21T17:06:17.294Z</time>
      </trkpt>
      <trkpt lat="45.62662" lon="5.7265">
        <ele>659</ele>
        <time>2021-02-21T17:06:21.327Z</time>
      </trkpt>
      <trkpt lat="45.62662" lon="5.72651">
        <ele>659</ele>
        <time>2021-02-21T17:06:25.319Z</time>
      </trkpt>
      <trkpt lat="45.62664" lon="5.72648">
        <ele>659</ele>
        <time>2021-02-21T17:06:29.384Z</time>
      </trkpt>
      <trkpt lat="45.62665" lon="5.72648">
        <ele>659</ele>
        <time>2021-02-21T17:06:34.303Z</time>
      </trkpt>
      <trkpt lat="45.62671" lon="5.72648">
        <ele>659</ele>
        <time>2021-02-21T17:06:57.318Z</time>
      </trkpt>
      <trkpt lat="45.62673" lon="5.7265">
        <ele>659</ele>
        <time>2021-02-21T17:07:02.314Z</time>
      </trkpt>
      <trkpt lat="45.62673" lon="5.72652">
        <ele>659</ele>
        <time>2021-02-21T17:07:07.330Z</time>
      </trkpt>
      <trkpt lat="45.62673" lon="5.72651">
        <ele>659</ele>
        <time>2021-02-21T17:07:12.324Z</time>
      </trkpt>
      <trkpt lat="45.62676" lon="5.72655">
        <ele>655</ele>
        <time>2021-02-21T17:07:19.330Z</time>
      </trkpt>
      <trkpt lat="45.62668" lon="5.72655">
        <ele>655</ele>
        <time>2021-02-21T17:09:49.343Z</time>
      </trkpt>
      <trkpt lat="45.62668" lon="5.72655">
        <ele>655</ele>
        <time>2021-02-21T17:09:54.355Z</time>
      </trkpt>
      <trkpt lat="45.62667" lon="5.72656">
        <ele>655</ele>
        <time>2021-02-21T17:09:59.317Z</time>
      </trkpt>
      <trkpt lat="45.62666" lon="5.72655">
        <ele>655</ele>
        <time>2021-02-21T17:10:04.301Z</time>
      </trkpt>
      <trkpt lat="45.62666" lon="5.72655">
        <ele>655</ele>
        <time>2021-02-21T17:10:09.321Z</time>
      </trkpt>
    </trkseg>
  </trk>
</gpx>